<?xml version="1.0" encoding="UTF-8" standalone="no" ?>
<gpx xmlns="http://www.topografix.com/GPX/1/1" xmlns:xsi="http://www.w3.org/2001/XMLSchema-instance" xsi:schemaLocation="http://www.topografix.com/GPX/1/1 http://www.topografix.com/GPX/1/1/gpx.xsd" version="1.1" creator="VisuGPX - https://www.visugpx.com">
  <metadata>
    <name>Holandsbourg - Petit Ballon</name>
  </metadata>
  <wpt lat="47.97683" lon="7.14808">
    <ele>859.8</ele>
    <name><![CDATA[Col de Boenlesgrab, 865m]]></name>
  </wpt>
  <wpt lat="47.9993" lon="7.1853">
    <ele>719.5</ele>
    <name><![CDATA[Col de Firstplan, 722m]]></name>
  </wpt>
  <wpt lat="48.01375" lon="7.21092">
    <ele>744.2</ele>
    <name><![CDATA[Col de Wolfsgrube, 748m]]></name>
  </wpt>
  <wpt lat="48.00273" lon="7.11049">
    <ele>860</ele>
    <name><![CDATA[Ferme Lameysberg]]></name>
  </wpt>
  <wpt lat="47.98275" lon="7.1196">
    <ele>1140</ele>
    <name><![CDATA[Ferme Rothenbrunnen]]></name>
  </wpt>
  <wpt lat="47.98211" lon="7.13394">
    <ele>1074</ele>
    <name><![CDATA[Ferme Strohberg]]></name>
  </wpt>
  <wpt lat="48.05991" lon="7.26927">
    <ele>630</ele>
    <name><![CDATA[Hohlandsburg]]></name>
  </wpt>
  <trk>
    <name><![CDATA[Über den Petit Ballon zur Hohlandsburg]]></name>
    <trkseg>
      <trkpt lat="48.077" lon="7.269">
        <ele>240.7</ele>
        <time>2018-06-14T13:12:51Z</time>
      </trkpt>
      <trkpt lat="48.07695" lon="7.26882">
        <ele>242.8</ele>
        <time>2018-06-14T13:12:55Z</time>
      </trkpt>
      <trkpt lat="48.07682" lon="7.2684">
        <ele>242.7</ele>
        <time>2018-06-14T13:13:04Z</time>
      </trkpt>
      <trkpt lat="48.07666" lon="7.26786">
        <ele>245.1</ele>
        <time>2018-06-14T13:13:17Z</time>
      </trkpt>
      <trkpt lat="48.07642" lon="7.26718">
        <ele>246</ele>
        <time>2018-06-14T13:13:32Z</time>
      </trkpt>
      <trkpt lat="48.07616" lon="7.26658">
        <ele>246.9</ele>
        <time>2018-06-14T13:13:47Z</time>
      </trkpt>
      <trkpt lat="48.0759" lon="7.26603">
        <ele>248.1</ele>
        <time>2018-06-14T13:14:01Z</time>
      </trkpt>
      <trkpt lat="48.07581" lon="7.26583">
        <ele>248.2</ele>
        <time>2018-06-14T13:14:06Z</time>
      </trkpt>
      <trkpt lat="48.07564" lon="7.26538">
        <ele>248.1</ele>
        <time>2018-06-14T13:14:17Z</time>
      </trkpt>
      <trkpt lat="48.07514" lon="7.26438">
        <ele>249.1</ele>
        <time>2018-06-14T13:14:43Z</time>
      </trkpt>
      <trkpt lat="48.07478" lon="7.26338">
        <ele>249.1</ele>
        <time>2018-06-14T13:15:06Z</time>
      </trkpt>
      <trkpt lat="48.07439" lon="7.26166">
        <ele>250.4</ele>
        <time>2018-06-14T13:15:44Z</time>
      </trkpt>
      <trkpt lat="48.07429" lon="7.2614">
        <ele>250.4</ele>
        <time>2018-06-14T13:15:50Z</time>
      </trkpt>
      <trkpt lat="48.07372" lon="7.26051">
        <ele>250.4</ele>
        <time>2018-06-14T13:16:16Z</time>
      </trkpt>
      <trkpt lat="48.07322" lon="7.25937">
        <ele>251.4</ele>
        <time>2018-06-14T13:16:44Z</time>
      </trkpt>
      <trkpt lat="48.07286" lon="7.25829">
        <ele>252.5</ele>
        <time>2018-06-14T13:17:09Z</time>
      </trkpt>
      <trkpt lat="48.07235" lon="7.257">
        <ele>255.1</ele>
        <time>2018-06-14T13:17:41Z</time>
      </trkpt>
      <trkpt lat="48.07228" lon="7.25682">
        <ele>255.1</ele>
        <time>2018-06-14T13:17:45Z</time>
      </trkpt>
      <trkpt lat="48.07184" lon="7.25559">
        <ele>256.1</ele>
        <time>2018-06-14T13:18:14Z</time>
      </trkpt>
      <trkpt lat="48.07166" lon="7.25495">
        <ele>256.2</ele>
        <time>2018-06-14T13:18:28Z</time>
      </trkpt>
      <trkpt lat="48.0716" lon="7.25437">
        <ele>258</ele>
        <time>2018-06-14T13:18:40Z</time>
      </trkpt>
      <trkpt lat="48.07166" lon="7.25509">
        <ele>257.9</ele>
        <time>2018-06-14T13:18:55Z</time>
      </trkpt>
      <trkpt lat="48.07141" lon="7.25462">
        <ele>258.9</ele>
        <time>2018-06-14T13:19:08Z</time>
      </trkpt>
      <trkpt lat="48.07135" lon="7.25435">
        <ele>258.9</ele>
        <time>2018-06-14T13:19:14Z</time>
      </trkpt>
      <trkpt lat="48.0712" lon="7.25401">
        <ele>258.9</ele>
        <time>2018-06-14T13:19:22Z</time>
      </trkpt>
      <trkpt lat="48.071" lon="7.2537">
        <ele>258.9</ele>
        <time>2018-06-14T13:19:31Z</time>
      </trkpt>
      <trkpt lat="48.07068" lon="7.25321">
        <ele>259</ele>
        <time>2018-06-14T13:19:45Z</time>
      </trkpt>
      <trkpt lat="48.07049" lon="7.25292">
        <ele>259.8</ele>
        <time>2018-06-14T13:19:54Z</time>
      </trkpt>
      <trkpt lat="48.07037" lon="7.25278">
        <ele>259.7</ele>
        <time>2018-06-14T13:19:58Z</time>
      </trkpt>
      <trkpt lat="48.07007" lon="7.25243">
        <ele>261.3</ele>
        <time>2018-06-14T13:20:10Z</time>
      </trkpt>
      <trkpt lat="48.06996" lon="7.25229">
        <ele>260.9</ele>
        <time>2018-06-14T13:20:15Z</time>
      </trkpt>
      <trkpt lat="48.06981" lon="7.25214">
        <ele>260.9</ele>
        <time>2018-06-14T13:20:20Z</time>
      </trkpt>
      <trkpt lat="48.06966" lon="7.25199">
        <ele>258.3</ele>
        <time>2018-06-14T13:20:26Z</time>
      </trkpt>
      <trkpt lat="48.06952" lon="7.25184">
        <ele>258.4</ele>
        <time>2018-06-14T13:20:31Z</time>
      </trkpt>
      <trkpt lat="48.06935" lon="7.25164">
        <ele>260.9</ele>
        <time>2018-06-14T13:20:38Z</time>
      </trkpt>
      <trkpt lat="48.06917" lon="7.25148">
        <ele>263.6</ele>
        <time>2018-06-14T13:20:45Z</time>
      </trkpt>
      <trkpt lat="48.0689" lon="7.25108">
        <ele>265.2</ele>
        <time>2018-06-14T13:20:56Z</time>
      </trkpt>
      <trkpt lat="48.06866" lon="7.25078">
        <ele>265.1</ele>
        <time>2018-06-14T13:21:06Z</time>
      </trkpt>
      <trkpt lat="48.06826" lon="7.2504">
        <ele>265</ele>
        <time>2018-06-14T13:21:21Z</time>
      </trkpt>
      <trkpt lat="48.06775" lon="7.24998">
        <ele>265</ele>
        <time>2018-06-14T13:21:39Z</time>
      </trkpt>
      <trkpt lat="48.0675" lon="7.24976">
        <ele>265.9</ele>
        <time>2018-06-14T13:21:48Z</time>
      </trkpt>
      <trkpt lat="48.06735" lon="7.24966">
        <ele>265.9</ele>
        <time>2018-06-14T13:21:53Z</time>
      </trkpt>
      <trkpt lat="48.06717" lon="7.24952">
        <ele>265.8</ele>
        <time>2018-06-14T13:21:59Z</time>
      </trkpt>
      <trkpt lat="48.06703" lon="7.24938">
        <ele>267</ele>
        <time>2018-06-14T13:22:04Z</time>
      </trkpt>
      <trkpt lat="48.06691" lon="7.24926">
        <ele>266.9</ele>
        <time>2018-06-14T13:22:09Z</time>
      </trkpt>
      <trkpt lat="48.06676" lon="7.2491">
        <ele>267.7</ele>
        <time>2018-06-14T13:22:15Z</time>
      </trkpt>
      <trkpt lat="48.06656" lon="7.24889">
        <ele>267.7</ele>
        <time>2018-06-14T13:22:22Z</time>
      </trkpt>
      <trkpt lat="48.06642" lon="7.24878">
        <ele>267.7</ele>
        <time>2018-06-14T13:22:27Z</time>
      </trkpt>
      <trkpt lat="48.06607" lon="7.24856">
        <ele>267.8</ele>
        <time>2018-06-14T13:22:39Z</time>
      </trkpt>
      <trkpt lat="48.06591" lon="7.24845">
        <ele>267.8</ele>
        <time>2018-06-14T13:22:44Z</time>
      </trkpt>
      <trkpt lat="48.06581" lon="7.24829">
        <ele>267.8</ele>
        <time>2018-06-14T13:22:49Z</time>
      </trkpt>
      <trkpt lat="48.0659" lon="7.24813">
        <ele>267.7</ele>
        <time>2018-06-14T13:22:53Z</time>
      </trkpt>
      <trkpt lat="48.06605" lon="7.24801">
        <ele>267.7</ele>
        <time>2018-06-14T13:22:59Z</time>
      </trkpt>
      <trkpt lat="48.06603" lon="7.2478">
        <ele>267.8</ele>
        <time>2018-06-14T13:23:03Z</time>
      </trkpt>
      <trkpt lat="48.0654" lon="7.2471">
        <ele>267.9</ele>
        <time>2018-06-14T13:23:27Z</time>
      </trkpt>
      <trkpt lat="48.06467" lon="7.24619">
        <ele>267.9</ele>
        <time>2018-06-14T13:23:57Z</time>
      </trkpt>
      <trkpt lat="48.06393" lon="7.24519">
        <ele>268</ele>
        <time>2018-06-14T13:24:28Z</time>
      </trkpt>
      <trkpt lat="48.06342" lon="7.24438">
        <ele>268</ele>
        <time>2018-06-14T13:24:51Z</time>
      </trkpt>
      <trkpt lat="48.06298" lon="7.24372">
        <ele>269</ele>
        <time>2018-06-14T13:25:10Z</time>
      </trkpt>
      <trkpt lat="48.06237" lon="7.24337">
        <ele>270</ele>
        <time>2018-06-14T13:25:31Z</time>
      </trkpt>
      <trkpt lat="48.06216" lon="7.24327">
        <ele>270.1</ele>
        <time>2018-06-14T13:25:37Z</time>
      </trkpt>
      <trkpt lat="48.062" lon="7.2432">
        <ele>271.8</ele>
        <time>2018-06-14T13:25:43Z</time>
      </trkpt>
      <trkpt lat="48.06161" lon="7.24271">
        <ele>273.7</ele>
        <time>2018-06-14T13:25:58Z</time>
      </trkpt>
      <trkpt lat="48.0615" lon="7.2425">
        <ele>273.7</ele>
        <time>2018-06-14T13:26:04Z</time>
      </trkpt>
      <trkpt lat="48.06137" lon="7.24239">
        <ele>273.7</ele>
        <time>2018-06-14T13:26:08Z</time>
      </trkpt>
      <trkpt lat="48.06123" lon="7.24226">
        <ele>273.7</ele>
        <time>2018-06-14T13:26:14Z</time>
      </trkpt>
      <trkpt lat="48.0606" lon="7.24173">
        <ele>274.4</ele>
        <time>2018-06-14T13:26:36Z</time>
      </trkpt>
      <trkpt lat="48.06" lon="7.24125">
        <ele>275.2</ele>
        <time>2018-06-14T13:26:57Z</time>
      </trkpt>
      <trkpt lat="48.05976" lon="7.24105">
        <ele>275.9</ele>
        <time>2018-06-14T13:27:06Z</time>
      </trkpt>
      <trkpt lat="48.05951" lon="7.24075">
        <ele>277.2</ele>
        <time>2018-06-14T13:27:16Z</time>
      </trkpt>
      <trkpt lat="48.05902" lon="7.24051">
        <ele>282.1</ele>
        <time>2018-06-14T13:27:32Z</time>
      </trkpt>
      <trkpt lat="48.05886" lon="7.24042">
        <ele>283.3</ele>
        <time>2018-06-14T13:27:37Z</time>
      </trkpt>
      <trkpt lat="48.05852" lon="7.24016">
        <ele>285.6</ele>
        <time>2018-06-14T13:27:49Z</time>
      </trkpt>
      <trkpt lat="48.0582" lon="7.23981">
        <ele>288.1</ele>
        <time>2018-06-14T13:28:01Z</time>
      </trkpt>
      <trkpt lat="48.05781" lon="7.23957">
        <ele>290.1</ele>
        <time>2018-06-14T13:28:14Z</time>
      </trkpt>
      <trkpt lat="48.05722" lon="7.23934">
        <ele>291.1</ele>
        <time>2018-06-14T13:28:33Z</time>
      </trkpt>
      <trkpt lat="48.0569" lon="7.23924">
        <ele>292</ele>
        <time>2018-06-14T13:28:43Z</time>
      </trkpt>
      <trkpt lat="48.05681" lon="7.23903">
        <ele>291.9</ele>
        <time>2018-06-14T13:28:49Z</time>
      </trkpt>
      <trkpt lat="48.05676" lon="7.23883">
        <ele>289.6</ele>
        <time>2018-06-14T13:28:53Z</time>
      </trkpt>
      <trkpt lat="48.0567" lon="7.23861">
        <ele>289.6</ele>
        <time>2018-06-14T13:28:58Z</time>
      </trkpt>
      <trkpt lat="48.05645" lon="7.23802">
        <ele>287.7</ele>
        <time>2018-06-14T13:29:13Z</time>
      </trkpt>
      <trkpt lat="48.05606" lon="7.23725">
        <ele>286.9</ele>
        <time>2018-06-14T13:29:33Z</time>
      </trkpt>
      <trkpt lat="48.05594" lon="7.23701">
        <ele>284.5</ele>
        <time>2018-06-14T13:29:39Z</time>
      </trkpt>
      <trkpt lat="48.05541" lon="7.23598">
        <ele>281.6</ele>
        <time>2018-06-14T13:30:06Z</time>
      </trkpt>
      <trkpt lat="48.05532" lon="7.2358">
        <ele>281.6</ele>
        <time>2018-06-14T13:30:10Z</time>
      </trkpt>
      <trkpt lat="48.05517" lon="7.23547">
        <ele>281.7</ele>
        <time>2018-06-14T13:30:19Z</time>
      </trkpt>
      <trkpt lat="48.0549" lon="7.23492">
        <ele>281.8</ele>
        <time>2018-06-14T13:30:33Z</time>
      </trkpt>
      <trkpt lat="48.05481" lon="7.23474">
        <ele>281.8</ele>
        <time>2018-06-14T13:30:37Z</time>
      </trkpt>
      <trkpt lat="48.05468" lon="7.23446">
        <ele>281.8</ele>
        <time>2018-06-14T13:30:45Z</time>
      </trkpt>
      <trkpt lat="48.0546" lon="7.23414">
        <ele>281.8</ele>
        <time>2018-06-14T13:30:52Z</time>
      </trkpt>
      <trkpt lat="48.05452" lon="7.23393">
        <ele>284.3</ele>
        <time>2018-06-14T13:30:57Z</time>
      </trkpt>
      <trkpt lat="48.05429" lon="7.23342">
        <ele>284.3</ele>
        <time>2018-06-14T13:31:10Z</time>
      </trkpt>
      <trkpt lat="48.0542" lon="7.23321">
        <ele>284.5</ele>
        <time>2018-06-14T13:31:15Z</time>
      </trkpt>
      <trkpt lat="48.05411" lon="7.23299">
        <ele>284.4</ele>
        <time>2018-06-14T13:31:20Z</time>
      </trkpt>
      <trkpt lat="48.05392" lon="7.23247">
        <ele>285.4</ele>
        <time>2018-06-14T13:31:32Z</time>
      </trkpt>
      <trkpt lat="48.05381" lon="7.23221">
        <ele>286.2</ele>
        <time>2018-06-14T13:31:39Z</time>
      </trkpt>
      <trkpt lat="48.05366" lon="7.23184">
        <ele>286.3</ele>
        <time>2018-06-14T13:31:48Z</time>
      </trkpt>
      <trkpt lat="48.05359" lon="7.2316">
        <ele>288.2</ele>
        <time>2018-06-14T13:31:53Z</time>
      </trkpt>
      <trkpt lat="48.05348" lon="7.23122">
        <ele>288.1</ele>
        <time>2018-06-14T13:32:02Z</time>
      </trkpt>
      <trkpt lat="48.0533" lon="7.23073">
        <ele>289.9</ele>
        <time>2018-06-14T13:32:13Z</time>
      </trkpt>
      <trkpt lat="48.05314" lon="7.23028">
        <ele>292.8</ele>
        <time>2018-06-14T13:32:24Z</time>
      </trkpt>
      <trkpt lat="48.05304" lon="7.22993">
        <ele>293.9</ele>
        <time>2018-06-14T13:32:32Z</time>
      </trkpt>
      <trkpt lat="48.05298" lon="7.22974">
        <ele>294.7</ele>
        <time>2018-06-14T13:32:36Z</time>
      </trkpt>
      <trkpt lat="48.05273" lon="7.22931">
        <ele>296.7</ele>
        <time>2018-06-14T13:32:48Z</time>
      </trkpt>
      <trkpt lat="48.05241" lon="7.22896">
        <ele>299.8</ele>
        <time>2018-06-14T13:33:00Z</time>
      </trkpt>
      <trkpt lat="48.05214" lon="7.22878">
        <ele>301.1</ele>
        <time>2018-06-14T13:33:10Z</time>
      </trkpt>
      <trkpt lat="48.05192" lon="7.22868">
        <ele>302.4</ele>
        <time>2018-06-14T13:33:17Z</time>
      </trkpt>
      <trkpt lat="48.05163" lon="7.22824">
        <ele>298.6</ele>
        <time>2018-06-14T13:33:30Z</time>
      </trkpt>
      <trkpt lat="48.05154" lon="7.22801">
        <ele>297.4</ele>
        <time>2018-06-14T13:33:35Z</time>
      </trkpt>
      <trkpt lat="48.05149" lon="7.22774">
        <ele>295.1</ele>
        <time>2018-06-14T13:33:41Z</time>
      </trkpt>
      <trkpt lat="48.05156" lon="7.22747">
        <ele>293.6</ele>
        <time>2018-06-14T13:33:47Z</time>
      </trkpt>
      <trkpt lat="48.05167" lon="7.22732">
        <ele>292.5</ele>
        <time>2018-06-14T13:33:52Z</time>
      </trkpt>
      <trkpt lat="48.05179" lon="7.2272">
        <ele>291.3</ele>
        <time>2018-06-14T13:33:56Z</time>
      </trkpt>
      <trkpt lat="48.05245" lon="7.22651">
        <ele>287.8</ele>
        <time>2018-06-14T13:34:21Z</time>
      </trkpt>
      <trkpt lat="48.05296" lon="7.22568">
        <ele>287</ele>
        <time>2018-06-14T13:34:45Z</time>
      </trkpt>
      <trkpt lat="48.05309" lon="7.22558">
        <ele>286</ele>
        <time>2018-06-14T13:34:49Z</time>
      </trkpt>
      <trkpt lat="48.05322" lon="7.22551">
        <ele>286</ele>
        <time>2018-06-14T13:34:53Z</time>
      </trkpt>
      <trkpt lat="48.05378" lon="7.22534">
        <ele>286.1</ele>
        <time>2018-06-14T13:35:11Z</time>
      </trkpt>
      <trkpt lat="48.05379" lon="7.22511">
        <ele>286.2</ele>
        <time>2018-06-14T13:35:16Z</time>
      </trkpt>
      <trkpt lat="48.0537" lon="7.2249">
        <ele>286.2</ele>
        <time>2018-06-14T13:35:21Z</time>
      </trkpt>
      <trkpt lat="48.05349" lon="7.22447">
        <ele>288.6</ele>
        <time>2018-06-14T13:35:32Z</time>
      </trkpt>
      <trkpt lat="48.05304" lon="7.22357">
        <ele>290.4</ele>
        <time>2018-06-14T13:35:56Z</time>
      </trkpt>
      <trkpt lat="48.05249" lon="7.22248">
        <ele>290.4</ele>
        <time>2018-06-14T13:36:24Z</time>
      </trkpt>
      <trkpt lat="48.05182" lon="7.22114">
        <ele>291.5</ele>
        <time>2018-06-14T13:36:59Z</time>
      </trkpt>
      <trkpt lat="48.05154" lon="7.22056">
        <ele>292.8</ele>
        <time>2018-06-14T13:37:14Z</time>
      </trkpt>
      <trkpt lat="48.05084" lon="7.21918">
        <ele>294.6</ele>
        <time>2018-06-14T13:37:50Z</time>
      </trkpt>
      <trkpt lat="48.05075" lon="7.21901">
        <ele>295.9</ele>
        <time>2018-06-14T13:37:54Z</time>
      </trkpt>
      <trkpt lat="48.05016" lon="7.21782">
        <ele>296</ele>
        <time>2018-06-14T13:38:25Z</time>
      </trkpt>
      <trkpt lat="48.04952" lon="7.21657">
        <ele>297.1</ele>
        <time>2018-06-14T13:38:58Z</time>
      </trkpt>
      <trkpt lat="48.04895" lon="7.21546">
        <ele>298</ele>
        <time>2018-06-14T13:39:27Z</time>
      </trkpt>
      <trkpt lat="48.04835" lon="7.21428">
        <ele>300.5</ele>
        <time>2018-06-14T13:39:58Z</time>
      </trkpt>
      <trkpt lat="48.0477" lon="7.21295">
        <ele>301.6</ele>
        <time>2018-06-14T13:40:32Z</time>
      </trkpt>
      <trkpt lat="48.0471" lon="7.21178">
        <ele>302.5</ele>
        <time>2018-06-14T13:41:02Z</time>
      </trkpt>
      <trkpt lat="48.04652" lon="7.21061">
        <ele>304.2</ele>
        <time>2018-06-14T13:41:33Z</time>
      </trkpt>
      <trkpt lat="48.04625" lon="7.21005">
        <ele>306.8</ele>
        <time>2018-06-14T13:41:47Z</time>
      </trkpt>
      <trkpt lat="48.04653" lon="7.20957">
        <ele>306.9</ele>
        <time>2018-06-14T13:42:00Z</time>
      </trkpt>
      <trkpt lat="48.04673" lon="7.20928">
        <ele>307.7</ele>
        <time>2018-06-14T13:42:08Z</time>
      </trkpt>
      <trkpt lat="48.04688" lon="7.20921">
        <ele>307.7</ele>
        <time>2018-06-14T13:42:13Z</time>
      </trkpt>
      <trkpt lat="48.04724" lon="7.20872">
        <ele>307.6</ele>
        <time>2018-06-14T13:42:28Z</time>
      </trkpt>
      <trkpt lat="48.04761" lon="7.20838">
        <ele>307.7</ele>
        <time>2018-06-14T13:42:42Z</time>
      </trkpt>
      <trkpt lat="48.04772" lon="7.20822">
        <ele>307.6</ele>
        <time>2018-06-14T13:42:47Z</time>
      </trkpt>
      <trkpt lat="48.04765" lon="7.20799">
        <ele>307.6</ele>
        <time>2018-06-14T13:42:52Z</time>
      </trkpt>
      <trkpt lat="48.04754" lon="7.20781">
        <ele>305.2</ele>
        <time>2018-06-14T13:42:57Z</time>
      </trkpt>
      <trkpt lat="48.04745" lon="7.20758">
        <ele>305.2</ele>
        <time>2018-06-14T13:43:02Z</time>
      </trkpt>
      <trkpt lat="48.0474" lon="7.20739">
        <ele>305.2</ele>
        <time>2018-06-14T13:43:07Z</time>
      </trkpt>
      <trkpt lat="48.04729" lon="7.20637">
        <ele>304.2</ele>
        <time>2018-06-14T13:43:28Z</time>
      </trkpt>
      <trkpt lat="48.04698" lon="7.20524">
        <ele>306.7</ele>
        <time>2018-06-14T13:43:53Z</time>
      </trkpt>
      <trkpt lat="48.04665" lon="7.20398">
        <ele>306.8</ele>
        <time>2018-06-14T13:44:22Z</time>
      </trkpt>
      <trkpt lat="48.04644" lon="7.20319">
        <ele>308.9</ele>
        <time>2018-06-14T13:44:39Z</time>
      </trkpt>
      <trkpt lat="48.04621" lon="7.20217">
        <ele>308.9</ele>
        <time>2018-06-14T13:45:02Z</time>
      </trkpt>
      <trkpt lat="48.04598" lon="7.20083">
        <ele>311.3</ele>
        <time>2018-06-14T13:45:30Z</time>
      </trkpt>
      <trkpt lat="48.04592" lon="7.20032">
        <ele>311.3</ele>
        <time>2018-06-14T13:45:41Z</time>
      </trkpt>
      <trkpt lat="48.0456" lon="7.19888">
        <ele>312.3</ele>
        <time>2018-06-14T13:46:13Z</time>
      </trkpt>
      <trkpt lat="48.04529" lon="7.19743">
        <ele>314.1</ele>
        <time>2018-06-14T13:46:44Z</time>
      </trkpt>
      <trkpt lat="48.04515" lon="7.1969">
        <ele>314.8</ele>
        <time>2018-06-14T13:46:56Z</time>
      </trkpt>
      <trkpt lat="48.04468" lon="7.19591">
        <ele>315.9</ele>
        <time>2018-06-14T13:47:21Z</time>
      </trkpt>
      <trkpt lat="48.04457" lon="7.19569">
        <ele>315.9</ele>
        <time>2018-06-14T13:47:27Z</time>
      </trkpt>
      <trkpt lat="48.04467" lon="7.19551">
        <ele>317.1</ele>
        <time>2018-06-14T13:47:32Z</time>
      </trkpt>
      <trkpt lat="48.04553" lon="7.19491">
        <ele>317.2</ele>
        <time>2018-06-14T13:48:01Z</time>
      </trkpt>
      <trkpt lat="48.04619" lon="7.19447">
        <ele>318.4</ele>
        <time>2018-06-14T13:48:24Z</time>
      </trkpt>
      <trkpt lat="48.04705" lon="7.1939">
        <ele>318.4</ele>
        <time>2018-06-14T13:48:53Z</time>
      </trkpt>
      <trkpt lat="48.04752" lon="7.19358">
        <ele>320.2</ele>
        <time>2018-06-14T13:49:09Z</time>
      </trkpt>
      <trkpt lat="48.04752" lon="7.19333">
        <ele>320.2</ele>
        <time>2018-06-14T13:49:14Z</time>
      </trkpt>
      <trkpt lat="48.04702" lon="7.1917">
        <ele>321.1</ele>
        <time>2018-06-14T13:49:51Z</time>
      </trkpt>
      <trkpt lat="48.0468" lon="7.19102">
        <ele>322.1</ele>
        <time>2018-06-14T13:50:07Z</time>
      </trkpt>
      <trkpt lat="48.0468" lon="7.19081">
        <ele>322.1</ele>
        <time>2018-06-14T13:50:11Z</time>
      </trkpt>
      <trkpt lat="48.04684" lon="7.19052">
        <ele>323.4</ele>
        <time>2018-06-14T13:50:18Z</time>
      </trkpt>
      <trkpt lat="48.04692" lon="7.18994">
        <ele>323.4</ele>
        <time>2018-06-14T13:50:30Z</time>
      </trkpt>
      <trkpt lat="48.0466" lon="7.1882">
        <ele>325.3</ele>
        <time>2018-06-14T13:51:07Z</time>
      </trkpt>
      <trkpt lat="48.04632" lon="7.18663">
        <ele>326.4</ele>
        <time>2018-06-14T13:51:41Z</time>
      </trkpt>
      <trkpt lat="48.04637" lon="7.18644">
        <ele>327.1</ele>
        <time>2018-06-14T13:51:45Z</time>
      </trkpt>
      <trkpt lat="48.04691" lon="7.18623">
        <ele>328.9</ele>
        <time>2018-06-14T13:52:03Z</time>
      </trkpt>
      <trkpt lat="48.04694" lon="7.186">
        <ele>329.7</ele>
        <time>2018-06-14T13:52:08Z</time>
      </trkpt>
      <trkpt lat="48.04673" lon="7.18493">
        <ele>329.9</ele>
        <time>2018-06-14T13:52:31Z</time>
      </trkpt>
      <trkpt lat="48.04602" lon="7.18358">
        <ele>329.7</ele>
        <time>2018-06-14T13:53:07Z</time>
      </trkpt>
      <trkpt lat="48.04582" lon="7.18339">
        <ele>329.7</ele>
        <time>2018-06-14T13:53:14Z</time>
      </trkpt>
      <trkpt lat="48.0457" lon="7.18322">
        <ele>329.8</ele>
        <time>2018-06-14T13:53:19Z</time>
      </trkpt>
      <trkpt lat="48.04563" lon="7.18302">
        <ele>329.8</ele>
        <time>2018-06-14T13:53:24Z</time>
      </trkpt>
      <trkpt lat="48.04537" lon="7.18194">
        <ele>331.9</ele>
        <time>2018-06-14T13:53:47Z</time>
      </trkpt>
      <trkpt lat="48.04535" lon="7.18134">
        <ele>332.9</ele>
        <time>2018-06-14T13:54:00Z</time>
      </trkpt>
      <trkpt lat="48.0452" lon="7.18054">
        <ele>333.8</ele>
        <time>2018-06-14T13:54:17Z</time>
      </trkpt>
      <trkpt lat="48.04524" lon="7.18002">
        <ele>334.8</ele>
        <time>2018-06-14T13:54:28Z</time>
      </trkpt>
      <trkpt lat="48.04505" lon="7.17999">
        <ele>334.7</ele>
        <time>2018-06-14T13:54:34Z</time>
      </trkpt>
      <trkpt lat="48.04485" lon="7.17996">
        <ele>334.7</ele>
        <time>2018-06-14T13:54:40Z</time>
      </trkpt>
      <trkpt lat="48.04485" lon="7.17941">
        <ele>334.6</ele>
        <time>2018-06-14T13:54:52Z</time>
      </trkpt>
      <trkpt lat="48.04479" lon="7.17885">
        <ele>334.6</ele>
        <time>2018-06-14T13:55:03Z</time>
      </trkpt>
      <trkpt lat="48.04461" lon="7.17767">
        <ele>334.7</ele>
        <time>2018-06-14T13:55:29Z</time>
      </trkpt>
      <trkpt lat="48.04451" lon="7.17659">
        <ele>335.7</ele>
        <time>2018-06-14T13:55:51Z</time>
      </trkpt>
      <trkpt lat="48.04453" lon="7.17607">
        <ele>335.5</ele>
        <time>2018-06-14T13:56:02Z</time>
      </trkpt>
      <trkpt lat="48.04454" lon="7.17586">
        <ele>336.5</ele>
        <time>2018-06-14T13:56:06Z</time>
      </trkpt>
      <trkpt lat="48.04458" lon="7.17559">
        <ele>336.5</ele>
        <time>2018-06-14T13:56:12Z</time>
      </trkpt>
      <trkpt lat="48.04463" lon="7.17532">
        <ele>339.9</ele>
        <time>2018-06-14T13:56:18Z</time>
      </trkpt>
      <trkpt lat="48.0445" lon="7.1752">
        <ele>340</ele>
        <time>2018-06-14T13:56:23Z</time>
      </trkpt>
      <trkpt lat="48.04399" lon="7.175">
        <ele>339.9</ele>
        <time>2018-06-14T13:56:39Z</time>
      </trkpt>
      <trkpt lat="48.04421" lon="7.17406">
        <ele>339.9</ele>
        <time>2018-06-14T13:57:00Z</time>
      </trkpt>
      <trkpt lat="48.04426" lon="7.17384">
        <ele>339.9</ele>
        <time>2018-06-14T13:57:05Z</time>
      </trkpt>
      <trkpt lat="48.04434" lon="7.17364">
        <ele>339.8</ele>
        <time>2018-06-14T13:57:09Z</time>
      </trkpt>
      <trkpt lat="48.04435" lon="7.17337">
        <ele>340.7</ele>
        <time>2018-06-14T13:57:15Z</time>
      </trkpt>
      <trkpt lat="48.04436" lon="7.17313">
        <ele>340.6</ele>
        <time>2018-06-14T13:57:20Z</time>
      </trkpt>
      <trkpt lat="48.04443" lon="7.1729">
        <ele>340.5</ele>
        <time>2018-06-14T13:57:25Z</time>
      </trkpt>
      <trkpt lat="48.04445" lon="7.17267">
        <ele>340.6</ele>
        <time>2018-06-14T13:57:30Z</time>
      </trkpt>
      <trkpt lat="48.04438" lon="7.17166">
        <ele>340.7</ele>
        <time>2018-06-14T13:57:51Z</time>
      </trkpt>
      <trkpt lat="48.04426" lon="7.17047">
        <ele>342.6</ele>
        <time>2018-06-14T13:58:16Z</time>
      </trkpt>
      <trkpt lat="48.04423" lon="7.17023">
        <ele>342.6</ele>
        <time>2018-06-14T13:58:21Z</time>
      </trkpt>
      <trkpt lat="48.04418" lon="7.16975">
        <ele>343.8</ele>
        <time>2018-06-14T13:58:31Z</time>
      </trkpt>
      <trkpt lat="48.04416" lon="7.16953">
        <ele>343.8</ele>
        <time>2018-06-14T13:58:36Z</time>
      </trkpt>
      <trkpt lat="48.04408" lon="7.16915">
        <ele>343.8</ele>
        <time>2018-06-14T13:58:44Z</time>
      </trkpt>
      <trkpt lat="48.04413" lon="7.16789">
        <ele>343.6</ele>
        <time>2018-06-14T13:59:10Z</time>
      </trkpt>
      <trkpt lat="48.04416" lon="7.16741">
        <ele>345.6</ele>
        <time>2018-06-14T13:59:20Z</time>
      </trkpt>
      <trkpt lat="48.04428" lon="7.16625">
        <ele>345.5</ele>
        <time>2018-06-14T13:59:45Z</time>
      </trkpt>
      <trkpt lat="48.04429" lon="7.16602">
        <ele>346.3</ele>
        <time>2018-06-14T13:59:50Z</time>
      </trkpt>
      <trkpt lat="48.04434" lon="7.16571">
        <ele>346.3</ele>
        <time>2018-06-14T13:59:56Z</time>
      </trkpt>
      <trkpt lat="48.04443" lon="7.1655">
        <ele>346.3</ele>
        <time>2018-06-14T14:00:01Z</time>
      </trkpt>
      <trkpt lat="48.04462" lon="7.16487">
        <ele>346.4</ele>
        <time>2018-06-14T14:00:16Z</time>
      </trkpt>
      <trkpt lat="48.0447" lon="7.16432">
        <ele>346.4</ele>
        <time>2018-06-14T14:00:27Z</time>
      </trkpt>
      <trkpt lat="48.04472" lon="7.16404">
        <ele>346.4</ele>
        <time>2018-06-14T14:00:33Z</time>
      </trkpt>
      <trkpt lat="48.04455" lon="7.16303">
        <ele>348.6</ele>
        <time>2018-06-14T14:00:55Z</time>
      </trkpt>
      <trkpt lat="48.04441" lon="7.16238">
        <ele>348.5</ele>
        <time>2018-06-14T14:01:09Z</time>
      </trkpt>
      <trkpt lat="48.04432" lon="7.16193">
        <ele>348.6</ele>
        <time>2018-06-14T14:01:19Z</time>
      </trkpt>
      <trkpt lat="48.04428" lon="7.16173">
        <ele>350.2</ele>
        <time>2018-06-14T14:01:23Z</time>
      </trkpt>
      <trkpt lat="48.04431" lon="7.16118">
        <ele>351</ele>
        <time>2018-06-14T14:01:35Z</time>
      </trkpt>
      <trkpt lat="48.04435" lon="7.16091">
        <ele>350.8</ele>
        <time>2018-06-14T14:01:40Z</time>
      </trkpt>
      <trkpt lat="48.04453" lon="7.1603">
        <ele>351.8</ele>
        <time>2018-06-14T14:01:54Z</time>
      </trkpt>
      <trkpt lat="48.04456" lon="7.16004">
        <ele>352.8</ele>
        <time>2018-06-14T14:02:00Z</time>
      </trkpt>
      <trkpt lat="48.04448" lon="7.15934">
        <ele>352.9</ele>
        <time>2018-06-14T14:02:14Z</time>
      </trkpt>
      <trkpt lat="48.04429" lon="7.15869">
        <ele>354.9</ele>
        <time>2018-06-14T14:02:29Z</time>
      </trkpt>
      <trkpt lat="48.04363" lon="7.15757">
        <ele>355.8</ele>
        <time>2018-06-14T14:03:00Z</time>
      </trkpt>
      <trkpt lat="48.04349" lon="7.15725">
        <ele>358.1</ele>
        <time>2018-06-14T14:03:08Z</time>
      </trkpt>
      <trkpt lat="48.04333" lon="7.15738">
        <ele>358.8</ele>
        <time>2018-06-14T14:03:14Z</time>
      </trkpt>
      <trkpt lat="48.04356" lon="7.15676">
        <ele>361</ele>
        <time>2018-06-14T14:03:29Z</time>
      </trkpt>
      <trkpt lat="48.04391" lon="7.15598">
        <ele>362.8</ele>
        <time>2018-06-14T14:03:48Z</time>
      </trkpt>
      <trkpt lat="48.04412" lon="7.15536">
        <ele>366.2</ele>
        <time>2018-06-14T14:04:03Z</time>
      </trkpt>
      <trkpt lat="48.04401" lon="7.15525">
        <ele>366</ele>
        <time>2018-06-14T14:04:07Z</time>
      </trkpt>
      <trkpt lat="48.04409" lon="7.15427">
        <ele>366.1</ele>
        <time>2018-06-14T14:04:27Z</time>
      </trkpt>
      <trkpt lat="48.04402" lon="7.15369">
        <ele>366</ele>
        <time>2018-06-14T14:04:40Z</time>
      </trkpt>
      <trkpt lat="48.04378" lon="7.15256">
        <ele>366.8</ele>
        <time>2018-06-14T14:05:04Z</time>
      </trkpt>
      <trkpt lat="48.04373" lon="7.15232">
        <ele>366.8</ele>
        <time>2018-06-14T14:05:10Z</time>
      </trkpt>
      <trkpt lat="48.04345" lon="7.15112">
        <ele>367.5</ele>
        <time>2018-06-14T14:05:36Z</time>
      </trkpt>
      <trkpt lat="48.04336" lon="7.15071">
        <ele>364.5</ele>
        <time>2018-06-14T14:05:45Z</time>
      </trkpt>
      <trkpt lat="48.04319" lon="7.15012">
        <ele>361.8</ele>
        <time>2018-06-14T14:05:58Z</time>
      </trkpt>
      <trkpt lat="48.04315" lon="7.14992">
        <ele>361.8</ele>
        <time>2018-06-14T14:06:03Z</time>
      </trkpt>
      <trkpt lat="48.04307" lon="7.14961">
        <ele>361.8</ele>
        <time>2018-06-14T14:06:09Z</time>
      </trkpt>
      <trkpt lat="48.04304" lon="7.1493">
        <ele>361.1</ele>
        <time>2018-06-14T14:06:16Z</time>
      </trkpt>
      <trkpt lat="48.04295" lon="7.14828">
        <ele>361.3</ele>
        <time>2018-06-14T14:06:37Z</time>
      </trkpt>
      <trkpt lat="48.04289" lon="7.14803">
        <ele>361.3</ele>
        <time>2018-06-14T14:06:43Z</time>
      </trkpt>
      <trkpt lat="48.0426" lon="7.14746">
        <ele>366.2</ele>
        <time>2018-06-14T14:06:58Z</time>
      </trkpt>
      <trkpt lat="48.04247" lon="7.14718">
        <ele>368</ele>
        <time>2018-06-14T14:07:05Z</time>
      </trkpt>
      <trkpt lat="48.04241" lon="7.14621">
        <ele>371.5</ele>
        <time>2018-06-14T14:07:25Z</time>
      </trkpt>
      <trkpt lat="48.04237" lon="7.1457">
        <ele>372.2</ele>
        <time>2018-06-14T14:07:36Z</time>
      </trkpt>
      <trkpt lat="48.04216" lon="7.14515">
        <ele>369.6</ele>
        <time>2018-06-14T14:07:49Z</time>
      </trkpt>
      <trkpt lat="48.04184" lon="7.14432">
        <ele>367.9</ele>
        <time>2018-06-14T14:08:09Z</time>
      </trkpt>
      <trkpt lat="48.04167" lon="7.14429">
        <ele>368</ele>
        <time>2018-06-14T14:08:14Z</time>
      </trkpt>
      <trkpt lat="48.04145" lon="7.14442">
        <ele>368.1</ele>
        <time>2018-06-14T14:08:21Z</time>
      </trkpt>
      <trkpt lat="48.04135" lon="7.14424">
        <ele>368.1</ele>
        <time>2018-06-14T14:08:26Z</time>
      </trkpt>
      <trkpt lat="48.04111" lon="7.14446">
        <ele>368</ele>
        <time>2018-06-14T14:08:35Z</time>
      </trkpt>
      <trkpt lat="48.0408" lon="7.14402">
        <ele>368</ele>
        <time>2018-06-14T14:08:48Z</time>
      </trkpt>
      <trkpt lat="48.04066" lon="7.14387">
        <ele>368</ele>
        <time>2018-06-14T14:08:53Z</time>
      </trkpt>
      <trkpt lat="48.04047" lon="7.14377">
        <ele>368.1</ele>
        <time>2018-06-14T14:09:00Z</time>
      </trkpt>
      <trkpt lat="48.04028" lon="7.14315">
        <ele>370.6</ele>
        <time>2018-06-14T14:09:14Z</time>
      </trkpt>
      <trkpt lat="48.04022" lon="7.14291">
        <ele>370.6</ele>
        <time>2018-06-14T14:09:19Z</time>
      </trkpt>
      <trkpt lat="48.04023" lon="7.14226">
        <ele>370.6</ele>
        <time>2018-06-14T14:09:33Z</time>
      </trkpt>
      <trkpt lat="48.04035" lon="7.14207">
        <ele>370.6</ele>
        <time>2018-06-14T14:09:38Z</time>
      </trkpt>
      <trkpt lat="48.04047" lon="7.14178">
        <ele>371.9</ele>
        <time>2018-06-14T14:09:45Z</time>
      </trkpt>
      <trkpt lat="48.04028" lon="7.14134">
        <ele>371.8</ele>
        <time>2018-06-14T14:09:56Z</time>
      </trkpt>
      <trkpt lat="48.03997" lon="7.1407">
        <ele>372.6</ele>
        <time>2018-06-14T14:10:13Z</time>
      </trkpt>
      <trkpt lat="48.03996" lon="7.14016">
        <ele>373.3</ele>
        <time>2018-06-14T14:10:24Z</time>
      </trkpt>
      <trkpt lat="48.03999" lon="7.13997">
        <ele>373.3</ele>
        <time>2018-06-14T14:10:28Z</time>
      </trkpt>
      <trkpt lat="48.04058" lon="7.13967">
        <ele>373.1</ele>
        <time>2018-06-14T14:10:47Z</time>
      </trkpt>
      <trkpt lat="48.04066" lon="7.13949">
        <ele>374.2</ele>
        <time>2018-06-14T14:10:52Z</time>
      </trkpt>
      <trkpt lat="48.0407" lon="7.13927">
        <ele>375.1</ele>
        <time>2018-06-14T14:10:57Z</time>
      </trkpt>
      <trkpt lat="48.0406" lon="7.13913">
        <ele>375</ele>
        <time>2018-06-14T14:11:01Z</time>
      </trkpt>
      <trkpt lat="48.04048" lon="7.13891">
        <ele>374.9</ele>
        <time>2018-06-14T14:11:07Z</time>
      </trkpt>
      <trkpt lat="48.04042" lon="7.13861">
        <ele>374.9</ele>
        <time>2018-06-14T14:11:13Z</time>
      </trkpt>
      <trkpt lat="48.04044" lon="7.13823">
        <ele>375.8</ele>
        <time>2018-06-14T14:11:21Z</time>
      </trkpt>
      <trkpt lat="48.04052" lon="7.13797">
        <ele>377.7</ele>
        <time>2018-06-14T14:11:27Z</time>
      </trkpt>
      <trkpt lat="48.04077" lon="7.13794">
        <ele>377.6</ele>
        <time>2018-06-14T14:11:35Z</time>
      </trkpt>
      <trkpt lat="48.04088" lon="7.13781">
        <ele>377.6</ele>
        <time>2018-06-14T14:11:39Z</time>
      </trkpt>
      <trkpt lat="48.0409" lon="7.1376">
        <ele>377.6</ele>
        <time>2018-06-14T14:11:44Z</time>
      </trkpt>
      <trkpt lat="48.04082" lon="7.13722">
        <ele>378.6</ele>
        <time>2018-06-14T14:11:52Z</time>
      </trkpt>
      <trkpt lat="48.04081" lon="7.1369">
        <ele>378.6</ele>
        <time>2018-06-14T14:11:59Z</time>
      </trkpt>
      <trkpt lat="48.04078" lon="7.13669">
        <ele>379.4</ele>
        <time>2018-06-14T14:12:03Z</time>
      </trkpt>
      <trkpt lat="48.04063" lon="7.13664">
        <ele>379.4</ele>
        <time>2018-06-14T14:12:08Z</time>
      </trkpt>
      <trkpt lat="48.04047" lon="7.13671">
        <ele>379.4</ele>
        <time>2018-06-14T14:12:13Z</time>
      </trkpt>
      <trkpt lat="48.04025" lon="7.13624">
        <ele>379.5</ele>
        <time>2018-06-14T14:12:25Z</time>
      </trkpt>
      <trkpt lat="48.04009" lon="7.13586">
        <ele>379.5</ele>
        <time>2018-06-14T14:12:34Z</time>
      </trkpt>
      <trkpt lat="48.03999" lon="7.13516">
        <ele>380.6</ele>
        <time>2018-06-14T14:12:49Z</time>
      </trkpt>
      <trkpt lat="48.03995" lon="7.13427">
        <ele>381.5</ele>
        <time>2018-06-14T14:13:07Z</time>
      </trkpt>
      <trkpt lat="48.03987" lon="7.13397">
        <ele>382.4</ele>
        <time>2018-06-14T14:13:14Z</time>
      </trkpt>
      <trkpt lat="48.03972" lon="7.13396">
        <ele>382.4</ele>
        <time>2018-06-14T14:13:19Z</time>
      </trkpt>
      <trkpt lat="48.03942" lon="7.13399">
        <ele>382.4</ele>
        <time>2018-06-14T14:13:28Z</time>
      </trkpt>
      <trkpt lat="48.03885" lon="7.13403">
        <ele>382.4</ele>
        <time>2018-06-14T14:13:46Z</time>
      </trkpt>
      <trkpt lat="48.03871" lon="7.13398">
        <ele>382.5</ele>
        <time>2018-06-14T14:13:50Z</time>
      </trkpt>
      <trkpt lat="48.03867" lon="7.13376">
        <ele>382.5</ele>
        <time>2018-06-14T14:13:55Z</time>
      </trkpt>
      <trkpt lat="48.03862" lon="7.13307">
        <ele>382.5</ele>
        <time>2018-06-14T14:14:10Z</time>
      </trkpt>
      <trkpt lat="48.03857" lon="7.13271">
        <ele>383.3</ele>
        <time>2018-06-14T14:14:17Z</time>
      </trkpt>
      <trkpt lat="48.0384" lon="7.13267">
        <ele>383.3</ele>
        <time>2018-06-14T14:14:23Z</time>
      </trkpt>
      <trkpt lat="48.03822" lon="7.13269">
        <ele>383.3</ele>
        <time>2018-06-14T14:14:28Z</time>
      </trkpt>
      <trkpt lat="48.03812" lon="7.13255">
        <ele>383.3</ele>
        <time>2018-06-14T14:14:32Z</time>
      </trkpt>
      <trkpt lat="48.03814" lon="7.13125">
        <ele>384.3</ele>
        <time>2018-06-14T14:14:59Z</time>
      </trkpt>
      <trkpt lat="48.03807" lon="7.13102">
        <ele>385</ele>
        <time>2018-06-14T14:15:05Z</time>
      </trkpt>
      <trkpt lat="48.0378" lon="7.13059">
        <ele>385.9</ele>
        <time>2018-06-14T14:15:17Z</time>
      </trkpt>
      <trkpt lat="48.0373" lon="7.13002">
        <ele>385.9</ele>
        <time>2018-06-14T14:15:36Z</time>
      </trkpt>
      <trkpt lat="48.03713" lon="7.12997">
        <ele>385.9</ele>
        <time>2018-06-14T14:15:42Z</time>
      </trkpt>
      <trkpt lat="48.03698" lon="7.12994">
        <ele>385.9</ele>
        <time>2018-06-14T14:15:46Z</time>
      </trkpt>
      <trkpt lat="48.03654" lon="7.1288">
        <ele>387.8</ele>
        <time>2018-06-14T14:16:14Z</time>
      </trkpt>
      <trkpt lat="48.03644" lon="7.12848">
        <ele>387.8</ele>
        <time>2018-06-14T14:16:21Z</time>
      </trkpt>
      <trkpt lat="48.03618" lon="7.12832">
        <ele>387.8</ele>
        <time>2018-06-14T14:16:30Z</time>
      </trkpt>
      <trkpt lat="48.03608" lon="7.1281">
        <ele>387.8</ele>
        <time>2018-06-14T14:16:35Z</time>
      </trkpt>
      <trkpt lat="48.03572" lon="7.12689">
        <ele>389.6</ele>
        <time>2018-06-14T14:17:03Z</time>
      </trkpt>
      <trkpt lat="48.03571" lon="7.12661">
        <ele>390.5</ele>
        <time>2018-06-14T14:17:09Z</time>
      </trkpt>
      <trkpt lat="48.0358" lon="7.12628">
        <ele>391.5</ele>
        <time>2018-06-14T14:17:16Z</time>
      </trkpt>
      <trkpt lat="48.03569" lon="7.12612">
        <ele>391.5</ele>
        <time>2018-06-14T14:17:21Z</time>
      </trkpt>
      <trkpt lat="48.0355" lon="7.12598">
        <ele>391.5</ele>
        <time>2018-06-14T14:17:27Z</time>
      </trkpt>
      <trkpt lat="48.03538" lon="7.12579">
        <ele>391.4</ele>
        <time>2018-06-14T14:17:33Z</time>
      </trkpt>
      <trkpt lat="48.03525" lon="7.12535">
        <ele>393.2</ele>
        <time>2018-06-14T14:17:43Z</time>
      </trkpt>
      <trkpt lat="48.0348" lon="7.12404">
        <ele>394.5</ele>
        <time>2018-06-14T14:18:14Z</time>
      </trkpt>
      <trkpt lat="48.03442" lon="7.1235">
        <ele>394.4</ele>
        <time>2018-06-14T14:18:30Z</time>
      </trkpt>
      <trkpt lat="48.03434" lon="7.12332">
        <ele>395.2</ele>
        <time>2018-06-14T14:18:34Z</time>
      </trkpt>
      <trkpt lat="48.03394" lon="7.12167">
        <ele>397.9</ele>
        <time>2018-06-14T14:19:11Z</time>
      </trkpt>
      <trkpt lat="48.03373" lon="7.12119">
        <ele>397.9</ele>
        <time>2018-06-14T14:19:23Z</time>
      </trkpt>
      <trkpt lat="48.0336" lon="7.12082">
        <ele>398.9</ele>
        <time>2018-06-14T14:19:31Z</time>
      </trkpt>
      <trkpt lat="48.03346" lon="7.12044">
        <ele>398.9</ele>
        <time>2018-06-14T14:19:40Z</time>
      </trkpt>
      <trkpt lat="48.03338" lon="7.12013">
        <ele>399.8</ele>
        <time>2018-06-14T14:19:47Z</time>
      </trkpt>
      <trkpt lat="48.0333" lon="7.11996">
        <ele>399.8</ele>
        <time>2018-06-14T14:19:52Z</time>
      </trkpt>
      <trkpt lat="48.03306" lon="7.11953">
        <ele>400.8</ele>
        <time>2018-06-14T14:20:03Z</time>
      </trkpt>
      <trkpt lat="48.03256" lon="7.11933">
        <ele>401.5</ele>
        <time>2018-06-14T14:20:19Z</time>
      </trkpt>
      <trkpt lat="48.03235" lon="7.11912">
        <ele>401.5</ele>
        <time>2018-06-14T14:20:27Z</time>
      </trkpt>
      <trkpt lat="48.03193" lon="7.11874">
        <ele>407.1</ele>
        <time>2018-06-14T14:20:42Z</time>
      </trkpt>
      <trkpt lat="48.03166" lon="7.11858">
        <ele>410.8</ele>
        <time>2018-06-14T14:20:51Z</time>
      </trkpt>
      <trkpt lat="48.03137" lon="7.11824">
        <ele>412.7</ele>
        <time>2018-06-14T14:21:03Z</time>
      </trkpt>
      <trkpt lat="48.03129" lon="7.11766">
        <ele>413.6</ele>
        <time>2018-06-14T14:21:15Z</time>
      </trkpt>
      <trkpt lat="48.03098" lon="7.11737">
        <ele>414.3</ele>
        <time>2018-06-14T14:21:26Z</time>
      </trkpt>
      <trkpt lat="48.0309" lon="7.1172">
        <ele>411.7</ele>
        <time>2018-06-14T14:21:31Z</time>
      </trkpt>
      <trkpt lat="48.03082" lon="7.11697">
        <ele>409.4</ele>
        <time>2018-06-14T14:21:36Z</time>
      </trkpt>
      <trkpt lat="48.03073" lon="7.1167">
        <ele>407.3</ele>
        <time>2018-06-14T14:21:42Z</time>
      </trkpt>
      <trkpt lat="48.03063" lon="7.11655">
        <ele>407.2</ele>
        <time>2018-06-14T14:21:47Z</time>
      </trkpt>
      <trkpt lat="48.03046" lon="7.11641">
        <ele>407.2</ele>
        <time>2018-06-14T14:21:53Z</time>
      </trkpt>
      <trkpt lat="48.03032" lon="7.11626">
        <ele>407.3</ele>
        <time>2018-06-14T14:21:58Z</time>
      </trkpt>
      <trkpt lat="48.03019" lon="7.11607">
        <ele>409.8</ele>
        <time>2018-06-14T14:22:04Z</time>
      </trkpt>
      <trkpt lat="48.02965" lon="7.11512">
        <ele>411.7</ele>
        <time>2018-06-14T14:22:29Z</time>
      </trkpt>
      <trkpt lat="48.02934" lon="7.11454">
        <ele>412.5</ele>
        <time>2018-06-14T14:22:45Z</time>
      </trkpt>
      <trkpt lat="48.02882" lon="7.11364">
        <ele>413.4</ele>
        <time>2018-06-14T14:23:10Z</time>
      </trkpt>
      <trkpt lat="48.02833" lon="7.11308">
        <ele>416.1</ele>
        <time>2018-06-14T14:23:29Z</time>
      </trkpt>
      <trkpt lat="48.02821" lon="7.11297">
        <ele>416</ele>
        <time>2018-06-14T14:23:33Z</time>
      </trkpt>
      <trkpt lat="48.02807" lon="7.1128">
        <ele>416.9</ele>
        <time>2018-06-14T14:23:39Z</time>
      </trkpt>
      <trkpt lat="48.02795" lon="7.11263">
        <ele>416.8</ele>
        <time>2018-06-14T14:23:44Z</time>
      </trkpt>
      <trkpt lat="48.02758" lon="7.11202">
        <ele>418.9</ele>
        <time>2018-06-14T14:24:01Z</time>
      </trkpt>
      <trkpt lat="48.02721" lon="7.11139">
        <ele>422.1</ele>
        <time>2018-06-14T14:24:18Z</time>
      </trkpt>
      <trkpt lat="48.02701" lon="7.1109">
        <ele>424.4</ele>
        <time>2018-06-14T14:24:30Z</time>
      </trkpt>
      <trkpt lat="48.02677" lon="7.1102">
        <ele>427.2</ele>
        <time>2018-06-14T14:24:47Z</time>
      </trkpt>
      <trkpt lat="48.02651" lon="7.10957">
        <ele>428.7</ele>
        <time>2018-06-14T14:25:02Z</time>
      </trkpt>
      <trkpt lat="48.02635" lon="7.10921">
        <ele>430.8</ele>
        <time>2018-06-14T14:25:11Z</time>
      </trkpt>
      <trkpt lat="48.02606" lon="7.10848">
        <ele>431.5</ele>
        <time>2018-06-14T14:25:29Z</time>
      </trkpt>
      <trkpt lat="48.02582" lon="7.10782">
        <ele>432.5</ele>
        <time>2018-06-14T14:25:44Z</time>
      </trkpt>
      <trkpt lat="48.02572" lon="7.10764">
        <ele>433.2</ele>
        <time>2018-06-14T14:25:49Z</time>
      </trkpt>
      <trkpt lat="48.02555" lon="7.10713">
        <ele>430.8</ele>
        <time>2018-06-14T14:26:01Z</time>
      </trkpt>
      <trkpt lat="48.02528" lon="7.1059">
        <ele>430.7</ele>
        <time>2018-06-14T14:26:28Z</time>
      </trkpt>
      <trkpt lat="48.02495" lon="7.1044">
        <ele>430.8</ele>
        <time>2018-06-14T14:27:01Z</time>
      </trkpt>
      <trkpt lat="48.02487" lon="7.10403">
        <ele>433.8</ele>
        <time>2018-06-14T14:27:09Z</time>
      </trkpt>
      <trkpt lat="48.0247" lon="7.10351">
        <ele>435</ele>
        <time>2018-06-14T14:27:21Z</time>
      </trkpt>
      <trkpt lat="48.02457" lon="7.10336">
        <ele>436</ele>
        <time>2018-06-14T14:27:26Z</time>
      </trkpt>
      <trkpt lat="48.024" lon="7.10296">
        <ele>440.7</ele>
        <time>2018-06-14T14:27:46Z</time>
      </trkpt>
      <trkpt lat="48.02381" lon="7.10241">
        <ele>440.7</ele>
        <time>2018-06-14T14:27:58Z</time>
      </trkpt>
      <trkpt lat="48.02372" lon="7.10211">
        <ele>440.6</ele>
        <time>2018-06-14T14:28:05Z</time>
      </trkpt>
      <trkpt lat="48.02361" lon="7.10197">
        <ele>440.6</ele>
        <time>2018-06-14T14:28:10Z</time>
      </trkpt>
      <trkpt lat="48.0235" lon="7.10183">
        <ele>440.6</ele>
        <time>2018-06-14T14:28:14Z</time>
      </trkpt>
      <trkpt lat="48.02319" lon="7.10193">
        <ele>443.2</ele>
        <time>2018-06-14T14:28:24Z</time>
      </trkpt>
      <trkpt lat="48.02294" lon="7.10219">
        <ele>444.8</ele>
        <time>2018-06-14T14:28:34Z</time>
      </trkpt>
      <trkpt lat="48.02263" lon="7.10231">
        <ele>447.5</ele>
        <time>2018-06-14T14:28:44Z</time>
      </trkpt>
      <trkpt lat="48.02249" lon="7.10227">
        <ele>448.6</ele>
        <time>2018-06-14T14:28:48Z</time>
      </trkpt>
      <trkpt lat="48.02199" lon="7.10207">
        <ele>451.1</ele>
        <time>2018-06-14T14:29:04Z</time>
      </trkpt>
      <trkpt lat="48.02147" lon="7.1021">
        <ele>453</ele>
        <time>2018-06-14T14:29:20Z</time>
      </trkpt>
      <trkpt lat="48.02103" lon="7.102">
        <ele>454.6</ele>
        <time>2018-06-14T14:29:34Z</time>
      </trkpt>
      <trkpt lat="48.02079" lon="7.10194">
        <ele>456.2</ele>
        <time>2018-06-14T14:29:42Z</time>
      </trkpt>
      <trkpt lat="48.02047" lon="7.10192">
        <ele>459.3</ele>
        <time>2018-06-14T14:29:52Z</time>
      </trkpt>
      <trkpt lat="48.02014" lon="7.10189">
        <ele>461.8</ele>
        <time>2018-06-14T14:30:02Z</time>
      </trkpt>
      <trkpt lat="48.01999" lon="7.10188">
        <ele>464.2</ele>
        <time>2018-06-14T14:30:07Z</time>
      </trkpt>
      <trkpt lat="48.01958" lon="7.1017">
        <ele>467.4</ele>
        <time>2018-06-14T14:30:20Z</time>
      </trkpt>
      <trkpt lat="48.0192" lon="7.10155">
        <ele>471</ele>
        <time>2018-06-14T14:30:32Z</time>
      </trkpt>
      <trkpt lat="48.01881" lon="7.10142">
        <ele>473.6</ele>
        <time>2018-06-14T14:30:45Z</time>
      </trkpt>
      <trkpt lat="48.01842" lon="7.1013">
        <ele>476.2</ele>
        <time>2018-06-14T14:30:57Z</time>
      </trkpt>
      <trkpt lat="48.01796" lon="7.1011">
        <ele>481.2</ele>
        <time>2018-06-14T14:31:12Z</time>
      </trkpt>
      <trkpt lat="48.01762" lon="7.10102">
        <ele>484.6</ele>
        <time>2018-06-14T14:31:22Z</time>
      </trkpt>
      <trkpt lat="48.01718" lon="7.10087">
        <ele>485.5</ele>
        <time>2018-06-14T14:31:36Z</time>
      </trkpt>
      <trkpt lat="48.01676" lon="7.10071">
        <ele>486.6</ele>
        <time>2018-06-14T14:31:50Z</time>
      </trkpt>
      <trkpt lat="48.01664" lon="7.1008">
        <ele>486.6</ele>
        <time>2018-06-14T14:31:54Z</time>
      </trkpt>
      <trkpt lat="48.01674" lon="7.10132">
        <ele>486.6</ele>
        <time>2018-06-14T14:32:05Z</time>
      </trkpt>
      <trkpt lat="48.01689" lon="7.10175">
        <ele>484.2</ele>
        <time>2018-06-14T14:32:15Z</time>
      </trkpt>
      <trkpt lat="48.01733" lon="7.10231">
        <ele>482.2</ele>
        <time>2018-06-14T14:32:33Z</time>
      </trkpt>
      <trkpt lat="48.01789" lon="7.10298">
        <ele>481.3</ele>
        <time>2018-06-14T14:32:56Z</time>
      </trkpt>
      <trkpt lat="48.01833" lon="7.10347">
        <ele>483.6</ele>
        <time>2018-06-14T14:33:13Z</time>
      </trkpt>
      <trkpt lat="48.01861" lon="7.10422">
        <ele>485.6</ele>
        <time>2018-06-14T14:33:30Z</time>
      </trkpt>
      <trkpt lat="48.019" lon="7.10492">
        <ele>486.5</ele>
        <time>2018-06-14T14:33:50Z</time>
      </trkpt>
      <trkpt lat="48.01913" lon="7.10514">
        <ele>484.1</ele>
        <time>2018-06-14T14:33:55Z</time>
      </trkpt>
      <trkpt lat="48.01916" lon="7.10538">
        <ele>484.1</ele>
        <time>2018-06-14T14:34:01Z</time>
      </trkpt>
      <trkpt lat="48.01901" lon="7.10546">
        <ele>486.8</ele>
        <time>2018-06-14T14:34:06Z</time>
      </trkpt>
      <trkpt lat="48.01879" lon="7.10566">
        <ele>488.9</ele>
        <time>2018-06-14T14:34:14Z</time>
      </trkpt>
      <trkpt lat="48.01862" lon="7.10585">
        <ele>491.6</ele>
        <time>2018-06-14T14:34:20Z</time>
      </trkpt>
      <trkpt lat="48.01852" lon="7.10622">
        <ele>494.1</ele>
        <time>2018-06-14T14:34:29Z</time>
      </trkpt>
      <trkpt lat="48.01842" lon="7.10658">
        <ele>498.2</ele>
        <time>2018-06-14T14:34:37Z</time>
      </trkpt>
      <trkpt lat="48.01832" lon="7.10684">
        <ele>500.7</ele>
        <time>2018-06-14T14:34:43Z</time>
      </trkpt>
      <trkpt lat="48.01819" lon="7.1072">
        <ele>502.5</ele>
        <time>2018-06-14T14:34:51Z</time>
      </trkpt>
      <trkpt lat="48.01811" lon="7.10752">
        <ele>505.4</ele>
        <time>2018-06-14T14:34:59Z</time>
      </trkpt>
      <trkpt lat="48.01803" lon="7.10776">
        <ele>506.8</ele>
        <time>2018-06-14T14:35:04Z</time>
      </trkpt>
      <trkpt lat="48.01788" lon="7.10812">
        <ele>509.6</ele>
        <time>2018-06-14T14:35:13Z</time>
      </trkpt>
      <trkpt lat="48.01769" lon="7.10833">
        <ele>511.2</ele>
        <time>2018-06-14T14:35:20Z</time>
      </trkpt>
      <trkpt lat="48.01762" lon="7.10858">
        <ele>512</ele>
        <time>2018-06-14T14:35:26Z</time>
      </trkpt>
      <trkpt lat="48.01757" lon="7.10904">
        <ele>515.6</ele>
        <time>2018-06-14T14:35:35Z</time>
      </trkpt>
      <trkpt lat="48.01754" lon="7.10925">
        <ele>517.2</ele>
        <time>2018-06-14T14:35:40Z</time>
      </trkpt>
      <trkpt lat="48.01742" lon="7.10946">
        <ele>519.2</ele>
        <time>2018-06-14T14:35:46Z</time>
      </trkpt>
      <trkpt lat="48.01724" lon="7.10968">
        <ele>520.7</ele>
        <time>2018-06-14T14:35:53Z</time>
      </trkpt>
      <trkpt lat="48.01702" lon="7.10996">
        <ele>523.5</ele>
        <time>2018-06-14T14:36:02Z</time>
      </trkpt>
      <trkpt lat="48.01687" lon="7.1102">
        <ele>525.4</ele>
        <time>2018-06-14T14:36:09Z</time>
      </trkpt>
      <trkpt lat="48.0167" lon="7.11051">
        <ele>528.5</ele>
        <time>2018-06-14T14:36:17Z</time>
      </trkpt>
      <trkpt lat="48.01659" lon="7.11069">
        <ele>531.7</ele>
        <time>2018-06-14T14:36:22Z</time>
      </trkpt>
      <trkpt lat="48.01641" lon="7.11089">
        <ele>534</ele>
        <time>2018-06-14T14:36:29Z</time>
      </trkpt>
      <trkpt lat="48.01608" lon="7.11121">
        <ele>537.3</ele>
        <time>2018-06-14T14:36:41Z</time>
      </trkpt>
      <trkpt lat="48.01586" lon="7.11138">
        <ele>541.4</ele>
        <time>2018-06-14T14:36:49Z</time>
      </trkpt>
      <trkpt lat="48.01568" lon="7.11153">
        <ele>542.9</ele>
        <time>2018-06-14T14:36:55Z</time>
      </trkpt>
      <trkpt lat="48.01557" lon="7.1117">
        <ele>546.3</ele>
        <time>2018-06-14T14:37:00Z</time>
      </trkpt>
      <trkpt lat="48.01555" lon="7.11167">
        <ele>546.6</ele>
        <time>2018-06-14T14:37:01Z</time>
      </trkpt>
      <trkpt lat="48.01587" lon="7.11172">
        <ele>548.7</ele>
        <time>2018-06-14T14:37:12Z</time>
      </trkpt>
      <trkpt lat="48.01608" lon="7.11166">
        <ele>550.5</ele>
        <time>2018-06-14T14:37:18Z</time>
      </trkpt>
      <trkpt lat="48.01633" lon="7.11163">
        <ele>553.2</ele>
        <time>2018-06-14T14:37:26Z</time>
      </trkpt>
      <trkpt lat="48.01646" lon="7.11165">
        <ele>554.1</ele>
        <time>2018-06-14T14:37:30Z</time>
      </trkpt>
      <trkpt lat="48.01662" lon="7.11163">
        <ele>555</ele>
        <time>2018-06-14T14:37:35Z</time>
      </trkpt>
      <trkpt lat="48.01684" lon="7.11164">
        <ele>556.1</ele>
        <time>2018-06-14T14:37:42Z</time>
      </trkpt>
      <trkpt lat="48.01681" lon="7.11181">
        <ele>557.7</ele>
        <time>2018-06-14T14:37:45Z</time>
      </trkpt>
      <trkpt lat="48.0165" lon="7.11204">
        <ele>559.4</ele>
        <time>2018-06-14T14:37:56Z</time>
      </trkpt>
      <trkpt lat="48.0163" lon="7.11228">
        <ele>562</ele>
        <time>2018-06-14T14:38:04Z</time>
      </trkpt>
      <trkpt lat="48.01609" lon="7.11258">
        <ele>563.8</ele>
        <time>2018-06-14T14:38:13Z</time>
      </trkpt>
      <trkpt lat="48.01587" lon="7.11278">
        <ele>565.3</ele>
        <time>2018-06-14T14:38:21Z</time>
      </trkpt>
      <trkpt lat="48.01565" lon="7.11288">
        <ele>567.4</ele>
        <time>2018-06-14T14:38:28Z</time>
      </trkpt>
      <trkpt lat="48.01547" lon="7.113">
        <ele>568.3</ele>
        <time>2018-06-14T14:38:35Z</time>
      </trkpt>
      <trkpt lat="48.01522" lon="7.11305">
        <ele>569</ele>
        <time>2018-06-14T14:38:42Z</time>
      </trkpt>
      <trkpt lat="48.0151" lon="7.11315">
        <ele>570.1</ele>
        <time>2018-06-14T14:38:47Z</time>
      </trkpt>
      <trkpt lat="48.01499" lon="7.11328">
        <ele>571</ele>
        <time>2018-06-14T14:38:51Z</time>
      </trkpt>
      <trkpt lat="48.01485" lon="7.11338">
        <ele>572</ele>
        <time>2018-06-14T14:38:56Z</time>
      </trkpt>
      <trkpt lat="48.01473" lon="7.11349">
        <ele>574.6</ele>
        <time>2018-06-14T14:39:00Z</time>
      </trkpt>
      <trkpt lat="48.01446" lon="7.11364">
        <ele>576.8</ele>
        <time>2018-06-14T14:39:09Z</time>
      </trkpt>
      <trkpt lat="48.01434" lon="7.11375">
        <ele>578.5</ele>
        <time>2018-06-14T14:39:14Z</time>
      </trkpt>
      <trkpt lat="48.01422" lon="7.1139">
        <ele>579</ele>
        <time>2018-06-14T14:39:18Z</time>
      </trkpt>
      <trkpt lat="48.014" lon="7.1141">
        <ele>580.7</ele>
        <time>2018-06-14T14:39:26Z</time>
      </trkpt>
      <trkpt lat="48.01384" lon="7.11408">
        <ele>581.3</ele>
        <time>2018-06-14T14:39:31Z</time>
      </trkpt>
      <trkpt lat="48.0137" lon="7.11411">
        <ele>582.5</ele>
        <time>2018-06-14T14:39:36Z</time>
      </trkpt>
      <trkpt lat="48.01355" lon="7.11419">
        <ele>582.2</ele>
        <time>2018-06-14T14:39:41Z</time>
      </trkpt>
      <trkpt lat="48.01341" lon="7.11415">
        <ele>583.2</ele>
        <time>2018-06-14T14:39:45Z</time>
      </trkpt>
      <trkpt lat="48.01325" lon="7.11427">
        <ele>584.3</ele>
        <time>2018-06-14T14:39:51Z</time>
      </trkpt>
      <trkpt lat="48.01307" lon="7.11435">
        <ele>585.2</ele>
        <time>2018-06-14T14:39:57Z</time>
      </trkpt>
      <trkpt lat="48.01272" lon="7.11435">
        <ele>585</ele>
        <time>2018-06-14T14:40:08Z</time>
      </trkpt>
      <trkpt lat="48.01266" lon="7.11414">
        <ele>585.9</ele>
        <time>2018-06-14T14:40:12Z</time>
      </trkpt>
      <trkpt lat="48.01293" lon="7.11354">
        <ele>588.7</ele>
        <time>2018-06-14T14:40:27Z</time>
      </trkpt>
      <trkpt lat="48.01302" lon="7.11302">
        <ele>592.3</ele>
        <time>2018-06-14T14:40:38Z</time>
      </trkpt>
      <trkpt lat="48.01321" lon="7.11262">
        <ele>594.3</ele>
        <time>2018-06-14T14:40:48Z</time>
      </trkpt>
      <trkpt lat="48.01349" lon="7.11226">
        <ele>598.2</ele>
        <time>2018-06-14T14:41:00Z</time>
      </trkpt>
      <trkpt lat="48.01375" lon="7.11202">
        <ele>600.9</ele>
        <time>2018-06-14T14:41:09Z</time>
      </trkpt>
      <trkpt lat="48.01389" lon="7.11184">
        <ele>603.2</ele>
        <time>2018-06-14T14:41:15Z</time>
      </trkpt>
      <trkpt lat="48.01414" lon="7.11154">
        <ele>607.1</ele>
        <time>2018-06-14T14:41:25Z</time>
      </trkpt>
      <trkpt lat="48.01428" lon="7.11112">
        <ele>609.8</ele>
        <time>2018-06-14T14:41:35Z</time>
      </trkpt>
      <trkpt lat="48.01419" lon="7.11082">
        <ele>613.6</ele>
        <time>2018-06-14T14:41:42Z</time>
      </trkpt>
      <trkpt lat="48.01407" lon="7.11062">
        <ele>615.9</ele>
        <time>2018-06-14T14:41:47Z</time>
      </trkpt>
      <trkpt lat="48.01374" lon="7.11038">
        <ele>620</ele>
        <time>2018-06-14T14:41:59Z</time>
      </trkpt>
      <trkpt lat="48.01345" lon="7.11033">
        <ele>623.4</ele>
        <time>2018-06-14T14:42:08Z</time>
      </trkpt>
      <trkpt lat="48.01331" lon="7.1103">
        <ele>624.4</ele>
        <time>2018-06-14T14:42:12Z</time>
      </trkpt>
      <trkpt lat="48.01308" lon="7.11028">
        <ele>627.9</ele>
        <time>2018-06-14T14:42:19Z</time>
      </trkpt>
      <trkpt lat="48.01313" lon="7.11061">
        <ele>630.3</ele>
        <time>2018-06-14T14:42:26Z</time>
      </trkpt>
      <trkpt lat="48.0132" lon="7.11078">
        <ele>632.1</ele>
        <time>2018-06-14T14:42:30Z</time>
      </trkpt>
      <trkpt lat="48.01324" lon="7.11117">
        <ele>635.8</ele>
        <time>2018-06-14T14:42:39Z</time>
      </trkpt>
      <trkpt lat="48.01315" lon="7.11136">
        <ele>638.2</ele>
        <time>2018-06-14T14:42:44Z</time>
      </trkpt>
      <trkpt lat="48.01292" lon="7.11126">
        <ele>641.9</ele>
        <time>2018-06-14T14:42:51Z</time>
      </trkpt>
      <trkpt lat="48.01279" lon="7.11118">
        <ele>644.2</ele>
        <time>2018-06-14T14:42:55Z</time>
      </trkpt>
      <trkpt lat="48.01256" lon="7.11108">
        <ele>646.2</ele>
        <time>2018-06-14T14:43:03Z</time>
      </trkpt>
      <trkpt lat="48.01242" lon="7.11105">
        <ele>647.9</ele>
        <time>2018-06-14T14:43:07Z</time>
      </trkpt>
      <trkpt lat="48.0122" lon="7.11099">
        <ele>649.7</ele>
        <time>2018-06-14T14:43:14Z</time>
      </trkpt>
      <trkpt lat="48.01196" lon="7.11073">
        <ele>651.2</ele>
        <time>2018-06-14T14:43:23Z</time>
      </trkpt>
      <trkpt lat="48.01178" lon="7.11038">
        <ele>653.6</ele>
        <time>2018-06-14T14:43:32Z</time>
      </trkpt>
      <trkpt lat="48.01167" lon="7.11014">
        <ele>654.9</ele>
        <time>2018-06-14T14:43:39Z</time>
      </trkpt>
      <trkpt lat="48.01151" lon="7.10978">
        <ele>658.1</ele>
        <time>2018-06-14T14:43:48Z</time>
      </trkpt>
      <trkpt lat="48.01135" lon="7.10943">
        <ele>660.9</ele>
        <time>2018-06-14T14:43:56Z</time>
      </trkpt>
      <trkpt lat="48.01128" lon="7.10891">
        <ele>666.1</ele>
        <time>2018-06-14T14:44:07Z</time>
      </trkpt>
      <trkpt lat="48.01133" lon="7.10862">
        <ele>668.9</ele>
        <time>2018-06-14T14:44:13Z</time>
      </trkpt>
      <trkpt lat="48.01136" lon="7.10809">
        <ele>672.8</ele>
        <time>2018-06-14T14:44:25Z</time>
      </trkpt>
      <trkpt lat="48.01158" lon="7.10752">
        <ele>676.6</ele>
        <time>2018-06-14T14:44:38Z</time>
      </trkpt>
      <trkpt lat="48.01164" lon="7.10721">
        <ele>679.6</ele>
        <time>2018-06-14T14:44:45Z</time>
      </trkpt>
      <trkpt lat="48.01165" lon="7.10682">
        <ele>681.6</ele>
        <time>2018-06-14T14:44:53Z</time>
      </trkpt>
      <trkpt lat="48.01158" lon="7.10625">
        <ele>685.3</ele>
        <time>2018-06-14T14:45:05Z</time>
      </trkpt>
      <trkpt lat="48.01147" lon="7.10589">
        <ele>687</ele>
        <time>2018-06-14T14:45:13Z</time>
      </trkpt>
      <trkpt lat="48.01124" lon="7.1055">
        <ele>689.2</ele>
        <time>2018-06-14T14:45:24Z</time>
      </trkpt>
      <trkpt lat="48.01096" lon="7.10554">
        <ele>691.1</ele>
        <time>2018-06-14T14:45:33Z</time>
      </trkpt>
      <trkpt lat="48.01097" lon="7.10557">
        <ele>693.5</ele>
        <time>2018-06-14T14:45:34Z</time>
      </trkpt>
      <trkpt lat="48.01088" lon="7.10556">
        <ele>695</ele>
        <time>2018-06-14T14:45:36Z</time>
      </trkpt>
      <trkpt lat="48.01063" lon="7.10537">
        <ele>696.7</ele>
        <time>2018-06-14T14:45:45Z</time>
      </trkpt>
      <trkpt lat="48.01038" lon="7.10518">
        <ele>698.5</ele>
        <time>2018-06-14T14:45:54Z</time>
      </trkpt>
      <trkpt lat="48.01016" lon="7.10503">
        <ele>700.2</ele>
        <time>2018-06-14T14:46:01Z</time>
      </trkpt>
      <trkpt lat="48.0099" lon="7.10483">
        <ele>701.9</ele>
        <time>2018-06-14T14:46:10Z</time>
      </trkpt>
      <trkpt lat="48.00969" lon="7.10468">
        <ele>704.6</ele>
        <time>2018-06-14T14:46:18Z</time>
      </trkpt>
      <trkpt lat="48.00946" lon="7.10454">
        <ele>706.3</ele>
        <time>2018-06-14T14:46:25Z</time>
      </trkpt>
      <trkpt lat="48.00917" lon="7.10423">
        <ele>708.9</ele>
        <time>2018-06-14T14:46:36Z</time>
      </trkpt>
      <trkpt lat="48.00892" lon="7.1039">
        <ele>710.8</ele>
        <time>2018-06-14T14:46:47Z</time>
      </trkpt>
      <trkpt lat="48.00862" lon="7.10351">
        <ele>713.6</ele>
        <time>2018-06-14T14:46:59Z</time>
      </trkpt>
      <trkpt lat="48.0084" lon="7.10322">
        <ele>715.2</ele>
        <time>2018-06-14T14:47:08Z</time>
      </trkpt>
      <trkpt lat="48.00812" lon="7.10282">
        <ele>716.1</ele>
        <time>2018-06-14T14:47:20Z</time>
      </trkpt>
      <trkpt lat="48.0079" lon="7.10248">
        <ele>718</ele>
        <time>2018-06-14T14:47:30Z</time>
      </trkpt>
      <trkpt lat="48.0077" lon="7.10228">
        <ele>718.9</ele>
        <time>2018-06-14T14:47:38Z</time>
      </trkpt>
      <trkpt lat="48.00774" lon="7.10247">
        <ele>720.6</ele>
        <time>2018-06-14T14:47:42Z</time>
      </trkpt>
      <trkpt lat="48.00784" lon="7.10261">
        <ele>721.6</ele>
        <time>2018-06-14T14:47:46Z</time>
      </trkpt>
      <trkpt lat="48.008" lon="7.103">
        <ele>725.4</ele>
        <time>2018-06-14T14:47:55Z</time>
      </trkpt>
      <trkpt lat="48.00806" lon="7.10333">
        <ele>727.2</ele>
        <time>2018-06-14T14:48:02Z</time>
      </trkpt>
      <trkpt lat="48.00818" lon="7.10371">
        <ele>731.1</ele>
        <time>2018-06-14T14:48:11Z</time>
      </trkpt>
      <trkpt lat="48.00834" lon="7.10414">
        <ele>733.5</ele>
        <time>2018-06-14T14:48:22Z</time>
      </trkpt>
      <trkpt lat="48.00842" lon="7.10442">
        <ele>736.2</ele>
        <time>2018-06-14T14:48:28Z</time>
      </trkpt>
      <trkpt lat="48.00861" lon="7.10482">
        <ele>738.6</ele>
        <time>2018-06-14T14:48:38Z</time>
      </trkpt>
      <trkpt lat="48.00876" lon="7.10511">
        <ele>742</ele>
        <time>2018-06-14T14:48:46Z</time>
      </trkpt>
      <trkpt lat="48.00889" lon="7.10535">
        <ele>743.1</ele>
        <time>2018-06-14T14:48:52Z</time>
      </trkpt>
      <trkpt lat="48.00906" lon="7.10569">
        <ele>746.1</ele>
        <time>2018-06-14T14:49:01Z</time>
      </trkpt>
      <trkpt lat="48.00914" lon="7.10595">
        <ele>747.9</ele>
        <time>2018-06-14T14:49:07Z</time>
      </trkpt>
      <trkpt lat="48.0092" lon="7.10622">
        <ele>751</ele>
        <time>2018-06-14T14:49:13Z</time>
      </trkpt>
      <trkpt lat="48.00926" lon="7.10657">
        <ele>753.2</ele>
        <time>2018-06-14T14:49:20Z</time>
      </trkpt>
      <trkpt lat="48.00925" lon="7.10685">
        <ele>756.3</ele>
        <time>2018-06-14T14:49:26Z</time>
      </trkpt>
      <trkpt lat="48.00925" lon="7.10711">
        <ele>757.8</ele>
        <time>2018-06-14T14:49:32Z</time>
      </trkpt>
      <trkpt lat="48.00921" lon="7.10746">
        <ele>760.5</ele>
        <time>2018-06-14T14:49:39Z</time>
      </trkpt>
      <trkpt lat="48.00918" lon="7.10766">
        <ele>762.2</ele>
        <time>2018-06-14T14:49:43Z</time>
      </trkpt>
      <trkpt lat="48.00912" lon="7.10797">
        <ele>763.7</ele>
        <time>2018-06-14T14:49:50Z</time>
      </trkpt>
      <trkpt lat="48.00909" lon="7.10817">
        <ele>766.1</ele>
        <time>2018-06-14T14:49:54Z</time>
      </trkpt>
      <trkpt lat="48.00896" lon="7.10853">
        <ele>769.8</ele>
        <time>2018-06-14T14:50:03Z</time>
      </trkpt>
      <trkpt lat="48.00887" lon="7.10881">
        <ele>771.6</ele>
        <time>2018-06-14T14:50:09Z</time>
      </trkpt>
      <trkpt lat="48.00874" lon="7.10908">
        <ele>774.3</ele>
        <time>2018-06-14T14:50:16Z</time>
      </trkpt>
      <trkpt lat="48.00868" lon="7.10927">
        <ele>774.9</ele>
        <time>2018-06-14T14:50:20Z</time>
      </trkpt>
      <trkpt lat="48.00862" lon="7.10944">
        <ele>776.9</ele>
        <time>2018-06-14T14:50:25Z</time>
      </trkpt>
      <trkpt lat="48.00849" lon="7.10976">
        <ele>779.5</ele>
        <time>2018-06-14T14:50:32Z</time>
      </trkpt>
      <trkpt lat="48.00841" lon="7.11009">
        <ele>781.2</ele>
        <time>2018-06-14T14:50:39Z</time>
      </trkpt>
      <trkpt lat="48.00836" lon="7.11028">
        <ele>782.9</ele>
        <time>2018-06-14T14:50:44Z</time>
      </trkpt>
      <trkpt lat="48.0083" lon="7.1106">
        <ele>785.5</ele>
        <time>2018-06-14T14:50:51Z</time>
      </trkpt>
      <trkpt lat="48.00822" lon="7.11085">
        <ele>786.9</ele>
        <time>2018-06-14T14:50:56Z</time>
      </trkpt>
      <trkpt lat="48.00815" lon="7.11102">
        <ele>788.9</ele>
        <time>2018-06-14T14:51:01Z</time>
      </trkpt>
      <trkpt lat="48.00802" lon="7.11131">
        <ele>791.3</ele>
        <time>2018-06-14T14:51:08Z</time>
      </trkpt>
      <trkpt lat="48.00786" lon="7.11147">
        <ele>792.3</ele>
        <time>2018-06-14T14:51:14Z</time>
      </trkpt>
      <trkpt lat="48.00763" lon="7.11174">
        <ele>795.3</ele>
        <time>2018-06-14T14:51:23Z</time>
      </trkpt>
      <trkpt lat="48.00749" lon="7.11179">
        <ele>796.7</ele>
        <time>2018-06-14T14:51:27Z</time>
      </trkpt>
      <trkpt lat="48.00719" lon="7.11184">
        <ele>800.2</ele>
        <time>2018-06-14T14:51:37Z</time>
      </trkpt>
      <trkpt lat="48.00696" lon="7.11178">
        <ele>801.4</ele>
        <time>2018-06-14T14:51:44Z</time>
      </trkpt>
      <trkpt lat="48.0066" lon="7.11156">
        <ele>804.3</ele>
        <time>2018-06-14T14:51:56Z</time>
      </trkpt>
      <trkpt lat="48.00634" lon="7.11132">
        <ele>806.1</ele>
        <time>2018-06-14T14:52:05Z</time>
      </trkpt>
      <trkpt lat="48.00622" lon="7.11122">
        <ele>807.3</ele>
        <time>2018-06-14T14:52:10Z</time>
      </trkpt>
      <trkpt lat="48.00608" lon="7.11114">
        <ele>808.5</ele>
        <time>2018-06-14T14:52:14Z</time>
      </trkpt>
      <trkpt lat="48.00573" lon="7.11082">
        <ele>809.4</ele>
        <time>2018-06-14T14:52:27Z</time>
      </trkpt>
      <trkpt lat="48.00531" lon="7.11039">
        <ele>811.1</ele>
        <time>2018-06-14T14:52:43Z</time>
      </trkpt>
      <trkpt lat="48.00484" lon="7.11025">
        <ele>813</ele>
        <time>2018-06-14T14:52:58Z</time>
      </trkpt>
      <trkpt lat="48.00439" lon="7.11064">
        <ele>814.1</ele>
        <time>2018-06-14T14:53:14Z</time>
      </trkpt>
      <trkpt lat="48.00403" lon="7.11105">
        <ele>816.6</ele>
        <time>2018-06-14T14:53:28Z</time>
      </trkpt>
      <trkpt lat="48.00358" lon="7.11159">
        <ele>819.5</ele>
        <time>2018-06-14T14:53:46Z</time>
      </trkpt>
      <trkpt lat="48.00333" lon="7.11202">
        <ele>821.8</ele>
        <time>2018-06-14T14:53:58Z</time>
      </trkpt>
      <trkpt lat="48.0031" lon="7.11227">
        <ele>825</ele>
        <time>2018-06-14T14:54:07Z</time>
      </trkpt>
      <trkpt lat="48.00283" lon="7.11252">
        <ele>829</ele>
        <time>2018-06-14T14:54:16Z</time>
      </trkpt>
      <trkpt lat="48.00263" lon="7.11271">
        <ele>832</ele>
        <time>2018-06-14T14:54:24Z</time>
      </trkpt>
      <trkpt lat="48.00243" lon="7.11295">
        <ele>834</ele>
        <time>2018-06-14T14:54:32Z</time>
      </trkpt>
      <trkpt lat="48.00231" lon="7.11316">
        <ele>836.6</ele>
        <time>2018-06-14T14:54:38Z</time>
      </trkpt>
      <trkpt lat="48.00217" lon="7.11346">
        <ele>839.9</ele>
        <time>2018-06-14T14:54:45Z</time>
      </trkpt>
      <trkpt lat="48.00194" lon="7.11384">
        <ele>842.6</ele>
        <time>2018-06-14T14:54:56Z</time>
      </trkpt>
      <trkpt lat="48.00178" lon="7.11404">
        <ele>845.7</ele>
        <time>2018-06-14T14:55:02Z</time>
      </trkpt>
      <trkpt lat="48.00164" lon="7.11429">
        <ele>847.3</ele>
        <time>2018-06-14T14:55:09Z</time>
      </trkpt>
      <trkpt lat="48.00155" lon="7.11446">
        <ele>848.1</ele>
        <time>2018-06-14T14:55:14Z</time>
      </trkpt>
      <trkpt lat="48.00149" lon="7.11468">
        <ele>850.2</ele>
        <time>2018-06-14T14:55:19Z</time>
      </trkpt>
      <trkpt lat="48.0014" lon="7.11457">
        <ele>852</ele>
        <time>2018-06-14T14:55:22Z</time>
      </trkpt>
      <trkpt lat="48.00141" lon="7.11412">
        <ele>854</ele>
        <time>2018-06-14T14:55:31Z</time>
      </trkpt>
      <trkpt lat="48.00139" lon="7.11373">
        <ele>856.9</ele>
        <time>2018-06-14T14:55:40Z</time>
      </trkpt>
      <trkpt lat="48.00141" lon="7.11336">
        <ele>858.4</ele>
        <time>2018-06-14T14:55:47Z</time>
      </trkpt>
      <trkpt lat="48.0015" lon="7.11283">
        <ele>859.4</ele>
        <time>2018-06-14T14:55:59Z</time>
      </trkpt>
      <trkpt lat="48.00169" lon="7.11229">
        <ele>859.4</ele>
        <time>2018-06-14T14:56:11Z</time>
      </trkpt>
      <trkpt lat="48.0018" lon="7.11204">
        <ele>857.1</ele>
        <time>2018-06-14T14:56:18Z</time>
      </trkpt>
      <trkpt lat="48.00196" lon="7.1117">
        <ele>856.3</ele>
        <time>2018-06-14T14:56:26Z</time>
      </trkpt>
      <trkpt lat="48.00233" lon="7.11102">
        <ele>854.4</ele>
        <time>2018-06-14T14:56:44Z</time>
      </trkpt>
      <trkpt lat="48.00241" lon="7.11071">
        <ele>857.7</ele>
        <time>2018-06-14T14:56:51Z</time>
      </trkpt>
      <trkpt lat="48.00255" lon="7.11022">
        <ele>862.4</ele>
        <time>2018-06-14T14:57:03Z</time>
      </trkpt>
      <trkpt lat="48.00271" lon="7.10995">
        <ele>860.6</ele>
        <time>2018-06-14T14:57:10Z</time>
      </trkpt>
      <trkpt lat="48.00284" lon="7.10978">
        <ele>857.4</ele>
        <time>2018-06-14T14:57:15Z</time>
      </trkpt>
      <trkpt lat="48.00292" lon="7.10959">
        <ele>860.5</ele>
        <time>2018-06-14T14:57:20Z</time>
      </trkpt>
      <trkpt lat="48.00298" lon="7.1094">
        <ele>864.4</ele>
        <time>2018-06-14T14:57:24Z</time>
      </trkpt>
      <trkpt lat="48.00306" lon="7.10923">
        <ele>865.4</ele>
        <time>2018-06-14T14:57:29Z</time>
      </trkpt>
      <trkpt lat="48.00334" lon="7.10878">
        <ele>868.9</ele>
        <time>2018-06-14T14:57:41Z</time>
      </trkpt>
      <trkpt lat="48.00354" lon="7.10838">
        <ele>874.5</ele>
        <time>2018-06-14T14:57:52Z</time>
      </trkpt>
      <trkpt lat="48.00362" lon="7.10811">
        <ele>877.3</ele>
        <time>2018-06-14T14:57:58Z</time>
      </trkpt>
      <trkpt lat="48.00367" lon="7.10777">
        <ele>879.2</ele>
        <time>2018-06-14T14:58:05Z</time>
      </trkpt>
      <trkpt lat="48.0036" lon="7.10734">
        <ele>881.6</ele>
        <time>2018-06-14T14:58:15Z</time>
      </trkpt>
      <trkpt lat="48.00349" lon="7.10721">
        <ele>881.6</ele>
        <time>2018-06-14T14:58:19Z</time>
      </trkpt>
      <trkpt lat="48.00323" lon="7.10696">
        <ele>884.6</ele>
        <time>2018-06-14T14:58:29Z</time>
      </trkpt>
      <trkpt lat="48.00302" lon="7.10687">
        <ele>887.4</ele>
        <time>2018-06-14T14:58:35Z</time>
      </trkpt>
      <trkpt lat="48.00265" lon="7.10671">
        <ele>891.3</ele>
        <time>2018-06-14T14:58:47Z</time>
      </trkpt>
      <trkpt lat="48.00249" lon="7.10666">
        <ele>893.5</ele>
        <time>2018-06-14T14:58:52Z</time>
      </trkpt>
      <trkpt lat="48.00223" lon="7.10655">
        <ele>898.3</ele>
        <time>2018-06-14T14:59:01Z</time>
      </trkpt>
      <trkpt lat="48.00198" lon="7.10638">
        <ele>902.4</ele>
        <time>2018-06-14T14:59:09Z</time>
      </trkpt>
      <trkpt lat="48.00185" lon="7.10629">
        <ele>905.5</ele>
        <time>2018-06-14T14:59:14Z</time>
      </trkpt>
      <trkpt lat="48.00163" lon="7.10619">
        <ele>908.3</ele>
        <time>2018-06-14T14:59:21Z</time>
      </trkpt>
      <trkpt lat="48.00141" lon="7.10616">
        <ele>911.3</ele>
        <time>2018-06-14T14:59:28Z</time>
      </trkpt>
      <trkpt lat="48.00122" lon="7.10615">
        <ele>913.4</ele>
        <time>2018-06-14T14:59:33Z</time>
      </trkpt>
      <trkpt lat="48.00093" lon="7.10609">
        <ele>917</ele>
        <time>2018-06-14T14:59:43Z</time>
      </trkpt>
      <trkpt lat="48.0007" lon="7.10604">
        <ele>918.8</ele>
        <time>2018-06-14T14:59:50Z</time>
      </trkpt>
      <trkpt lat="48.00043" lon="7.10622">
        <ele>922.1</ele>
        <time>2018-06-14T14:59:59Z</time>
      </trkpt>
      <trkpt lat="48.00013" lon="7.10631">
        <ele>925</ele>
        <time>2018-06-14T15:00:08Z</time>
      </trkpt>
      <trkpt lat="47.99996" lon="7.10646">
        <ele>928.2</ele>
        <time>2018-06-14T15:00:15Z</time>
      </trkpt>
      <trkpt lat="47.99973" lon="7.10655">
        <ele>929.7</ele>
        <time>2018-06-14T15:00:22Z</time>
      </trkpt>
      <trkpt lat="47.99939" lon="7.10672">
        <ele>933.2</ele>
        <time>2018-06-14T15:00:33Z</time>
      </trkpt>
      <trkpt lat="47.99909" lon="7.10691">
        <ele>936.3</ele>
        <time>2018-06-14T15:00:43Z</time>
      </trkpt>
      <trkpt lat="47.99877" lon="7.1071">
        <ele>939</ele>
        <time>2018-06-14T15:00:54Z</time>
      </trkpt>
      <trkpt lat="47.99856" lon="7.10716">
        <ele>941.7</ele>
        <time>2018-06-14T15:01:00Z</time>
      </trkpt>
      <trkpt lat="47.9983" lon="7.10714">
        <ele>944.3</ele>
        <time>2018-06-14T15:01:09Z</time>
      </trkpt>
      <trkpt lat="47.99802" lon="7.10713">
        <ele>946.1</ele>
        <time>2018-06-14T15:01:17Z</time>
      </trkpt>
      <trkpt lat="47.99769" lon="7.10695">
        <ele>950.1</ele>
        <time>2018-06-14T15:01:28Z</time>
      </trkpt>
      <trkpt lat="47.99747" lon="7.10675">
        <ele>952.9</ele>
        <time>2018-06-14T15:01:36Z</time>
      </trkpt>
      <trkpt lat="47.9973" lon="7.10657">
        <ele>956.2</ele>
        <time>2018-06-14T15:01:43Z</time>
      </trkpt>
      <trkpt lat="47.99716" lon="7.10634">
        <ele>958.8</ele>
        <time>2018-06-14T15:01:49Z</time>
      </trkpt>
      <trkpt lat="47.99711" lon="7.10614">
        <ele>961.1</ele>
        <time>2018-06-14T15:01:54Z</time>
      </trkpt>
      <trkpt lat="47.99701" lon="7.10573">
        <ele>963.7</ele>
        <time>2018-06-14T15:02:03Z</time>
      </trkpt>
      <trkpt lat="47.99691" lon="7.10531">
        <ele>967.1</ele>
        <time>2018-06-14T15:02:12Z</time>
      </trkpt>
      <trkpt lat="47.99685" lon="7.10475">
        <ele>970.3</ele>
        <time>2018-06-14T15:02:24Z</time>
      </trkpt>
      <trkpt lat="47.99678" lon="7.10428">
        <ele>973</ele>
        <time>2018-06-14T15:02:34Z</time>
      </trkpt>
      <trkpt lat="47.99676" lon="7.10384">
        <ele>973.9</ele>
        <time>2018-06-14T15:02:43Z</time>
      </trkpt>
      <trkpt lat="47.99673" lon="7.10364">
        <ele>976.3</ele>
        <time>2018-06-14T15:02:47Z</time>
      </trkpt>
      <trkpt lat="47.99678" lon="7.10295">
        <ele>979.7</ele>
        <time>2018-06-14T15:03:02Z</time>
      </trkpt>
      <trkpt lat="47.9968" lon="7.10243">
        <ele>982</ele>
        <time>2018-06-14T15:03:13Z</time>
      </trkpt>
      <trkpt lat="47.99693" lon="7.10186">
        <ele>984.5</ele>
        <time>2018-06-14T15:03:25Z</time>
      </trkpt>
      <trkpt lat="47.99695" lon="7.10131">
        <ele>987.1</ele>
        <time>2018-06-14T15:03:36Z</time>
      </trkpt>
      <trkpt lat="47.99692" lon="7.10083">
        <ele>987.9</ele>
        <time>2018-06-14T15:03:46Z</time>
      </trkpt>
      <trkpt lat="47.99691" lon="7.10032">
        <ele>988.9</ele>
        <time>2018-06-14T15:03:57Z</time>
      </trkpt>
      <trkpt lat="47.99677" lon="7.09983">
        <ele>990.7</ele>
        <time>2018-06-14T15:04:08Z</time>
      </trkpt>
      <trkpt lat="47.99656" lon="7.09968">
        <ele>991.5</ele>
        <time>2018-06-14T15:04:15Z</time>
      </trkpt>
      <trkpt lat="47.99609" lon="7.09956">
        <ele>992.4</ele>
        <time>2018-06-14T15:04:30Z</time>
      </trkpt>
      <trkpt lat="47.99571" lon="7.09959">
        <ele>994.6</ele>
        <time>2018-06-14T15:04:42Z</time>
      </trkpt>
      <trkpt lat="47.99528" lon="7.09978">
        <ele>996.1</ele>
        <time>2018-06-14T15:04:56Z</time>
      </trkpt>
      <trkpt lat="47.99476" lon="7.10014">
        <ele>996.2</ele>
        <time>2018-06-14T15:05:14Z</time>
      </trkpt>
      <trkpt lat="47.9943" lon="7.10028">
        <ele>998.1</ele>
        <time>2018-06-14T15:05:28Z</time>
      </trkpt>
      <trkpt lat="47.99398" lon="7.1005">
        <ele>1000.8</ele>
        <time>2018-06-14T15:05:39Z</time>
      </trkpt>
      <trkpt lat="47.99361" lon="7.10074">
        <ele>1003.8</ele>
        <time>2018-06-14T15:05:52Z</time>
      </trkpt>
      <trkpt lat="47.99331" lon="7.10074">
        <ele>1005.6</ele>
        <time>2018-06-14T15:06:01Z</time>
      </trkpt>
      <trkpt lat="47.99297" lon="7.10075">
        <ele>1007.3</ele>
        <time>2018-06-14T15:06:12Z</time>
      </trkpt>
      <trkpt lat="47.99262" lon="7.1008">
        <ele>1009.1</ele>
        <time>2018-06-14T15:06:23Z</time>
      </trkpt>
      <trkpt lat="47.99226" lon="7.10094">
        <ele>1010.1</ele>
        <time>2018-06-14T15:06:34Z</time>
      </trkpt>
      <trkpt lat="47.99193" lon="7.1012">
        <ele>1012.2</ele>
        <time>2018-06-14T15:06:46Z</time>
      </trkpt>
      <trkpt lat="47.99169" lon="7.1016">
        <ele>1013</ele>
        <time>2018-06-14T15:06:57Z</time>
      </trkpt>
      <trkpt lat="47.99151" lon="7.10199">
        <ele>1013.9</ele>
        <time>2018-06-14T15:07:07Z</time>
      </trkpt>
      <trkpt lat="47.99125" lon="7.10241">
        <ele>1015</ele>
        <time>2018-06-14T15:07:19Z</time>
      </trkpt>
      <trkpt lat="47.99114" lon="7.10279">
        <ele>1017.1</ele>
        <time>2018-06-14T15:07:27Z</time>
      </trkpt>
      <trkpt lat="47.99097" lon="7.10329">
        <ele>1018.7</ele>
        <time>2018-06-14T15:07:39Z</time>
      </trkpt>
      <trkpt lat="47.99078" lon="7.1038">
        <ele>1020.3</ele>
        <time>2018-06-14T15:07:51Z</time>
      </trkpt>
      <trkpt lat="47.99063" lon="7.10429">
        <ele>1022.3</ele>
        <time>2018-06-14T15:08:02Z</time>
      </trkpt>
      <trkpt lat="47.99057" lon="7.10452">
        <ele>1023.5</ele>
        <time>2018-06-14T15:08:07Z</time>
      </trkpt>
      <trkpt lat="47.99048" lon="7.10513">
        <ele>1025.9</ele>
        <time>2018-06-14T15:08:20Z</time>
      </trkpt>
      <trkpt lat="47.99038" lon="7.10573">
        <ele>1028.3</ele>
        <time>2018-06-14T15:08:33Z</time>
      </trkpt>
      <trkpt lat="47.9903" lon="7.1064">
        <ele>1029.8</ele>
        <time>2018-06-14T15:08:47Z</time>
      </trkpt>
      <trkpt lat="47.9901" lon="7.10682">
        <ele>1031.1</ele>
        <time>2018-06-14T15:08:58Z</time>
      </trkpt>
      <trkpt lat="47.98981" lon="7.10731">
        <ele>1033.9</ele>
        <time>2018-06-14T15:09:12Z</time>
      </trkpt>
      <trkpt lat="47.98952" lon="7.1079">
        <ele>1035.6</ele>
        <time>2018-06-14T15:09:27Z</time>
      </trkpt>
      <trkpt lat="47.98925" lon="7.10843">
        <ele>1037.4</ele>
        <time>2018-06-14T15:09:41Z</time>
      </trkpt>
      <trkpt lat="47.98898" lon="7.10895">
        <ele>1040.3</ele>
        <time>2018-06-14T15:09:54Z</time>
      </trkpt>
      <trkpt lat="47.98887" lon="7.10912">
        <ele>1041.4</ele>
        <time>2018-06-14T15:09:59Z</time>
      </trkpt>
      <trkpt lat="47.98847" lon="7.10959">
        <ele>1043.2</ele>
        <time>2018-06-14T15:10:15Z</time>
      </trkpt>
      <trkpt lat="47.9882" lon="7.11005">
        <ele>1045.1</ele>
        <time>2018-06-14T15:10:28Z</time>
      </trkpt>
      <trkpt lat="47.98798" lon="7.1106">
        <ele>1047</ele>
        <time>2018-06-14T15:10:41Z</time>
      </trkpt>
      <trkpt lat="47.98795" lon="7.11108">
        <ele>1050</ele>
        <time>2018-06-14T15:10:51Z</time>
      </trkpt>
      <trkpt lat="47.98799" lon="7.11155">
        <ele>1051.6</ele>
        <time>2018-06-14T15:11:01Z</time>
      </trkpt>
      <trkpt lat="47.98811" lon="7.1119">
        <ele>1055.2</ele>
        <time>2018-06-14T15:11:09Z</time>
      </trkpt>
      <trkpt lat="47.98821" lon="7.11226">
        <ele>1057.9</ele>
        <time>2018-06-14T15:11:17Z</time>
      </trkpt>
      <trkpt lat="47.98826" lon="7.11247">
        <ele>1058.7</ele>
        <time>2018-06-14T15:11:22Z</time>
      </trkpt>
      <trkpt lat="47.98827" lon="7.11293">
        <ele>1062.6</ele>
        <time>2018-06-14T15:11:32Z</time>
      </trkpt>
      <trkpt lat="47.98827" lon="7.11323">
        <ele>1065.7</ele>
        <time>2018-06-14T15:11:38Z</time>
      </trkpt>
      <trkpt lat="47.98823" lon="7.11361">
        <ele>1067.7</ele>
        <time>2018-06-14T15:11:46Z</time>
      </trkpt>
      <trkpt lat="47.98807" lon="7.11399">
        <ele>1071.1</ele>
        <time>2018-06-14T15:11:55Z</time>
      </trkpt>
      <trkpt lat="47.98791" lon="7.11431">
        <ele>1073</ele>
        <time>2018-06-14T15:12:03Z</time>
      </trkpt>
      <trkpt lat="47.98776" lon="7.11466">
        <ele>1076</ele>
        <time>2018-06-14T15:12:12Z</time>
      </trkpt>
      <trkpt lat="47.9875" lon="7.11486">
        <ele>1078.6</ele>
        <time>2018-06-14T15:12:21Z</time>
      </trkpt>
      <trkpt lat="47.98731" lon="7.1149">
        <ele>1079.5</ele>
        <time>2018-06-14T15:12:27Z</time>
      </trkpt>
      <trkpt lat="47.98708" lon="7.11487">
        <ele>1082.3</ele>
        <time>2018-06-14T15:12:34Z</time>
      </trkpt>
      <trkpt lat="47.98677" lon="7.11482">
        <ele>1085.3</ele>
        <time>2018-06-14T15:12:44Z</time>
      </trkpt>
      <trkpt lat="47.98656" lon="7.11486">
        <ele>1088.4</ele>
        <time>2018-06-14T15:12:50Z</time>
      </trkpt>
      <trkpt lat="47.98628" lon="7.11515">
        <ele>1090.6</ele>
        <time>2018-06-14T15:13:01Z</time>
      </trkpt>
      <trkpt lat="47.98605" lon="7.11545">
        <ele>1092.6</ele>
        <time>2018-06-14T15:13:10Z</time>
      </trkpt>
      <trkpt lat="47.98586" lon="7.11572">
        <ele>1095.2</ele>
        <time>2018-06-14T15:13:19Z</time>
      </trkpt>
      <trkpt lat="47.98559" lon="7.11615">
        <ele>1097</ele>
        <time>2018-06-14T15:13:31Z</time>
      </trkpt>
      <trkpt lat="47.98535" lon="7.11654">
        <ele>1100.5</ele>
        <time>2018-06-14T15:13:42Z</time>
      </trkpt>
      <trkpt lat="47.98516" lon="7.11687">
        <ele>1102.9</ele>
        <time>2018-06-14T15:13:51Z</time>
      </trkpt>
      <trkpt lat="47.98488" lon="7.1174">
        <ele>1105.2</ele>
        <time>2018-06-14T15:14:05Z</time>
      </trkpt>
      <trkpt lat="47.98468" lon="7.11781">
        <ele>1109</ele>
        <time>2018-06-14T15:14:16Z</time>
      </trkpt>
      <trkpt lat="47.98456" lon="7.11804">
        <ele>1111.2</ele>
        <time>2018-06-14T15:14:22Z</time>
      </trkpt>
      <trkpt lat="47.98436" lon="7.11844">
        <ele>1113.1</ele>
        <time>2018-06-14T15:14:32Z</time>
      </trkpt>
      <trkpt lat="47.98415" lon="7.11878">
        <ele>1116</ele>
        <time>2018-06-14T15:14:42Z</time>
      </trkpt>
      <trkpt lat="47.98387" lon="7.11908">
        <ele>1117.5</ele>
        <time>2018-06-14T15:14:52Z</time>
      </trkpt>
      <trkpt lat="47.98353" lon="7.11928">
        <ele>1118.5</ele>
        <time>2018-06-14T15:15:04Z</time>
      </trkpt>
      <trkpt lat="47.98322" lon="7.11938">
        <ele>1121.5</ele>
        <time>2018-06-14T15:15:14Z</time>
      </trkpt>
      <trkpt lat="47.98309" lon="7.11945">
        <ele>1121.5</ele>
        <time>2018-06-14T15:15:18Z</time>
      </trkpt>
      <trkpt lat="47.98295" lon="7.1195">
        <ele>1123.6</ele>
        <time>2018-06-14T15:15:22Z</time>
      </trkpt>
      <trkpt lat="47.98274" lon="7.11927">
        <ele>1123.6</ele>
        <time>2018-06-14T15:15:30Z</time>
      </trkpt>
      <trkpt lat="47.98294" lon="7.11888">
        <ele>1124.3</ele>
        <time>2018-06-14T15:15:41Z</time>
      </trkpt>
      <trkpt lat="47.98292" lon="7.11917">
        <ele>1127.5</ele>
        <time>2018-06-14T15:15:47Z</time>
      </trkpt>
      <trkpt lat="47.98273" lon="7.11928">
        <ele>1143.5</ele>
        <time>2018-06-14T15:15:53Z</time>
      </trkpt>
      <trkpt lat="47.98241" lon="7.11926">
        <ele>1141.3</ele>
        <time>2018-06-14T15:16:03Z</time>
      </trkpt>
      <trkpt lat="47.9821" lon="7.11942">
        <ele>1141.2</ele>
        <time>2018-06-14T15:16:13Z</time>
      </trkpt>
      <trkpt lat="47.98193" lon="7.11952">
        <ele>1143.6</ele>
        <time>2018-06-14T15:16:19Z</time>
      </trkpt>
      <trkpt lat="47.98178" lon="7.11964">
        <ele>1146.1</ele>
        <time>2018-06-14T15:16:24Z</time>
      </trkpt>
      <trkpt lat="47.98159" lon="7.11978">
        <ele>1149.1</ele>
        <time>2018-06-14T15:16:31Z</time>
      </trkpt>
      <trkpt lat="47.98146" lon="7.11984">
        <ele>1150.2</ele>
        <time>2018-06-14T15:16:35Z</time>
      </trkpt>
      <trkpt lat="47.98182" lon="7.12">
        <ele>1152.9</ele>
        <time>2018-06-14T15:16:47Z</time>
      </trkpt>
      <trkpt lat="47.98221" lon="7.12009">
        <ele>1156.2</ele>
        <time>2018-06-14T15:16:59Z</time>
      </trkpt>
      <trkpt lat="47.98259" lon="7.12028">
        <ele>1158.8</ele>
        <time>2018-06-14T15:17:11Z</time>
      </trkpt>
      <trkpt lat="47.98305" lon="7.12047">
        <ele>1161.5</ele>
        <time>2018-06-14T15:17:26Z</time>
      </trkpt>
      <trkpt lat="47.9834" lon="7.12052">
        <ele>1164.6</ele>
        <time>2018-06-14T15:17:37Z</time>
      </trkpt>
      <trkpt lat="47.98365" lon="7.12046">
        <ele>1166.2</ele>
        <time>2018-06-14T15:17:45Z</time>
      </trkpt>
      <trkpt lat="47.98406" lon="7.12034">
        <ele>1167.1</ele>
        <time>2018-06-14T15:17:58Z</time>
      </trkpt>
      <trkpt lat="47.98445" lon="7.12031">
        <ele>1170.5</ele>
        <time>2018-06-14T15:18:10Z</time>
      </trkpt>
      <trkpt lat="47.98484" lon="7.12043">
        <ele>1172.2</ele>
        <time>2018-06-14T15:18:23Z</time>
      </trkpt>
      <trkpt lat="47.98497" lon="7.12053">
        <ele>1172.9</ele>
        <time>2018-06-14T15:18:27Z</time>
      </trkpt>
      <trkpt lat="47.98502" lon="7.12073">
        <ele>1172.8</ele>
        <time>2018-06-14T15:18:32Z</time>
      </trkpt>
      <trkpt lat="47.98492" lon="7.12087">
        <ele>1172.7</ele>
        <time>2018-06-14T15:18:36Z</time>
      </trkpt>
      <trkpt lat="47.98468" lon="7.12113">
        <ele>1176.5</ele>
        <time>2018-06-14T15:18:45Z</time>
      </trkpt>
      <trkpt lat="47.98453" lon="7.12116">
        <ele>1179.6</ele>
        <time>2018-06-14T15:18:50Z</time>
      </trkpt>
      <trkpt lat="47.98427" lon="7.12127">
        <ele>1183.1</ele>
        <time>2018-06-14T15:18:58Z</time>
      </trkpt>
      <trkpt lat="47.984" lon="7.12147">
        <ele>1185</ele>
        <time>2018-06-14T15:19:08Z</time>
      </trkpt>
      <trkpt lat="47.98374" lon="7.12158">
        <ele>1188.1</ele>
        <time>2018-06-14T15:19:16Z</time>
      </trkpt>
      <trkpt lat="47.98358" lon="7.12163">
        <ele>1190.2</ele>
        <time>2018-06-14T15:19:21Z</time>
      </trkpt>
      <trkpt lat="47.98333" lon="7.12169">
        <ele>1191.6</ele>
        <time>2018-06-14T15:19:29Z</time>
      </trkpt>
      <trkpt lat="47.98302" lon="7.12181">
        <ele>1195.5</ele>
        <time>2018-06-14T15:19:39Z</time>
      </trkpt>
      <trkpt lat="47.98286" lon="7.12186">
        <ele>1197.9</ele>
        <time>2018-06-14T15:19:44Z</time>
      </trkpt>
      <trkpt lat="47.98268" lon="7.12193">
        <ele>1198.8</ele>
        <time>2018-06-14T15:19:50Z</time>
      </trkpt>
      <trkpt lat="47.98253" lon="7.12191">
        <ele>1200.6</ele>
        <time>2018-06-14T15:19:54Z</time>
      </trkpt>
      <trkpt lat="47.98222" lon="7.12198">
        <ele>1200.3</ele>
        <time>2018-06-14T15:20:04Z</time>
      </trkpt>
      <trkpt lat="47.98189" lon="7.12204">
        <ele>1201.5</ele>
        <time>2018-06-14T15:20:14Z</time>
      </trkpt>
      <trkpt lat="47.98155" lon="7.12218">
        <ele>1204.4</ele>
        <time>2018-06-14T15:20:25Z</time>
      </trkpt>
      <trkpt lat="47.98117" lon="7.1223">
        <ele>1205.1</ele>
        <time>2018-06-14T15:20:37Z</time>
      </trkpt>
      <trkpt lat="47.9809" lon="7.12233">
        <ele>1206.7</ele>
        <time>2018-06-14T15:20:46Z</time>
      </trkpt>
      <trkpt lat="47.98046" lon="7.12225">
        <ele>1207.4</ele>
        <time>2018-06-14T15:21:00Z</time>
      </trkpt>
      <trkpt lat="47.98013" lon="7.12212">
        <ele>1208.6</ele>
        <time>2018-06-14T15:21:10Z</time>
      </trkpt>
      <trkpt lat="47.98004" lon="7.12246">
        <ele>1213.7</ele>
        <time>2018-06-14T15:21:18Z</time>
      </trkpt>
      <trkpt lat="47.97993" lon="7.12263">
        <ele>1216.2</ele>
        <time>2018-06-14T15:21:23Z</time>
      </trkpt>
      <trkpt lat="47.97979" lon="7.12276">
        <ele>1219.3</ele>
        <time>2018-06-14T15:21:28Z</time>
      </trkpt>
      <trkpt lat="47.97951" lon="7.12303">
        <ele>1221.6</ele>
        <time>2018-06-14T15:21:38Z</time>
      </trkpt>
      <trkpt lat="47.9793" lon="7.12327">
        <ele>1223.3</ele>
        <time>2018-06-14T15:21:46Z</time>
      </trkpt>
      <trkpt lat="47.97915" lon="7.12347">
        <ele>1224</ele>
        <time>2018-06-14T15:21:53Z</time>
      </trkpt>
      <trkpt lat="47.97905" lon="7.12368">
        <ele>1223.8</ele>
        <time>2018-06-14T15:21:58Z</time>
      </trkpt>
      <trkpt lat="47.97899" lon="7.12388">
        <ele>1221.2</ele>
        <time>2018-06-14T15:22:02Z</time>
      </trkpt>
      <trkpt lat="47.97892" lon="7.12431">
        <ele>1220.1</ele>
        <time>2018-06-14T15:22:12Z</time>
      </trkpt>
      <trkpt lat="47.97888" lon="7.12455">
        <ele>1218.3</ele>
        <time>2018-06-14T15:22:17Z</time>
      </trkpt>
      <trkpt lat="47.97877" lon="7.12531">
        <ele>1217.4</ele>
        <time>2018-06-14T15:22:33Z</time>
      </trkpt>
      <trkpt lat="47.97877" lon="7.12553">
        <ele>1217.1</ele>
        <time>2018-06-14T15:22:38Z</time>
      </trkpt>
      <trkpt lat="47.97885" lon="7.12589">
        <ele>1218.5</ele>
        <time>2018-06-14T15:22:45Z</time>
      </trkpt>
      <trkpt lat="47.97899" lon="7.12629">
        <ele>1222.6</ele>
        <time>2018-06-14T15:22:55Z</time>
      </trkpt>
      <trkpt lat="47.97909" lon="7.12659">
        <ele>1225.8</ele>
        <time>2018-06-14T15:23:02Z</time>
      </trkpt>
      <trkpt lat="47.9792" lon="7.12692">
        <ele>1229.5</ele>
        <time>2018-06-14T15:23:10Z</time>
      </trkpt>
      <trkpt lat="47.97934" lon="7.12728">
        <ele>1233.6</ele>
        <time>2018-06-14T15:23:18Z</time>
      </trkpt>
      <trkpt lat="47.97947" lon="7.12759">
        <ele>1237.2</ele>
        <time>2018-06-14T15:23:26Z</time>
      </trkpt>
      <trkpt lat="47.97958" lon="7.12789">
        <ele>1241.3</ele>
        <time>2018-06-14T15:23:33Z</time>
      </trkpt>
      <trkpt lat="47.97972" lon="7.12813">
        <ele>1244.1</ele>
        <time>2018-06-14T15:23:40Z</time>
      </trkpt>
      <trkpt lat="47.97989" lon="7.1283">
        <ele>1248.5</ele>
        <time>2018-06-14T15:23:46Z</time>
      </trkpt>
      <trkpt lat="47.98025" lon="7.1284">
        <ele>1253.9</ele>
        <time>2018-06-14T15:23:57Z</time>
      </trkpt>
      <trkpt lat="47.98043" lon="7.12828">
        <ele>1256.3</ele>
        <time>2018-06-14T15:24:04Z</time>
      </trkpt>
      <trkpt lat="47.98054" lon="7.12781">
        <ele>1260</ele>
        <time>2018-06-14T15:24:14Z</time>
      </trkpt>
      <trkpt lat="47.98059" lon="7.12758">
        <ele>1263.4</ele>
        <time>2018-06-14T15:24:19Z</time>
      </trkpt>
      <trkpt lat="47.98062" lon="7.12729">
        <ele>1265.6</ele>
        <time>2018-06-14T15:24:25Z</time>
      </trkpt>
      <trkpt lat="47.98063" lon="7.12693">
        <ele>1266.4</ele>
        <time>2018-06-14T15:24:32Z</time>
      </trkpt>
      <trkpt lat="47.98061" lon="7.12674">
        <ele>1267.2</ele>
        <time>2018-06-14T15:24:37Z</time>
      </trkpt>
      <trkpt lat="47.9806" lon="7.12653">
        <ele>1268.2</ele>
        <time>2018-06-14T15:24:41Z</time>
      </trkpt>
      <trkpt lat="47.98067" lon="7.1264">
        <ele>1270</ele>
        <time>2018-06-14T15:24:44Z</time>
      </trkpt>
      <trkpt lat="47.98061" lon="7.12645">
        <ele>1268.8</ele>
        <time>2018-06-14T15:24:47Z</time>
      </trkpt>
      <trkpt lat="47.98061" lon="7.12682">
        <ele>1266.1</ele>
        <time>2018-06-14T15:24:54Z</time>
      </trkpt>
      <trkpt lat="47.98058" lon="7.12746">
        <ele>1263</ele>
        <time>2018-06-14T15:25:08Z</time>
      </trkpt>
      <trkpt lat="47.98053" lon="7.12777">
        <ele>1260.3</ele>
        <time>2018-06-14T15:25:14Z</time>
      </trkpt>
      <trkpt lat="47.98048" lon="7.12797">
        <ele>1257.6</ele>
        <time>2018-06-14T15:25:19Z</time>
      </trkpt>
      <trkpt lat="47.98044" lon="7.12817">
        <ele>1256.1</ele>
        <time>2018-06-14T15:25:23Z</time>
      </trkpt>
      <trkpt lat="47.98031" lon="7.12839">
        <ele>1253.6</ele>
        <time>2018-06-14T15:25:29Z</time>
      </trkpt>
      <trkpt lat="47.98016" lon="7.12845">
        <ele>1249.6</ele>
        <time>2018-06-14T15:25:34Z</time>
      </trkpt>
      <trkpt lat="47.98001" lon="7.12841">
        <ele>1246.4</ele>
        <time>2018-06-14T15:25:39Z</time>
      </trkpt>
      <trkpt lat="47.97981" lon="7.12828">
        <ele>1243.7</ele>
        <time>2018-06-14T15:25:46Z</time>
      </trkpt>
      <trkpt lat="47.97959" lon="7.12795">
        <ele>1239.1</ele>
        <time>2018-06-14T15:25:55Z</time>
      </trkpt>
      <trkpt lat="47.97949" lon="7.12767">
        <ele>1235.2</ele>
        <time>2018-06-14T15:26:02Z</time>
      </trkpt>
      <trkpt lat="47.97938" lon="7.1274">
        <ele>1231.5</ele>
        <time>2018-06-14T15:26:08Z</time>
      </trkpt>
      <trkpt lat="47.9793" lon="7.1272">
        <ele>1228.2</ele>
        <time>2018-06-14T15:26:13Z</time>
      </trkpt>
      <trkpt lat="47.97918" lon="7.12687">
        <ele>1225.3</ele>
        <time>2018-06-14T15:26:21Z</time>
      </trkpt>
      <trkpt lat="47.97912" lon="7.12666">
        <ele>1224</ele>
        <time>2018-06-14T15:26:26Z</time>
      </trkpt>
      <trkpt lat="47.97905" lon="7.12646">
        <ele>1221</ele>
        <time>2018-06-14T15:26:30Z</time>
      </trkpt>
      <trkpt lat="47.97892" lon="7.12607">
        <ele>1216.8</ele>
        <time>2018-06-14T15:26:40Z</time>
      </trkpt>
      <trkpt lat="47.97885" lon="7.12585">
        <ele>1215</ele>
        <time>2018-06-14T15:26:45Z</time>
      </trkpt>
      <trkpt lat="47.97876" lon="7.12588">
        <ele>1212.7</ele>
        <time>2018-06-14T15:26:47Z</time>
      </trkpt>
      <trkpt lat="47.97869" lon="7.12607">
        <ele>1207.6</ele>
        <time>2018-06-14T15:26:52Z</time>
      </trkpt>
      <trkpt lat="47.9786" lon="7.12632">
        <ele>1205</ele>
        <time>2018-06-14T15:26:58Z</time>
      </trkpt>
      <trkpt lat="47.97851" lon="7.12657">
        <ele>1201.1</ele>
        <time>2018-06-14T15:27:04Z</time>
      </trkpt>
      <trkpt lat="47.97842" lon="7.12686">
        <ele>1198.5</ele>
        <time>2018-06-14T15:27:10Z</time>
      </trkpt>
      <trkpt lat="47.97834" lon="7.12715">
        <ele>1194.5</ele>
        <time>2018-06-14T15:27:17Z</time>
      </trkpt>
      <trkpt lat="47.97828" lon="7.12739">
        <ele>1193.3</ele>
        <time>2018-06-14T15:27:22Z</time>
      </trkpt>
      <trkpt lat="47.97822" lon="7.12763">
        <ele>1190.8</ele>
        <time>2018-06-14T15:27:28Z</time>
      </trkpt>
      <trkpt lat="47.97816" lon="7.12787">
        <ele>1189.7</ele>
        <time>2018-06-14T15:27:33Z</time>
      </trkpt>
      <trkpt lat="47.97812" lon="7.1281">
        <ele>1186.4</ele>
        <time>2018-06-14T15:27:38Z</time>
      </trkpt>
      <trkpt lat="47.97806" lon="7.12832">
        <ele>1183.6</ele>
        <time>2018-06-14T15:27:43Z</time>
      </trkpt>
      <trkpt lat="47.97796" lon="7.12864">
        <ele>1178</ele>
        <time>2018-06-14T15:27:50Z</time>
      </trkpt>
      <trkpt lat="47.97793" lon="7.12884">
        <ele>1176.1</ele>
        <time>2018-06-14T15:27:54Z</time>
      </trkpt>
      <trkpt lat="47.97785" lon="7.1291">
        <ele>1174.9</ele>
        <time>2018-06-14T15:28:00Z</time>
      </trkpt>
      <trkpt lat="47.97779" lon="7.12936">
        <ele>1171.7</ele>
        <time>2018-06-14T15:28:06Z</time>
      </trkpt>
      <trkpt lat="47.97775" lon="7.12956">
        <ele>1169</ele>
        <time>2018-06-14T15:28:10Z</time>
      </trkpt>
      <trkpt lat="47.97773" lon="7.12977">
        <ele>1167.8</ele>
        <time>2018-06-14T15:28:15Z</time>
      </trkpt>
      <trkpt lat="47.97771" lon="7.13018">
        <ele>1163.7</ele>
        <time>2018-06-14T15:28:23Z</time>
      </trkpt>
      <trkpt lat="47.97768" lon="7.13047">
        <ele>1159.7</ele>
        <time>2018-06-14T15:28:29Z</time>
      </trkpt>
      <trkpt lat="47.9776" lon="7.13092">
        <ele>1157.7</ele>
        <time>2018-06-14T15:28:39Z</time>
      </trkpt>
      <trkpt lat="47.97747" lon="7.13121">
        <ele>1154.1</ele>
        <time>2018-06-14T15:28:46Z</time>
      </trkpt>
      <trkpt lat="47.97731" lon="7.13145">
        <ele>1152.1</ele>
        <time>2018-06-14T15:28:53Z</time>
      </trkpt>
      <trkpt lat="47.97716" lon="7.13158">
        <ele>1151.3</ele>
        <time>2018-06-14T15:28:59Z</time>
      </trkpt>
      <trkpt lat="47.97692" lon="7.13169">
        <ele>1147.9</ele>
        <time>2018-06-14T15:29:06Z</time>
      </trkpt>
      <trkpt lat="47.97679" lon="7.13175">
        <ele>1145.9</ele>
        <time>2018-06-14T15:29:11Z</time>
      </trkpt>
      <trkpt lat="47.9766" lon="7.13183">
        <ele>1143.6</ele>
        <time>2018-06-14T15:29:17Z</time>
      </trkpt>
      <trkpt lat="47.97618" lon="7.13192">
        <ele>1139.4</ele>
        <time>2018-06-14T15:29:30Z</time>
      </trkpt>
      <trkpt lat="47.97604" lon="7.13194">
        <ele>1139.8</ele>
        <time>2018-06-14T15:29:35Z</time>
      </trkpt>
      <trkpt lat="47.9758" lon="7.13197">
        <ele>1136.3</ele>
        <time>2018-06-14T15:29:42Z</time>
      </trkpt>
      <trkpt lat="47.97564" lon="7.13198">
        <ele>1133.9</ele>
        <time>2018-06-14T15:29:47Z</time>
      </trkpt>
      <trkpt lat="47.97548" lon="7.13199">
        <ele>1131.3</ele>
        <time>2018-06-14T15:29:52Z</time>
      </trkpt>
      <trkpt lat="47.9753" lon="7.13202">
        <ele>1129.8</ele>
        <time>2018-06-14T15:29:57Z</time>
      </trkpt>
      <trkpt lat="47.97515" lon="7.13213">
        <ele>1129.8</ele>
        <time>2018-06-14T15:30:03Z</time>
      </trkpt>
      <trkpt lat="47.975" lon="7.13225">
        <ele>1128.7</ele>
        <time>2018-06-14T15:30:08Z</time>
      </trkpt>
      <trkpt lat="47.97453" lon="7.13269">
        <ele>1129.1</ele>
        <time>2018-06-14T15:30:25Z</time>
      </trkpt>
      <trkpt lat="47.97432" lon="7.13304">
        <ele>1129.1</ele>
        <time>2018-06-14T15:30:35Z</time>
      </trkpt>
      <trkpt lat="47.97421" lon="7.13322">
        <ele>1129.1</ele>
        <time>2018-06-14T15:30:40Z</time>
      </trkpt>
      <trkpt lat="47.97418" lon="7.13346">
        <ele>1131.4</ele>
        <time>2018-06-14T15:30:45Z</time>
      </trkpt>
      <trkpt lat="47.97425" lon="7.1338">
        <ele>1131.2</ele>
        <time>2018-06-14T15:30:52Z</time>
      </trkpt>
      <trkpt lat="47.97436" lon="7.13404">
        <ele>1133.1</ele>
        <time>2018-06-14T15:30:59Z</time>
      </trkpt>
      <trkpt lat="47.97448" lon="7.13422">
        <ele>1136.4</ele>
        <time>2018-06-14T15:31:04Z</time>
      </trkpt>
      <trkpt lat="47.97461" lon="7.1343">
        <ele>1137.8</ele>
        <time>2018-06-14T15:31:08Z</time>
      </trkpt>
      <trkpt lat="47.97488" lon="7.13439">
        <ele>1138.3</ele>
        <time>2018-06-14T15:31:17Z</time>
      </trkpt>
      <trkpt lat="47.97501" lon="7.13439">
        <ele>1138.2</ele>
        <time>2018-06-14T15:31:21Z</time>
      </trkpt>
      <trkpt lat="47.97543" lon="7.13444">
        <ele>1140</ele>
        <time>2018-06-14T15:31:34Z</time>
      </trkpt>
      <trkpt lat="47.97565" lon="7.13446">
        <ele>1141.8</ele>
        <time>2018-06-14T15:31:41Z</time>
      </trkpt>
      <trkpt lat="47.97589" lon="7.1345">
        <ele>1142.4</ele>
        <time>2018-06-14T15:31:48Z</time>
      </trkpt>
      <trkpt lat="47.97604" lon="7.13452">
        <ele>1145</ele>
        <time>2018-06-14T15:31:53Z</time>
      </trkpt>
      <trkpt lat="47.97628" lon="7.13458">
        <ele>1146.5</ele>
        <time>2018-06-14T15:32:00Z</time>
      </trkpt>
      <trkpt lat="47.97649" lon="7.1346">
        <ele>1148</ele>
        <time>2018-06-14T15:32:07Z</time>
      </trkpt>
      <trkpt lat="47.97665" lon="7.13461">
        <ele>1147.7</ele>
        <time>2018-06-14T15:32:12Z</time>
      </trkpt>
      <trkpt lat="47.97681" lon="7.13459">
        <ele>1145.1</ele>
        <time>2018-06-14T15:32:17Z</time>
      </trkpt>
      <trkpt lat="47.97696" lon="7.13452">
        <ele>1142.9</ele>
        <time>2018-06-14T15:32:22Z</time>
      </trkpt>
      <trkpt lat="47.97712" lon="7.13445">
        <ele>1141.4</ele>
        <time>2018-06-14T15:32:27Z</time>
      </trkpt>
      <trkpt lat="47.97744" lon="7.13437">
        <ele>1138.1</ele>
        <time>2018-06-14T15:32:37Z</time>
      </trkpt>
      <trkpt lat="47.97787" lon="7.13422">
        <ele>1133.5</ele>
        <time>2018-06-14T15:32:51Z</time>
      </trkpt>
      <trkpt lat="47.97805" lon="7.13412">
        <ele>1130.9</ele>
        <time>2018-06-14T15:32:57Z</time>
      </trkpt>
      <trkpt lat="47.97842" lon="7.13397">
        <ele>1128.5</ele>
        <time>2018-06-14T15:33:09Z</time>
      </trkpt>
      <trkpt lat="47.97865" lon="7.13385">
        <ele>1125.2</ele>
        <time>2018-06-14T15:33:16Z</time>
      </trkpt>
      <trkpt lat="47.97881" lon="7.13373">
        <ele>1121.8</ele>
        <time>2018-06-14T15:33:22Z</time>
      </trkpt>
      <trkpt lat="47.97898" lon="7.13359">
        <ele>1118.8</ele>
        <time>2018-06-14T15:33:28Z</time>
      </trkpt>
      <trkpt lat="47.97913" lon="7.13344">
        <ele>1116.8</ele>
        <time>2018-06-14T15:33:33Z</time>
      </trkpt>
      <trkpt lat="47.97929" lon="7.13334">
        <ele>1115.3</ele>
        <time>2018-06-14T15:33:39Z</time>
      </trkpt>
      <trkpt lat="47.97941" lon="7.13318">
        <ele>1113</ele>
        <time>2018-06-14T15:33:44Z</time>
      </trkpt>
      <trkpt lat="47.97949" lon="7.13294">
        <ele>1108.1</ele>
        <time>2018-06-14T15:33:49Z</time>
      </trkpt>
      <trkpt lat="47.97959" lon="7.13253">
        <ele>1105.6</ele>
        <time>2018-06-14T15:33:58Z</time>
      </trkpt>
      <trkpt lat="47.97971" lon="7.13231">
        <ele>1103.4</ele>
        <time>2018-06-14T15:34:04Z</time>
      </trkpt>
      <trkpt lat="47.97985" lon="7.1322">
        <ele>1102.7</ele>
        <time>2018-06-14T15:34:09Z</time>
      </trkpt>
      <trkpt lat="47.98001" lon="7.13215">
        <ele>1101.7</ele>
        <time>2018-06-14T15:34:14Z</time>
      </trkpt>
      <trkpt lat="47.98018" lon="7.1321">
        <ele>1098</ele>
        <time>2018-06-14T15:34:20Z</time>
      </trkpt>
      <trkpt lat="47.98033" lon="7.13206">
        <ele>1097.3</ele>
        <time>2018-06-14T15:34:24Z</time>
      </trkpt>
      <trkpt lat="47.98056" lon="7.13201">
        <ele>1096.6</ele>
        <time>2018-06-14T15:34:32Z</time>
      </trkpt>
      <trkpt lat="47.98072" lon="7.13204">
        <ele>1095.1</ele>
        <time>2018-06-14T15:34:37Z</time>
      </trkpt>
      <trkpt lat="47.98107" lon="7.13217">
        <ele>1095.4</ele>
        <time>2018-06-14T15:34:48Z</time>
      </trkpt>
      <trkpt lat="47.98132" lon="7.13232">
        <ele>1095.5</ele>
        <time>2018-06-14T15:34:56Z</time>
      </trkpt>
      <trkpt lat="47.98162" lon="7.13243">
        <ele>1097.8</ele>
        <time>2018-06-14T15:35:06Z</time>
      </trkpt>
      <trkpt lat="47.98171" lon="7.13244">
        <ele>1097.7</ele>
        <time>2018-06-14T15:35:09Z</time>
      </trkpt>
      <trkpt lat="47.9818" lon="7.13244">
        <ele>1093.9</ele>
        <time>2018-06-14T15:35:11Z</time>
      </trkpt>
      <trkpt lat="47.98194" lon="7.13246">
        <ele>1091.3</ele>
        <time>2018-06-14T15:35:16Z</time>
      </trkpt>
      <trkpt lat="47.98216" lon="7.13249">
        <ele>1088.3</ele>
        <time>2018-06-14T15:35:23Z</time>
      </trkpt>
      <trkpt lat="47.98245" lon="7.13254">
        <ele>1085.5</ele>
        <time>2018-06-14T15:35:32Z</time>
      </trkpt>
      <trkpt lat="47.98265" lon="7.13263">
        <ele>1083</ele>
        <time>2018-06-14T15:35:38Z</time>
      </trkpt>
      <trkpt lat="47.98274" lon="7.13276">
        <ele>1081.4</ele>
        <time>2018-06-14T15:35:42Z</time>
      </trkpt>
      <trkpt lat="47.98248" lon="7.13316">
        <ele>1074.8</ele>
        <time>2018-06-14T15:35:54Z</time>
      </trkpt>
      <trkpt lat="47.98235" lon="7.13345">
        <ele>1070.3</ele>
        <time>2018-06-14T15:36:01Z</time>
      </trkpt>
      <trkpt lat="47.98221" lon="7.13373">
        <ele>1067.8</ele>
        <time>2018-06-14T15:36:08Z</time>
      </trkpt>
      <trkpt lat="47.98211" lon="7.13393">
        <ele>1064.1</ele>
        <time>2018-06-14T15:36:14Z</time>
      </trkpt>
      <trkpt lat="47.98202" lon="7.13411">
        <ele>1061.9</ele>
        <time>2018-06-14T15:36:18Z</time>
      </trkpt>
      <trkpt lat="47.98186" lon="7.13428">
        <ele>1059.8</ele>
        <time>2018-06-14T15:36:24Z</time>
      </trkpt>
      <trkpt lat="47.98167" lon="7.13436">
        <ele>1056.8</ele>
        <time>2018-06-14T15:36:30Z</time>
      </trkpt>
      <trkpt lat="47.98151" lon="7.13441">
        <ele>1054.5</ele>
        <time>2018-06-14T15:36:36Z</time>
      </trkpt>
      <trkpt lat="47.98133" lon="7.13445">
        <ele>1052.4</ele>
        <time>2018-06-14T15:36:41Z</time>
      </trkpt>
      <trkpt lat="47.98113" lon="7.13444">
        <ele>1050</ele>
        <time>2018-06-14T15:36:47Z</time>
      </trkpt>
      <trkpt lat="47.98096" lon="7.13438">
        <ele>1048.7</ele>
        <time>2018-06-14T15:36:53Z</time>
      </trkpt>
      <trkpt lat="47.98082" lon="7.13431">
        <ele>1046.1</ele>
        <time>2018-06-14T15:36:57Z</time>
      </trkpt>
      <trkpt lat="47.98094" lon="7.1344">
        <ele>1047.9</ele>
        <time>2018-06-14T15:37:02Z</time>
      </trkpt>
      <trkpt lat="47.98115" lon="7.13448">
        <ele>1049.5</ele>
        <time>2018-06-14T15:37:09Z</time>
      </trkpt>
      <trkpt lat="47.9814" lon="7.13451">
        <ele>1053.4</ele>
        <time>2018-06-14T15:37:16Z</time>
      </trkpt>
      <trkpt lat="47.98159" lon="7.13447">
        <ele>1056.2</ele>
        <time>2018-06-14T15:37:22Z</time>
      </trkpt>
      <trkpt lat="47.98181" lon="7.13434">
        <ele>1058.8</ele>
        <time>2018-06-14T15:37:29Z</time>
      </trkpt>
      <trkpt lat="47.98194" lon="7.13423">
        <ele>1061.4</ele>
        <time>2018-06-14T15:37:34Z</time>
      </trkpt>
      <trkpt lat="47.98181" lon="7.13429">
        <ele>1057.9</ele>
        <time>2018-06-14T15:37:39Z</time>
      </trkpt>
      <trkpt lat="47.98167" lon="7.13439">
        <ele>1056.1</ele>
        <time>2018-06-14T15:37:43Z</time>
      </trkpt>
      <trkpt lat="47.98153" lon="7.13447">
        <ele>1054.3</ele>
        <time>2018-06-14T15:37:48Z</time>
      </trkpt>
      <trkpt lat="47.98135" lon="7.13449">
        <ele>1051.9</ele>
        <time>2018-06-14T15:37:54Z</time>
      </trkpt>
      <trkpt lat="47.98108" lon="7.13444">
        <ele>1047.8</ele>
        <time>2018-06-14T15:38:02Z</time>
      </trkpt>
      <trkpt lat="47.98088" lon="7.13435">
        <ele>1045.6</ele>
        <time>2018-06-14T15:38:09Z</time>
      </trkpt>
      <trkpt lat="47.98071" lon="7.13428">
        <ele>1043</ele>
        <time>2018-06-14T15:38:14Z</time>
      </trkpt>
      <trkpt lat="47.98054" lon="7.13433">
        <ele>1040.8</ele>
        <time>2018-06-14T15:38:19Z</time>
      </trkpt>
      <trkpt lat="47.98047" lon="7.13451">
        <ele>1039.7</ele>
        <time>2018-06-14T15:38:24Z</time>
      </trkpt>
      <trkpt lat="47.9804" lon="7.13471">
        <ele>1035.8</ele>
        <time>2018-06-14T15:38:28Z</time>
      </trkpt>
      <trkpt lat="47.98026" lon="7.13501">
        <ele>1032.6</ele>
        <time>2018-06-14T15:38:36Z</time>
      </trkpt>
      <trkpt lat="47.98013" lon="7.13532">
        <ele>1029.4</ele>
        <time>2018-06-14T15:38:44Z</time>
      </trkpt>
      <trkpt lat="47.97996" lon="7.13557">
        <ele>1025</ele>
        <time>2018-06-14T15:38:51Z</time>
      </trkpt>
      <trkpt lat="47.97981" lon="7.13568">
        <ele>1021.1</ele>
        <time>2018-06-14T15:38:56Z</time>
      </trkpt>
      <trkpt lat="47.97966" lon="7.13581">
        <ele>1018.3</ele>
        <time>2018-06-14T15:39:01Z</time>
      </trkpt>
      <trkpt lat="47.97955" lon="7.13604">
        <ele>1016.5</ele>
        <time>2018-06-14T15:39:07Z</time>
      </trkpt>
      <trkpt lat="47.97943" lon="7.13636">
        <ele>1013.9</ele>
        <time>2018-06-14T15:39:15Z</time>
      </trkpt>
      <trkpt lat="47.97932" lon="7.13671">
        <ele>1010.8</ele>
        <time>2018-06-14T15:39:23Z</time>
      </trkpt>
      <trkpt lat="47.97925" lon="7.13708">
        <ele>1007.7</ele>
        <time>2018-06-14T15:39:31Z</time>
      </trkpt>
      <trkpt lat="47.97918" lon="7.13747">
        <ele>1004</ele>
        <time>2018-06-14T15:39:39Z</time>
      </trkpt>
      <trkpt lat="47.97913" lon="7.13773">
        <ele>1002.4</ele>
        <time>2018-06-14T15:39:45Z</time>
      </trkpt>
      <trkpt lat="47.97905" lon="7.13805">
        <ele>999.2</ele>
        <time>2018-06-14T15:39:52Z</time>
      </trkpt>
      <trkpt lat="47.97891" lon="7.13837">
        <ele>995.1</ele>
        <time>2018-06-14T15:40:00Z</time>
      </trkpt>
      <trkpt lat="47.97875" lon="7.13858">
        <ele>993</ele>
        <time>2018-06-14T15:40:07Z</time>
      </trkpt>
      <trkpt lat="47.97865" lon="7.1388">
        <ele>990.6</ele>
        <time>2018-06-14T15:40:12Z</time>
      </trkpt>
      <trkpt lat="47.97857" lon="7.13906">
        <ele>987.6</ele>
        <time>2018-06-14T15:40:18Z</time>
      </trkpt>
      <trkpt lat="47.97849" lon="7.13939">
        <ele>984.8</ele>
        <time>2018-06-14T15:40:26Z</time>
      </trkpt>
      <trkpt lat="47.97846" lon="7.1396">
        <ele>983.4</ele>
        <time>2018-06-14T15:40:30Z</time>
      </trkpt>
      <trkpt lat="47.97844" lon="7.13982">
        <ele>982.1</ele>
        <time>2018-06-14T15:40:35Z</time>
      </trkpt>
      <trkpt lat="47.97844" lon="7.14003">
        <ele>980</ele>
        <time>2018-06-14T15:40:39Z</time>
      </trkpt>
      <trkpt lat="47.97843" lon="7.14025">
        <ele>977.3</ele>
        <time>2018-06-14T15:40:44Z</time>
      </trkpt>
      <trkpt lat="47.97842" lon="7.14046">
        <ele>975.6</ele>
        <time>2018-06-14T15:40:48Z</time>
      </trkpt>
      <trkpt lat="47.9784" lon="7.14087">
        <ele>970</ele>
        <time>2018-06-14T15:40:57Z</time>
      </trkpt>
      <trkpt lat="47.97839" lon="7.14141">
        <ele>967.2</ele>
        <time>2018-06-14T15:41:08Z</time>
      </trkpt>
      <trkpt lat="47.97839" lon="7.1417">
        <ele>963</ele>
        <time>2018-06-14T15:41:14Z</time>
      </trkpt>
      <trkpt lat="47.97838" lon="7.142">
        <ele>960.8</ele>
        <time>2018-06-14T15:41:20Z</time>
      </trkpt>
      <trkpt lat="47.97836" lon="7.1422">
        <ele>958.7</ele>
        <time>2018-06-14T15:41:24Z</time>
      </trkpt>
      <trkpt lat="47.97829" lon="7.14251">
        <ele>954.7</ele>
        <time>2018-06-14T15:41:31Z</time>
      </trkpt>
      <trkpt lat="47.97819" lon="7.1427">
        <ele>952.9</ele>
        <time>2018-06-14T15:41:36Z</time>
      </trkpt>
      <trkpt lat="47.978" lon="7.14282">
        <ele>950.9</ele>
        <time>2018-06-14T15:41:43Z</time>
      </trkpt>
      <trkpt lat="47.97783" lon="7.14289">
        <ele>947.8</ele>
        <time>2018-06-14T15:41:48Z</time>
      </trkpt>
      <trkpt lat="47.9777" lon="7.14303">
        <ele>947.7</ele>
        <time>2018-06-14T15:41:53Z</time>
      </trkpt>
      <trkpt lat="47.97777" lon="7.14315">
        <ele>944.1</ele>
        <time>2018-06-14T15:41:56Z</time>
      </trkpt>
      <trkpt lat="47.97793" lon="7.14319">
        <ele>942.6</ele>
        <time>2018-06-14T15:42:01Z</time>
      </trkpt>
      <trkpt lat="47.97806" lon="7.14325">
        <ele>940</ele>
        <time>2018-06-14T15:42:06Z</time>
      </trkpt>
      <trkpt lat="47.97828" lon="7.14338">
        <ele>935.5</ele>
        <time>2018-06-14T15:42:13Z</time>
      </trkpt>
      <trkpt lat="47.97851" lon="7.1435">
        <ele>932.3</ele>
        <time>2018-06-14T15:42:21Z</time>
      </trkpt>
      <trkpt lat="47.9787" lon="7.14356">
        <ele>930.2</ele>
        <time>2018-06-14T15:42:26Z</time>
      </trkpt>
      <trkpt lat="47.97894" lon="7.14362">
        <ele>927.8</ele>
        <time>2018-06-14T15:42:34Z</time>
      </trkpt>
      <trkpt lat="47.97904" lon="7.14385">
        <ele>925.1</ele>
        <time>2018-06-14T15:42:40Z</time>
      </trkpt>
      <trkpt lat="47.97881" lon="7.14385">
        <ele>923.2</ele>
        <time>2018-06-14T15:42:47Z</time>
      </trkpt>
      <trkpt lat="47.97854" lon="7.14384">
        <ele>921</ele>
        <time>2018-06-14T15:42:55Z</time>
      </trkpt>
      <trkpt lat="47.97836" lon="7.14393">
        <ele>919.4</ele>
        <time>2018-06-14T15:43:01Z</time>
      </trkpt>
      <trkpt lat="47.9782" lon="7.14409">
        <ele>915.6</ele>
        <time>2018-06-14T15:43:07Z</time>
      </trkpt>
      <trkpt lat="47.97806" lon="7.14423">
        <ele>912.3</ele>
        <time>2018-06-14T15:43:12Z</time>
      </trkpt>
      <trkpt lat="47.97796" lon="7.14443">
        <ele>909.6</ele>
        <time>2018-06-14T15:43:17Z</time>
      </trkpt>
      <trkpt lat="47.9779" lon="7.1447">
        <ele>907.9</ele>
        <time>2018-06-14T15:43:23Z</time>
      </trkpt>
      <trkpt lat="47.97788" lon="7.14497">
        <ele>905.2</ele>
        <time>2018-06-14T15:43:29Z</time>
      </trkpt>
      <trkpt lat="47.97789" lon="7.14533">
        <ele>902.2</ele>
        <time>2018-06-14T15:43:36Z</time>
      </trkpt>
      <trkpt lat="47.97782" lon="7.14556">
        <ele>899.2</ele>
        <time>2018-06-14T15:43:42Z</time>
      </trkpt>
      <trkpt lat="47.97766" lon="7.14575">
        <ele>895</ele>
        <time>2018-06-14T15:43:48Z</time>
      </trkpt>
      <trkpt lat="47.97747" lon="7.14593">
        <ele>890.9</ele>
        <time>2018-06-14T15:43:55Z</time>
      </trkpt>
      <trkpt lat="47.97733" lon="7.14607">
        <ele>889.3</ele>
        <time>2018-06-14T15:44:00Z</time>
      </trkpt>
      <trkpt lat="47.97712" lon="7.14626">
        <ele>886.4</ele>
        <time>2018-06-14T15:44:08Z</time>
      </trkpt>
      <trkpt lat="47.97698" lon="7.14638">
        <ele>886.5</ele>
        <time>2018-06-14T15:44:13Z</time>
      </trkpt>
      <trkpt lat="47.97684" lon="7.14648">
        <ele>884.5</ele>
        <time>2018-06-14T15:44:18Z</time>
      </trkpt>
      <trkpt lat="47.9767" lon="7.14663">
        <ele>884.4</ele>
        <time>2018-06-14T15:44:23Z</time>
      </trkpt>
      <trkpt lat="47.97679" lon="7.14678">
        <ele>882</ele>
        <time>2018-06-14T15:44:27Z</time>
      </trkpt>
      <trkpt lat="47.97707" lon="7.14677">
        <ele>877.4</ele>
        <time>2018-06-14T15:44:36Z</time>
      </trkpt>
      <trkpt lat="47.97726" lon="7.14672">
        <ele>874.6</ele>
        <time>2018-06-14T15:44:42Z</time>
      </trkpt>
      <trkpt lat="47.97742" lon="7.1467">
        <ele>874.7</ele>
        <time>2018-06-14T15:44:47Z</time>
      </trkpt>
      <trkpt lat="47.97735" lon="7.14688">
        <ele>873.5</ele>
        <time>2018-06-14T15:44:51Z</time>
      </trkpt>
      <trkpt lat="47.97711" lon="7.14713">
        <ele>870.4</ele>
        <time>2018-06-14T15:45:00Z</time>
      </trkpt>
      <trkpt lat="47.97668" lon="7.14757">
        <ele>867.9</ele>
        <time>2018-06-14T15:45:16Z</time>
      </trkpt>
      <trkpt lat="47.97645" lon="7.14789">
        <ele>866.2</ele>
        <time>2018-06-14T15:45:26Z</time>
      </trkpt>
      <trkpt lat="47.97638" lon="7.14814">
        <ele>865.3</ele>
        <time>2018-06-14T15:45:32Z</time>
      </trkpt>
      <trkpt lat="47.97647" lon="7.14822">
        <ele>865</ele>
        <time>2018-06-14T15:45:35Z</time>
      </trkpt>
      <trkpt lat="47.97659" lon="7.14837">
        <ele>865</ele>
        <time>2018-06-14T15:45:40Z</time>
      </trkpt>
      <trkpt lat="47.97672" lon="7.14874">
        <ele>867.5</ele>
        <time>2018-06-14T15:45:49Z</time>
      </trkpt>
      <trkpt lat="47.97684" lon="7.14923">
        <ele>867.5</ele>
        <time>2018-06-14T15:45:59Z</time>
      </trkpt>
      <trkpt lat="47.97687" lon="7.14989">
        <ele>868.5</ele>
        <time>2018-06-14T15:46:13Z</time>
      </trkpt>
      <trkpt lat="47.97683" lon="7.15055">
        <ele>870.4</ele>
        <time>2018-06-14T15:46:27Z</time>
      </trkpt>
      <trkpt lat="47.97684" lon="7.15105">
        <ele>871.5</ele>
        <time>2018-06-14T15:46:37Z</time>
      </trkpt>
      <trkpt lat="47.97691" lon="7.15175">
        <ele>873.5</ele>
        <time>2018-06-14T15:46:52Z</time>
      </trkpt>
      <trkpt lat="47.9771" lon="7.15241">
        <ele>875.3</ele>
        <time>2018-06-14T15:47:07Z</time>
      </trkpt>
      <trkpt lat="47.97739" lon="7.15298">
        <ele>877.7</ele>
        <time>2018-06-14T15:47:22Z</time>
      </trkpt>
      <trkpt lat="47.97759" lon="7.15354">
        <ele>878.5</ele>
        <time>2018-06-14T15:47:35Z</time>
      </trkpt>
      <trkpt lat="47.97771" lon="7.15402">
        <ele>879.6</ele>
        <time>2018-06-14T15:47:46Z</time>
      </trkpt>
      <trkpt lat="47.97784" lon="7.15447">
        <ele>880.8</ele>
        <time>2018-06-14T15:47:56Z</time>
      </trkpt>
      <trkpt lat="47.97782" lon="7.1547">
        <ele>882.2</ele>
        <time>2018-06-14T15:48:01Z</time>
      </trkpt>
      <trkpt lat="47.97779" lon="7.15513">
        <ele>882.1</ele>
        <time>2018-06-14T15:48:10Z</time>
      </trkpt>
      <trkpt lat="47.97779" lon="7.15535">
        <ele>882.1</ele>
        <time>2018-06-14T15:48:14Z</time>
      </trkpt>
      <trkpt lat="47.97778" lon="7.15556">
        <ele>882</ele>
        <time>2018-06-14T15:48:19Z</time>
      </trkpt>
      <trkpt lat="47.97781" lon="7.15608">
        <ele>883.3</ele>
        <time>2018-06-14T15:48:29Z</time>
      </trkpt>
      <trkpt lat="47.97791" lon="7.15661">
        <ele>884.1</ele>
        <time>2018-06-14T15:48:41Z</time>
      </trkpt>
      <trkpt lat="47.97807" lon="7.15708">
        <ele>884.9</ele>
        <time>2018-06-14T15:48:52Z</time>
      </trkpt>
      <trkpt lat="47.9781" lon="7.1575">
        <ele>885.6</ele>
        <time>2018-06-14T15:49:01Z</time>
      </trkpt>
      <trkpt lat="47.97816" lon="7.15818">
        <ele>886.7</ele>
        <time>2018-06-14T15:49:15Z</time>
      </trkpt>
      <trkpt lat="47.97826" lon="7.15871">
        <ele>887.7</ele>
        <time>2018-06-14T15:49:26Z</time>
      </trkpt>
      <trkpt lat="47.97838" lon="7.15917">
        <ele>889.6</ele>
        <time>2018-06-14T15:49:37Z</time>
      </trkpt>
      <trkpt lat="47.97856" lon="7.15964">
        <ele>891.2</ele>
        <time>2018-06-14T15:49:48Z</time>
      </trkpt>
      <trkpt lat="47.97874" lon="7.15996">
        <ele>891.1</ele>
        <time>2018-06-14T15:49:56Z</time>
      </trkpt>
      <trkpt lat="47.97893" lon="7.16048">
        <ele>892.8</ele>
        <time>2018-06-14T15:50:09Z</time>
      </trkpt>
      <trkpt lat="47.97897" lon="7.16067">
        <ele>892.7</ele>
        <time>2018-06-14T15:50:13Z</time>
      </trkpt>
      <trkpt lat="47.97903" lon="7.16087">
        <ele>889.4</ele>
        <time>2018-06-14T15:50:18Z</time>
      </trkpt>
      <trkpt lat="47.97948" lon="7.16169">
        <ele>886.8</ele>
        <time>2018-06-14T15:50:39Z</time>
      </trkpt>
      <trkpt lat="47.97962" lon="7.16182">
        <ele>885.6</ele>
        <time>2018-06-14T15:50:45Z</time>
      </trkpt>
      <trkpt lat="47.97983" lon="7.16198">
        <ele>883.1</ele>
        <time>2018-06-14T15:50:52Z</time>
      </trkpt>
      <trkpt lat="47.98017" lon="7.16231">
        <ele>880.6</ele>
        <time>2018-06-14T15:51:05Z</time>
      </trkpt>
      <trkpt lat="47.98067" lon="7.16279">
        <ele>878.5</ele>
        <time>2018-06-14T15:51:23Z</time>
      </trkpt>
      <trkpt lat="47.98081" lon="7.16288">
        <ele>877.2</ele>
        <time>2018-06-14T15:51:28Z</time>
      </trkpt>
      <trkpt lat="47.98102" lon="7.16302">
        <ele>875.8</ele>
        <time>2018-06-14T15:51:35Z</time>
      </trkpt>
      <trkpt lat="47.98131" lon="7.16316">
        <ele>873.9</ele>
        <time>2018-06-14T15:51:44Z</time>
      </trkpt>
      <trkpt lat="47.98163" lon="7.16324">
        <ele>874</ele>
        <time>2018-06-14T15:51:55Z</time>
      </trkpt>
      <trkpt lat="47.9818" lon="7.16321">
        <ele>872.9</ele>
        <time>2018-06-14T15:52:00Z</time>
      </trkpt>
      <trkpt lat="47.98224" lon="7.16308">
        <ele>870.5</ele>
        <time>2018-06-14T15:52:14Z</time>
      </trkpt>
      <trkpt lat="47.98241" lon="7.16311">
        <ele>870.5</ele>
        <time>2018-06-14T15:52:19Z</time>
      </trkpt>
      <trkpt lat="47.98258" lon="7.16321">
        <ele>869.3</ele>
        <time>2018-06-14T15:52:25Z</time>
      </trkpt>
      <trkpt lat="47.98272" lon="7.16335">
        <ele>868.3</ele>
        <time>2018-06-14T15:52:30Z</time>
      </trkpt>
      <trkpt lat="47.98286" lon="7.16349">
        <ele>868.3</ele>
        <time>2018-06-14T15:52:35Z</time>
      </trkpt>
      <trkpt lat="47.98301" lon="7.16361">
        <ele>866.5</ele>
        <time>2018-06-14T15:52:41Z</time>
      </trkpt>
      <trkpt lat="47.98317" lon="7.16372">
        <ele>866.6</ele>
        <time>2018-06-14T15:52:46Z</time>
      </trkpt>
      <trkpt lat="47.9833" lon="7.16389">
        <ele>864.1</ele>
        <time>2018-06-14T15:52:51Z</time>
      </trkpt>
      <trkpt lat="47.9834" lon="7.16407">
        <ele>863.4</ele>
        <time>2018-06-14T15:52:56Z</time>
      </trkpt>
      <trkpt lat="47.98369" lon="7.16463">
        <ele>861.1</ele>
        <time>2018-06-14T15:53:11Z</time>
      </trkpt>
      <trkpt lat="47.98378" lon="7.16482">
        <ele>861.1</ele>
        <time>2018-06-14T15:53:16Z</time>
      </trkpt>
      <trkpt lat="47.9839" lon="7.16498">
        <ele>860.2</ele>
        <time>2018-06-14T15:53:21Z</time>
      </trkpt>
      <trkpt lat="47.98402" lon="7.16513">
        <ele>860.2</ele>
        <time>2018-06-14T15:53:26Z</time>
      </trkpt>
      <trkpt lat="47.98437" lon="7.16549">
        <ele>857.7</ele>
        <time>2018-06-14T15:53:39Z</time>
      </trkpt>
      <trkpt lat="47.98448" lon="7.16567">
        <ele>855.6</ele>
        <time>2018-06-14T15:53:44Z</time>
      </trkpt>
      <trkpt lat="47.98467" lon="7.16606">
        <ele>854.3</ele>
        <time>2018-06-14T15:53:54Z</time>
      </trkpt>
      <trkpt lat="47.98494" lon="7.16669">
        <ele>853.4</ele>
        <time>2018-06-14T15:54:09Z</time>
      </trkpt>
      <trkpt lat="47.98507" lon="7.16684">
        <ele>852</ele>
        <time>2018-06-14T15:54:14Z</time>
      </trkpt>
      <trkpt lat="47.98523" lon="7.16694">
        <ele>849.4</ele>
        <time>2018-06-14T15:54:20Z</time>
      </trkpt>
      <trkpt lat="47.98563" lon="7.16719">
        <ele>847</ele>
        <time>2018-06-14T15:54:33Z</time>
      </trkpt>
      <trkpt lat="47.9859" lon="7.16732">
        <ele>845.7</ele>
        <time>2018-06-14T15:54:42Z</time>
      </trkpt>
      <trkpt lat="47.98608" lon="7.16743">
        <ele>842.6</ele>
        <time>2018-06-14T15:54:48Z</time>
      </trkpt>
      <trkpt lat="47.98632" lon="7.16765">
        <ele>840.4</ele>
        <time>2018-06-14T15:54:57Z</time>
      </trkpt>
      <trkpt lat="47.9866" lon="7.16797">
        <ele>839.1</ele>
        <time>2018-06-14T15:55:08Z</time>
      </trkpt>
      <trkpt lat="47.9869" lon="7.16849">
        <ele>836.8</ele>
        <time>2018-06-14T15:55:22Z</time>
      </trkpt>
      <trkpt lat="47.98703" lon="7.16867">
        <ele>835.8</ele>
        <time>2018-06-14T15:55:28Z</time>
      </trkpt>
      <trkpt lat="47.98726" lon="7.16892">
        <ele>833.4</ele>
        <time>2018-06-14T15:55:37Z</time>
      </trkpt>
      <trkpt lat="47.9874" lon="7.1691">
        <ele>832.2</ele>
        <time>2018-06-14T15:55:42Z</time>
      </trkpt>
      <trkpt lat="47.98751" lon="7.16931">
        <ele>830.9</ele>
        <time>2018-06-14T15:55:48Z</time>
      </trkpt>
      <trkpt lat="47.98761" lon="7.16949">
        <ele>829.5</ele>
        <time>2018-06-14T15:55:53Z</time>
      </trkpt>
      <trkpt lat="47.98771" lon="7.16965">
        <ele>829.5</ele>
        <time>2018-06-14T15:55:57Z</time>
      </trkpt>
      <trkpt lat="47.98788" lon="7.16986">
        <ele>827.3</ele>
        <time>2018-06-14T15:56:04Z</time>
      </trkpt>
      <trkpt lat="47.98817" lon="7.17005">
        <ele>824.5</ele>
        <time>2018-06-14T15:56:14Z</time>
      </trkpt>
      <trkpt lat="47.9884" lon="7.17019">
        <ele>822</ele>
        <time>2018-06-14T15:56:22Z</time>
      </trkpt>
      <trkpt lat="47.98876" lon="7.17033">
        <ele>819.6</ele>
        <time>2018-06-14T15:56:33Z</time>
      </trkpt>
      <trkpt lat="47.98902" lon="7.17044">
        <ele>815.5</ele>
        <time>2018-06-14T15:56:42Z</time>
      </trkpt>
      <trkpt lat="47.98973" lon="7.17064">
        <ele>811.8</ele>
        <time>2018-06-14T15:57:04Z</time>
      </trkpt>
      <trkpt lat="47.98989" lon="7.17071">
        <ele>811.3</ele>
        <time>2018-06-14T15:57:09Z</time>
      </trkpt>
      <trkpt lat="47.99003" lon="7.17085">
        <ele>809.3</ele>
        <time>2018-06-14T15:57:15Z</time>
      </trkpt>
      <trkpt lat="47.99015" lon="7.17106">
        <ele>807.3</ele>
        <time>2018-06-14T15:57:20Z</time>
      </trkpt>
      <trkpt lat="47.99034" lon="7.17146">
        <ele>805.9</ele>
        <time>2018-06-14T15:57:30Z</time>
      </trkpt>
      <trkpt lat="47.99044" lon="7.17159">
        <ele>805.9</ele>
        <time>2018-06-14T15:57:35Z</time>
      </trkpt>
      <trkpt lat="47.99057" lon="7.17164">
        <ele>806</ele>
        <time>2018-06-14T15:57:39Z</time>
      </trkpt>
      <trkpt lat="47.99071" lon="7.1717">
        <ele>806</ele>
        <time>2018-06-14T15:57:43Z</time>
      </trkpt>
      <trkpt lat="47.99089" lon="7.17222">
        <ele>807.5</ele>
        <time>2018-06-14T15:57:56Z</time>
      </trkpt>
      <trkpt lat="47.99096" lon="7.17242">
        <ele>810.4</ele>
        <time>2018-06-14T15:58:00Z</time>
      </trkpt>
      <trkpt lat="47.99119" lon="7.17293">
        <ele>811.3</ele>
        <time>2018-06-14T15:58:13Z</time>
      </trkpt>
      <trkpt lat="47.9914" lon="7.17317">
        <ele>812.1</ele>
        <time>2018-06-14T15:58:21Z</time>
      </trkpt>
      <trkpt lat="47.99153" lon="7.17336">
        <ele>809</ele>
        <time>2018-06-14T15:58:27Z</time>
      </trkpt>
      <trkpt lat="47.99169" lon="7.17364">
        <ele>805.9</ele>
        <time>2018-06-14T15:58:34Z</time>
      </trkpt>
      <trkpt lat="47.99179" lon="7.17379">
        <ele>805.1</ele>
        <time>2018-06-14T15:58:39Z</time>
      </trkpt>
      <trkpt lat="47.99202" lon="7.17413">
        <ele>801.3</ele>
        <time>2018-06-14T15:58:49Z</time>
      </trkpt>
      <trkpt lat="47.99214" lon="7.17431">
        <ele>800.4</ele>
        <time>2018-06-14T15:58:54Z</time>
      </trkpt>
      <trkpt lat="47.99233" lon="7.17455">
        <ele>799.1</ele>
        <time>2018-06-14T15:59:02Z</time>
      </trkpt>
      <trkpt lat="47.99273" lon="7.17492">
        <ele>794.6</ele>
        <time>2018-06-14T15:59:16Z</time>
      </trkpt>
      <trkpt lat="47.99286" lon="7.17511">
        <ele>791.7</ele>
        <time>2018-06-14T15:59:22Z</time>
      </trkpt>
      <trkpt lat="47.99294" lon="7.17547">
        <ele>786.6</ele>
        <time>2018-06-14T15:59:30Z</time>
      </trkpt>
      <trkpt lat="47.99297" lon="7.17568">
        <ele>784</ele>
        <time>2018-06-14T15:59:34Z</time>
      </trkpt>
      <trkpt lat="47.99302" lon="7.17588">
        <ele>783.3</ele>
        <time>2018-06-14T15:59:39Z</time>
      </trkpt>
      <trkpt lat="47.99307" lon="7.17607">
        <ele>778.7</ele>
        <time>2018-06-14T15:59:43Z</time>
      </trkpt>
      <trkpt lat="47.9932" lon="7.17653">
        <ele>771.9</ele>
        <time>2018-06-14T15:59:53Z</time>
      </trkpt>
      <trkpt lat="47.99325" lon="7.17702">
        <ele>765.9</ele>
        <time>2018-06-14T16:00:04Z</time>
      </trkpt>
      <trkpt lat="47.99328" lon="7.17742">
        <ele>765.5</ele>
        <time>2018-06-14T16:00:12Z</time>
      </trkpt>
      <trkpt lat="47.99332" lon="7.17763">
        <ele>765.7</ele>
        <time>2018-06-14T16:00:17Z</time>
      </trkpt>
      <trkpt lat="47.99342" lon="7.17786">
        <ele>764.8</ele>
        <time>2018-06-14T16:00:22Z</time>
      </trkpt>
      <trkpt lat="47.99349" lon="7.17804">
        <ele>761.8</ele>
        <time>2018-06-14T16:00:27Z</time>
      </trkpt>
      <trkpt lat="47.99354" lon="7.17825">
        <ele>759.8</ele>
        <time>2018-06-14T16:00:31Z</time>
      </trkpt>
      <trkpt lat="47.99363" lon="7.1785">
        <ele>758.6</ele>
        <time>2018-06-14T16:00:37Z</time>
      </trkpt>
      <trkpt lat="47.99377" lon="7.17868">
        <ele>758.3</ele>
        <time>2018-06-14T16:00:43Z</time>
      </trkpt>
      <trkpt lat="47.99392" lon="7.17887">
        <ele>754.9</ele>
        <time>2018-06-14T16:00:49Z</time>
      </trkpt>
      <trkpt lat="47.99403" lon="7.17905">
        <ele>753.5</ele>
        <time>2018-06-14T16:00:54Z</time>
      </trkpt>
      <trkpt lat="47.99417" lon="7.17941">
        <ele>751.5</ele>
        <time>2018-06-14T16:01:03Z</time>
      </trkpt>
      <trkpt lat="47.99437" lon="7.17986">
        <ele>745.1</ele>
        <time>2018-06-14T16:01:14Z</time>
      </trkpt>
      <trkpt lat="47.99446" lon="7.18003">
        <ele>744.1</ele>
        <time>2018-06-14T16:01:19Z</time>
      </trkpt>
      <trkpt lat="47.9946" lon="7.18017">
        <ele>741.5</ele>
        <time>2018-06-14T16:01:24Z</time>
      </trkpt>
      <trkpt lat="47.99478" lon="7.18018">
        <ele>740.6</ele>
        <time>2018-06-14T16:01:30Z</time>
      </trkpt>
      <trkpt lat="47.99494" lon="7.18028">
        <ele>737.2</ele>
        <time>2018-06-14T16:01:35Z</time>
      </trkpt>
      <trkpt lat="47.99529" lon="7.1806">
        <ele>736.2</ele>
        <time>2018-06-14T16:01:47Z</time>
      </trkpt>
      <trkpt lat="47.99526" lon="7.18045">
        <ele>736.3</ele>
        <time>2018-06-14T16:01:51Z</time>
      </trkpt>
      <trkpt lat="47.99535" lon="7.18062">
        <ele>736.1</ele>
        <time>2018-06-14T16:01:55Z</time>
      </trkpt>
      <trkpt lat="47.99548" lon="7.18073">
        <ele>734.9</ele>
        <time>2018-06-14T16:02:00Z</time>
      </trkpt>
      <trkpt lat="47.99576" lon="7.18085">
        <ele>732.8</ele>
        <time>2018-06-14T16:02:09Z</time>
      </trkpt>
      <trkpt lat="47.99599" lon="7.18088">
        <ele>730.3</ele>
        <time>2018-06-14T16:02:16Z</time>
      </trkpt>
      <trkpt lat="47.99635" lon="7.18105">
        <ele>729.4</ele>
        <time>2018-06-14T16:02:28Z</time>
      </trkpt>
      <trkpt lat="47.9965" lon="7.18123">
        <ele>727.7</ele>
        <time>2018-06-14T16:02:34Z</time>
      </trkpt>
      <trkpt lat="47.99661" lon="7.18144">
        <ele>727.8</ele>
        <time>2018-06-14T16:02:39Z</time>
      </trkpt>
      <trkpt lat="47.99694" lon="7.18186">
        <ele>727.8</ele>
        <time>2018-06-14T16:02:53Z</time>
      </trkpt>
      <trkpt lat="47.99736" lon="7.18229">
        <ele>725.7</ele>
        <time>2018-06-14T16:03:09Z</time>
      </trkpt>
      <trkpt lat="47.99751" lon="7.1825">
        <ele>725.7</ele>
        <time>2018-06-14T16:03:15Z</time>
      </trkpt>
      <trkpt lat="47.99768" lon="7.18289">
        <ele>724.8</ele>
        <time>2018-06-14T16:03:25Z</time>
      </trkpt>
      <trkpt lat="47.99775" lon="7.18313">
        <ele>723.5</ele>
        <time>2018-06-14T16:03:30Z</time>
      </trkpt>
      <trkpt lat="47.99785" lon="7.18337">
        <ele>723.5</ele>
        <time>2018-06-14T16:03:36Z</time>
      </trkpt>
      <trkpt lat="47.99796" lon="7.18358">
        <ele>723.5</ele>
        <time>2018-06-14T16:03:42Z</time>
      </trkpt>
      <trkpt lat="47.99803" lon="7.18377">
        <ele>722.8</ele>
        <time>2018-06-14T16:03:46Z</time>
      </trkpt>
      <trkpt lat="47.99821" lon="7.18416">
        <ele>722.7</ele>
        <time>2018-06-14T16:03:56Z</time>
      </trkpt>
      <trkpt lat="47.99848" lon="7.18446">
        <ele>722.7</ele>
        <time>2018-06-14T16:04:06Z</time>
      </trkpt>
      <trkpt lat="47.99903" lon="7.18495">
        <ele>722.7</ele>
        <time>2018-06-14T16:04:26Z</time>
      </trkpt>
      <trkpt lat="47.99939" lon="7.18524">
        <ele>722.6</ele>
        <time>2018-06-14T16:04:39Z</time>
      </trkpt>
      <trkpt lat="47.99954" lon="7.1857">
        <ele>727.2</ele>
        <time>2018-06-14T16:04:50Z</time>
      </trkpt>
      <trkpt lat="47.99963" lon="7.18613">
        <ele>728.7</ele>
        <time>2018-06-14T16:04:59Z</time>
      </trkpt>
      <trkpt lat="47.99968" lon="7.18638">
        <ele>730.4</ele>
        <time>2018-06-14T16:05:04Z</time>
      </trkpt>
      <trkpt lat="47.99979" lon="7.18694">
        <ele>733.1</ele>
        <time>2018-06-14T16:05:17Z</time>
      </trkpt>
      <trkpt lat="47.9999" lon="7.18737">
        <ele>734.8</ele>
        <time>2018-06-14T16:05:26Z</time>
      </trkpt>
      <trkpt lat="47.9999" lon="7.18758">
        <ele>735.6</ele>
        <time>2018-06-14T16:05:31Z</time>
      </trkpt>
      <trkpt lat="47.99989" lon="7.18779">
        <ele>735.5</ele>
        <time>2018-06-14T16:05:35Z</time>
      </trkpt>
      <trkpt lat="47.99991" lon="7.18832">
        <ele>740.3</ele>
        <time>2018-06-14T16:05:46Z</time>
      </trkpt>
      <trkpt lat="47.99999" lon="7.18851">
        <ele>741.2</ele>
        <time>2018-06-14T16:05:51Z</time>
      </trkpt>
      <trkpt lat="48.00011" lon="7.18874">
        <ele>743.7</ele>
        <time>2018-06-14T16:05:57Z</time>
      </trkpt>
      <trkpt lat="48.00019" lon="7.18889">
        <ele>744.4</ele>
        <time>2018-06-14T16:06:01Z</time>
      </trkpt>
      <trkpt lat="48.00029" lon="7.18933">
        <ele>741.7</ele>
        <time>2018-06-14T16:06:10Z</time>
      </trkpt>
      <trkpt lat="48.0004" lon="7.18989">
        <ele>741.4</ele>
        <time>2018-06-14T16:06:22Z</time>
      </trkpt>
      <trkpt lat="48.00058" lon="7.19053">
        <ele>740.5</ele>
        <time>2018-06-14T16:06:37Z</time>
      </trkpt>
      <trkpt lat="48.00067" lon="7.1909">
        <ele>742.7</ele>
        <time>2018-06-14T16:06:45Z</time>
      </trkpt>
      <trkpt lat="48.00072" lon="7.19112">
        <ele>742.6</ele>
        <time>2018-06-14T16:06:50Z</time>
      </trkpt>
      <trkpt lat="48.00075" lon="7.19132">
        <ele>743.8</ele>
        <time>2018-06-14T16:06:54Z</time>
      </trkpt>
      <trkpt lat="48.0007" lon="7.192">
        <ele>744.2</ele>
        <time>2018-06-14T16:07:08Z</time>
      </trkpt>
      <trkpt lat="48.00074" lon="7.19265">
        <ele>746.7</ele>
        <time>2018-06-14T16:07:22Z</time>
      </trkpt>
      <trkpt lat="48.00085" lon="7.19295">
        <ele>749.3</ele>
        <time>2018-06-14T16:07:29Z</time>
      </trkpt>
      <trkpt lat="48.00093" lon="7.19314">
        <ele>749.1</ele>
        <time>2018-06-14T16:07:34Z</time>
      </trkpt>
      <trkpt lat="48.00101" lon="7.19331">
        <ele>750</ele>
        <time>2018-06-14T16:07:38Z</time>
      </trkpt>
      <trkpt lat="48.00132" lon="7.19395">
        <ele>750.2</ele>
        <time>2018-06-14T16:07:55Z</time>
      </trkpt>
      <trkpt lat="48.00146" lon="7.1943">
        <ele>750</ele>
        <time>2018-06-14T16:08:03Z</time>
      </trkpt>
      <trkpt lat="48.00159" lon="7.19473">
        <ele>747.3</ele>
        <time>2018-06-14T16:08:13Z</time>
      </trkpt>
      <trkpt lat="48.00166" lon="7.19509">
        <ele>747.1</ele>
        <time>2018-06-14T16:08:21Z</time>
      </trkpt>
      <trkpt lat="48.00178" lon="7.19549">
        <ele>745.8</ele>
        <time>2018-06-14T16:08:29Z</time>
      </trkpt>
      <trkpt lat="48.00179" lon="7.1958">
        <ele>742.4</ele>
        <time>2018-06-14T16:08:36Z</time>
      </trkpt>
      <trkpt lat="48.00202" lon="7.19658">
        <ele>737.9</ele>
        <time>2018-06-14T16:08:54Z</time>
      </trkpt>
      <trkpt lat="48.00211" lon="7.19677">
        <ele>737.1</ele>
        <time>2018-06-14T16:08:59Z</time>
      </trkpt>
      <trkpt lat="48.0022" lon="7.19694">
        <ele>737.2</ele>
        <time>2018-06-14T16:09:03Z</time>
      </trkpt>
      <trkpt lat="48.0023" lon="7.19715">
        <ele>737.1</ele>
        <time>2018-06-14T16:09:08Z</time>
      </trkpt>
      <trkpt lat="48.00243" lon="7.19731">
        <ele>736.3</ele>
        <time>2018-06-14T16:09:14Z</time>
      </trkpt>
      <trkpt lat="48.0026" lon="7.19757">
        <ele>739.5</ele>
        <time>2018-06-14T16:09:21Z</time>
      </trkpt>
      <trkpt lat="48.00288" lon="7.19813">
        <ele>740.6</ele>
        <time>2018-06-14T16:09:36Z</time>
      </trkpt>
      <trkpt lat="48.00311" lon="7.19869">
        <ele>740.5</ele>
        <time>2018-06-14T16:09:49Z</time>
      </trkpt>
      <trkpt lat="48.00323" lon="7.19914">
        <ele>738.2</ele>
        <time>2018-06-14T16:09:59Z</time>
      </trkpt>
      <trkpt lat="48.0033" lon="7.19933">
        <ele>737</ele>
        <time>2018-06-14T16:10:04Z</time>
      </trkpt>
      <trkpt lat="48.00336" lon="7.19953">
        <ele>736.2</ele>
        <time>2018-06-14T16:10:08Z</time>
      </trkpt>
      <trkpt lat="48.00346" lon="7.19977">
        <ele>734.9</ele>
        <time>2018-06-14T16:10:14Z</time>
      </trkpt>
      <trkpt lat="48.00371" lon="7.20042">
        <ele>734.3</ele>
        <time>2018-06-14T16:10:30Z</time>
      </trkpt>
      <trkpt lat="48.00378" lon="7.20065">
        <ele>733</ele>
        <time>2018-06-14T16:10:35Z</time>
      </trkpt>
      <trkpt lat="48.00386" lon="7.20081">
        <ele>733.1</ele>
        <time>2018-06-14T16:10:39Z</time>
      </trkpt>
      <trkpt lat="48.00407" lon="7.20123">
        <ele>733.2</ele>
        <time>2018-06-14T16:10:50Z</time>
      </trkpt>
      <trkpt lat="48.00416" lon="7.20139">
        <ele>733.2</ele>
        <time>2018-06-14T16:10:55Z</time>
      </trkpt>
      <trkpt lat="48.00429" lon="7.20162">
        <ele>733.1</ele>
        <time>2018-06-14T16:11:01Z</time>
      </trkpt>
      <trkpt lat="48.00439" lon="7.20179">
        <ele>733</ele>
        <time>2018-06-14T16:11:06Z</time>
      </trkpt>
      <trkpt lat="48.00449" lon="7.20197">
        <ele>733.1</ele>
        <time>2018-06-14T16:11:10Z</time>
      </trkpt>
      <trkpt lat="48.00474" lon="7.20242">
        <ele>733</ele>
        <time>2018-06-14T16:11:23Z</time>
      </trkpt>
      <trkpt lat="48.00485" lon="7.20264">
        <ele>735.2</ele>
        <time>2018-06-14T16:11:28Z</time>
      </trkpt>
      <trkpt lat="48.00494" lon="7.20286">
        <ele>736</ele>
        <time>2018-06-14T16:11:34Z</time>
      </trkpt>
      <trkpt lat="48.00519" lon="7.20313">
        <ele>735.8</ele>
        <time>2018-06-14T16:11:43Z</time>
      </trkpt>
      <trkpt lat="48.00549" lon="7.20312">
        <ele>735.8</ele>
        <time>2018-06-14T16:11:53Z</time>
      </trkpt>
      <trkpt lat="48.00589" lon="7.20318">
        <ele>735.8</ele>
        <time>2018-06-14T16:12:05Z</time>
      </trkpt>
      <trkpt lat="48.00602" lon="7.20327">
        <ele>735.8</ele>
        <time>2018-06-14T16:12:10Z</time>
      </trkpt>
      <trkpt lat="48.00615" lon="7.20339">
        <ele>735.7</ele>
        <time>2018-06-14T16:12:14Z</time>
      </trkpt>
      <trkpt lat="48.00624" lon="7.20353">
        <ele>735.8</ele>
        <time>2018-06-14T16:12:18Z</time>
      </trkpt>
      <trkpt lat="48.00637" lon="7.2036">
        <ele>735.8</ele>
        <time>2018-06-14T16:12:23Z</time>
      </trkpt>
      <trkpt lat="48.00652" lon="7.20351">
        <ele>735.8</ele>
        <time>2018-06-14T16:12:28Z</time>
      </trkpt>
      <trkpt lat="48.00665" lon="7.20343">
        <ele>735.8</ele>
        <time>2018-06-14T16:12:32Z</time>
      </trkpt>
      <trkpt lat="48.00691" lon="7.20318">
        <ele>738.1</ele>
        <time>2018-06-14T16:12:42Z</time>
      </trkpt>
      <trkpt lat="48.00716" lon="7.20292">
        <ele>739.4</ele>
        <time>2018-06-14T16:12:51Z</time>
      </trkpt>
      <trkpt lat="48.00747" lon="7.20272">
        <ele>741.5</ele>
        <time>2018-06-14T16:13:02Z</time>
      </trkpt>
      <trkpt lat="48.0077" lon="7.20265">
        <ele>742.3</ele>
        <time>2018-06-14T16:13:09Z</time>
      </trkpt>
      <trkpt lat="48.0081" lon="7.20253">
        <ele>744.4</ele>
        <time>2018-06-14T16:13:21Z</time>
      </trkpt>
      <trkpt lat="48.00846" lon="7.20239">
        <ele>746.5</ele>
        <time>2018-06-14T16:13:33Z</time>
      </trkpt>
      <trkpt lat="48.00871" lon="7.20224">
        <ele>747.2</ele>
        <time>2018-06-14T16:13:41Z</time>
      </trkpt>
      <trkpt lat="48.00899" lon="7.20212">
        <ele>748.1</ele>
        <time>2018-06-14T16:13:51Z</time>
      </trkpt>
      <trkpt lat="48.00923" lon="7.20202">
        <ele>749.8</ele>
        <time>2018-06-14T16:13:58Z</time>
      </trkpt>
      <trkpt lat="48.00932" lon="7.20243">
        <ele>751.8</ele>
        <time>2018-06-14T16:14:07Z</time>
      </trkpt>
      <trkpt lat="48.00955" lon="7.20292">
        <ele>753.7</ele>
        <time>2018-06-14T16:14:20Z</time>
      </trkpt>
      <trkpt lat="48.00977" lon="7.20332">
        <ele>756.1</ele>
        <time>2018-06-14T16:14:30Z</time>
      </trkpt>
      <trkpt lat="48.01004" lon="7.20361">
        <ele>757.9</ele>
        <time>2018-06-14T16:14:41Z</time>
      </trkpt>
      <trkpt lat="48.01032" lon="7.20389">
        <ele>760.6</ele>
        <time>2018-06-14T16:14:51Z</time>
      </trkpt>
      <trkpt lat="48.01062" lon="7.20412">
        <ele>763.3</ele>
        <time>2018-06-14T16:15:02Z</time>
      </trkpt>
      <trkpt lat="48.01089" lon="7.20425">
        <ele>765.7</ele>
        <time>2018-06-14T16:15:11Z</time>
      </trkpt>
      <trkpt lat="48.01119" lon="7.20433">
        <ele>766.5</ele>
        <time>2018-06-14T16:15:20Z</time>
      </trkpt>
      <trkpt lat="48.01148" lon="7.20455">
        <ele>768.1</ele>
        <time>2018-06-14T16:15:30Z</time>
      </trkpt>
      <trkpt lat="48.01176" lon="7.20481">
        <ele>770.1</ele>
        <time>2018-06-14T16:15:40Z</time>
      </trkpt>
      <trkpt lat="48.01209" lon="7.20508">
        <ele>771.2</ele>
        <time>2018-06-14T16:15:52Z</time>
      </trkpt>
      <trkpt lat="48.01241" lon="7.20534">
        <ele>772.2</ele>
        <time>2018-06-14T16:16:04Z</time>
      </trkpt>
      <trkpt lat="48.01269" lon="7.20548">
        <ele>772.2</ele>
        <time>2018-06-14T16:16:13Z</time>
      </trkpt>
      <trkpt lat="48.01295" lon="7.20557">
        <ele>772.3</ele>
        <time>2018-06-14T16:16:21Z</time>
      </trkpt>
      <trkpt lat="48.01323" lon="7.20583">
        <ele>772.4</ele>
        <time>2018-06-14T16:16:31Z</time>
      </trkpt>
      <trkpt lat="48.01319" lon="7.20604">
        <ele>770</ele>
        <time>2018-06-14T16:16:36Z</time>
      </trkpt>
      <trkpt lat="48.01314" lon="7.20629">
        <ele>769.1</ele>
        <time>2018-06-14T16:16:41Z</time>
      </trkpt>
      <trkpt lat="48.01311" lon="7.20651">
        <ele>766.9</ele>
        <time>2018-06-14T16:16:46Z</time>
      </trkpt>
      <trkpt lat="48.01307" lon="7.20675">
        <ele>766</ele>
        <time>2018-06-14T16:16:51Z</time>
      </trkpt>
      <trkpt lat="48.01304" lon="7.20695">
        <ele>764.5</ele>
        <time>2018-06-14T16:16:55Z</time>
      </trkpt>
      <trkpt lat="48.013" lon="7.20727">
        <ele>760.6</ele>
        <time>2018-06-14T16:17:02Z</time>
      </trkpt>
      <trkpt lat="48.01297" lon="7.20775">
        <ele>756.6</ele>
        <time>2018-06-14T16:17:12Z</time>
      </trkpt>
      <trkpt lat="48.01298" lon="7.208">
        <ele>755.8</ele>
        <time>2018-06-14T16:17:17Z</time>
      </trkpt>
      <trkpt lat="48.01299" lon="7.20827">
        <ele>753</ele>
        <time>2018-06-14T16:17:23Z</time>
      </trkpt>
      <trkpt lat="48.013" lon="7.20857">
        <ele>750.7</ele>
        <time>2018-06-14T16:17:29Z</time>
      </trkpt>
      <trkpt lat="48.01306" lon="7.20918">
        <ele>747.7</ele>
        <time>2018-06-14T16:17:42Z</time>
      </trkpt>
      <trkpt lat="48.01318" lon="7.20977">
        <ele>745.7</ele>
        <time>2018-06-14T16:17:55Z</time>
      </trkpt>
      <trkpt lat="48.01324" lon="7.21003">
        <ele>744.1</ele>
        <time>2018-06-14T16:18:00Z</time>
      </trkpt>
      <trkpt lat="48.01346" lon="7.21063">
        <ele>743.2</ele>
        <time>2018-06-14T16:18:15Z</time>
      </trkpt>
      <trkpt lat="48.01356" lon="7.21095">
        <ele>743.4</ele>
        <time>2018-06-14T16:18:22Z</time>
      </trkpt>
      <trkpt lat="48.01366" lon="7.2111">
        <ele>743.3</ele>
        <time>2018-06-14T16:18:26Z</time>
      </trkpt>
      <trkpt lat="48.01377" lon="7.21103">
        <ele>744.8</ele>
        <time>2018-06-14T16:18:30Z</time>
      </trkpt>
      <trkpt lat="48.01409" lon="7.21113">
        <ele>744.7</ele>
        <time>2018-06-14T16:18:40Z</time>
      </trkpt>
      <trkpt lat="48.01438" lon="7.21126">
        <ele>746.1</ele>
        <time>2018-06-14T16:18:50Z</time>
      </trkpt>
      <trkpt lat="48.0147" lon="7.21148">
        <ele>748.1</ele>
        <time>2018-06-14T16:19:00Z</time>
      </trkpt>
      <trkpt lat="48.0149" lon="7.21173">
        <ele>749</ele>
        <time>2018-06-14T16:19:09Z</time>
      </trkpt>
      <trkpt lat="48.01511" lon="7.21211">
        <ele>748.8</ele>
        <time>2018-06-14T16:19:19Z</time>
      </trkpt>
      <trkpt lat="48.01523" lon="7.21243">
        <ele>748.8</ele>
        <time>2018-06-14T16:19:27Z</time>
      </trkpt>
      <trkpt lat="48.01543" lon="7.21282">
        <ele>746.5</ele>
        <time>2018-06-14T16:19:37Z</time>
      </trkpt>
      <trkpt lat="48.01552" lon="7.213">
        <ele>746.5</ele>
        <time>2018-06-14T16:19:41Z</time>
      </trkpt>
      <trkpt lat="48.01561" lon="7.21318">
        <ele>746.5</ele>
        <time>2018-06-14T16:19:46Z</time>
      </trkpt>
      <trkpt lat="48.01569" lon="7.2134">
        <ele>746.4</ele>
        <time>2018-06-14T16:19:51Z</time>
      </trkpt>
      <trkpt lat="48.01577" lon="7.21356">
        <ele>746.4</ele>
        <time>2018-06-14T16:19:55Z</time>
      </trkpt>
      <trkpt lat="48.01597" lon="7.21422">
        <ele>748.6</ele>
        <time>2018-06-14T16:20:10Z</time>
      </trkpt>
      <trkpt lat="48.01607" lon="7.2146">
        <ele>749.9</ele>
        <time>2018-06-14T16:20:19Z</time>
      </trkpt>
      <trkpt lat="48.01621" lon="7.21506">
        <ele>750.7</ele>
        <time>2018-06-14T16:20:30Z</time>
      </trkpt>
      <trkpt lat="48.01644" lon="7.21534">
        <ele>752.7</ele>
        <time>2018-06-14T16:20:39Z</time>
      </trkpt>
      <trkpt lat="48.01687" lon="7.21551">
        <ele>753.5</ele>
        <time>2018-06-14T16:20:52Z</time>
      </trkpt>
      <trkpt lat="48.01726" lon="7.21547">
        <ele>753.4</ele>
        <time>2018-06-14T16:21:05Z</time>
      </trkpt>
      <trkpt lat="48.01739" lon="7.21546">
        <ele>753.3</ele>
        <time>2018-06-14T16:21:09Z</time>
      </trkpt>
      <trkpt lat="48.01755" lon="7.21547">
        <ele>750.3</ele>
        <time>2018-06-14T16:21:13Z</time>
      </trkpt>
      <trkpt lat="48.0177" lon="7.21545">
        <ele>749.4</ele>
        <time>2018-06-14T16:21:18Z</time>
      </trkpt>
      <trkpt lat="48.01788" lon="7.21543">
        <ele>748.2</ele>
        <time>2018-06-14T16:21:24Z</time>
      </trkpt>
      <trkpt lat="48.01815" lon="7.21536">
        <ele>748.2</ele>
        <time>2018-06-14T16:21:32Z</time>
      </trkpt>
      <trkpt lat="48.01865" lon="7.21534">
        <ele>748.3</ele>
        <time>2018-06-14T16:21:48Z</time>
      </trkpt>
      <trkpt lat="48.0191" lon="7.2153">
        <ele>746.5</ele>
        <time>2018-06-14T16:22:02Z</time>
      </trkpt>
      <trkpt lat="48.01938" lon="7.21528">
        <ele>745.6</ele>
        <time>2018-06-14T16:22:11Z</time>
      </trkpt>
      <trkpt lat="48.01955" lon="7.21523">
        <ele>745.6</ele>
        <time>2018-06-14T16:22:16Z</time>
      </trkpt>
      <trkpt lat="48.01969" lon="7.2152">
        <ele>745.6</ele>
        <time>2018-06-14T16:22:21Z</time>
      </trkpt>
      <trkpt lat="48.01986" lon="7.21516">
        <ele>748.1</ele>
        <time>2018-06-14T16:22:26Z</time>
      </trkpt>
      <trkpt lat="48.02029" lon="7.21504">
        <ele>750.4</ele>
        <time>2018-06-14T16:22:39Z</time>
      </trkpt>
      <trkpt lat="48.02065" lon="7.21488">
        <ele>752.4</ele>
        <time>2018-06-14T16:22:51Z</time>
      </trkpt>
      <trkpt lat="48.02106" lon="7.21461">
        <ele>754.6</ele>
        <time>2018-06-14T16:23:05Z</time>
      </trkpt>
      <trkpt lat="48.02145" lon="7.21432">
        <ele>756.9</ele>
        <time>2018-06-14T16:23:18Z</time>
      </trkpt>
      <trkpt lat="48.02169" lon="7.21421">
        <ele>758.8</ele>
        <time>2018-06-14T16:23:26Z</time>
      </trkpt>
      <trkpt lat="48.02182" lon="7.21424">
        <ele>758.5</ele>
        <time>2018-06-14T16:23:30Z</time>
      </trkpt>
      <trkpt lat="48.02187" lon="7.2148">
        <ele>755.9</ele>
        <time>2018-06-14T16:23:42Z</time>
      </trkpt>
      <trkpt lat="48.02191" lon="7.21503">
        <ele>754.6</ele>
        <time>2018-06-14T16:23:47Z</time>
      </trkpt>
      <trkpt lat="48.02194" lon="7.21523">
        <ele>754.6</ele>
        <time>2018-06-14T16:23:51Z</time>
      </trkpt>
      <trkpt lat="48.02199" lon="7.21567">
        <ele>757.2</ele>
        <time>2018-06-14T16:24:01Z</time>
      </trkpt>
      <trkpt lat="48.02204" lon="7.21609">
        <ele>758.2</ele>
        <time>2018-06-14T16:24:09Z</time>
      </trkpt>
      <trkpt lat="48.02205" lon="7.21633">
        <ele>760.1</ele>
        <time>2018-06-14T16:24:14Z</time>
      </trkpt>
      <trkpt lat="48.02214" lon="7.21682">
        <ele>761.7</ele>
        <time>2018-06-14T16:24:25Z</time>
      </trkpt>
      <trkpt lat="48.02221" lon="7.21746">
        <ele>764.5</ele>
        <time>2018-06-14T16:24:38Z</time>
      </trkpt>
      <trkpt lat="48.0223" lon="7.21791">
        <ele>766.4</ele>
        <time>2018-06-14T16:24:48Z</time>
      </trkpt>
      <trkpt lat="48.02226" lon="7.21824">
        <ele>767.8</ele>
        <time>2018-06-14T16:24:55Z</time>
      </trkpt>
      <trkpt lat="48.02203" lon="7.21831">
        <ele>769.4</ele>
        <time>2018-06-14T16:25:02Z</time>
      </trkpt>
      <trkpt lat="48.02182" lon="7.21846">
        <ele>769.3</ele>
        <time>2018-06-14T16:25:09Z</time>
      </trkpt>
      <trkpt lat="48.02158" lon="7.21871">
        <ele>769.2</ele>
        <time>2018-06-14T16:25:19Z</time>
      </trkpt>
      <trkpt lat="48.02136" lon="7.21902">
        <ele>769.1</ele>
        <time>2018-06-14T16:25:28Z</time>
      </trkpt>
      <trkpt lat="48.02114" lon="7.21941">
        <ele>771.1</ele>
        <time>2018-06-14T16:25:39Z</time>
      </trkpt>
      <trkpt lat="48.02093" lon="7.21989">
        <ele>772</ele>
        <time>2018-06-14T16:25:50Z</time>
      </trkpt>
      <trkpt lat="48.02082" lon="7.22048">
        <ele>772</ele>
        <time>2018-06-14T16:26:03Z</time>
      </trkpt>
      <trkpt lat="48.02078" lon="7.2209">
        <ele>772</ele>
        <time>2018-06-14T16:26:12Z</time>
      </trkpt>
      <trkpt lat="48.02078" lon="7.22112">
        <ele>772</ele>
        <time>2018-06-14T16:26:17Z</time>
      </trkpt>
      <trkpt lat="48.0209" lon="7.22172">
        <ele>769.6</ele>
        <time>2018-06-14T16:26:30Z</time>
      </trkpt>
      <trkpt lat="48.0212" lon="7.22229">
        <ele>767.8</ele>
        <time>2018-06-14T16:26:45Z</time>
      </trkpt>
      <trkpt lat="48.0214" lon="7.22265">
        <ele>767.8</ele>
        <time>2018-06-14T16:26:54Z</time>
      </trkpt>
      <trkpt lat="48.02148" lon="7.22285">
        <ele>767.8</ele>
        <time>2018-06-14T16:26:59Z</time>
      </trkpt>
      <trkpt lat="48.02149" lon="7.22307">
        <ele>766.7</ele>
        <time>2018-06-14T16:27:04Z</time>
      </trkpt>
      <trkpt lat="48.02147" lon="7.22327">
        <ele>765.4</ele>
        <time>2018-06-14T16:27:08Z</time>
      </trkpt>
      <trkpt lat="48.02138" lon="7.22347">
        <ele>765.4</ele>
        <time>2018-06-14T16:27:13Z</time>
      </trkpt>
      <trkpt lat="48.02127" lon="7.22359">
        <ele>765.4</ele>
        <time>2018-06-14T16:27:17Z</time>
      </trkpt>
      <trkpt lat="48.02109" lon="7.22373">
        <ele>765.5</ele>
        <time>2018-06-14T16:27:24Z</time>
      </trkpt>
      <trkpt lat="48.0209" lon="7.22387">
        <ele>761.8</ele>
        <time>2018-06-14T16:27:30Z</time>
      </trkpt>
      <trkpt lat="48.02077" lon="7.22401">
        <ele>764.9</ele>
        <time>2018-06-14T16:27:35Z</time>
      </trkpt>
      <trkpt lat="48.02039" lon="7.2245">
        <ele>765</ele>
        <time>2018-06-14T16:27:51Z</time>
      </trkpt>
      <trkpt lat="48.02029" lon="7.22469">
        <ele>762.7</ele>
        <time>2018-06-14T16:27:56Z</time>
      </trkpt>
      <trkpt lat="48.02025" lon="7.22495">
        <ele>762.7</ele>
        <time>2018-06-14T16:28:01Z</time>
      </trkpt>
      <trkpt lat="48.02024" lon="7.22539">
        <ele>761.6</ele>
        <time>2018-06-14T16:28:11Z</time>
      </trkpt>
      <trkpt lat="48.02022" lon="7.22593">
        <ele>761.6</ele>
        <time>2018-06-14T16:28:22Z</time>
      </trkpt>
      <trkpt lat="48.02024" lon="7.22642">
        <ele>760.9</ele>
        <time>2018-06-14T16:28:32Z</time>
      </trkpt>
      <trkpt lat="48.0203" lon="7.2267">
        <ele>760</ele>
        <time>2018-06-14T16:28:38Z</time>
      </trkpt>
      <trkpt lat="48.02039" lon="7.22698">
        <ele>759</ele>
        <time>2018-06-14T16:28:45Z</time>
      </trkpt>
      <trkpt lat="48.02058" lon="7.22751">
        <ele>756.3</ele>
        <time>2018-06-14T16:28:57Z</time>
      </trkpt>
      <trkpt lat="48.02089" lon="7.22804">
        <ele>754.7</ele>
        <time>2018-06-14T16:29:12Z</time>
      </trkpt>
      <trkpt lat="48.02118" lon="7.22871">
        <ele>753.8</ele>
        <time>2018-06-14T16:29:28Z</time>
      </trkpt>
      <trkpt lat="48.02124" lon="7.2289">
        <ele>753.8</ele>
        <time>2018-06-14T16:29:33Z</time>
      </trkpt>
      <trkpt lat="48.02128" lon="7.22948">
        <ele>752.7</ele>
        <time>2018-06-14T16:29:45Z</time>
      </trkpt>
      <trkpt lat="48.02133" lon="7.22977">
        <ele>751.9</ele>
        <time>2018-06-14T16:29:51Z</time>
      </trkpt>
      <trkpt lat="48.02153" lon="7.23033">
        <ele>749.9</ele>
        <time>2018-06-14T16:30:04Z</time>
      </trkpt>
      <trkpt lat="48.02161" lon="7.2305">
        <ele>749.9</ele>
        <time>2018-06-14T16:30:09Z</time>
      </trkpt>
      <trkpt lat="48.02216" lon="7.23116">
        <ele>748.1</ele>
        <time>2018-06-14T16:30:30Z</time>
      </trkpt>
      <trkpt lat="48.02239" lon="7.2315">
        <ele>747.1</ele>
        <time>2018-06-14T16:30:40Z</time>
      </trkpt>
      <trkpt lat="48.0225" lon="7.23176">
        <ele>746.3</ele>
        <time>2018-06-14T16:30:47Z</time>
      </trkpt>
      <trkpt lat="48.02262" lon="7.23214">
        <ele>745</ele>
        <time>2018-06-14T16:30:56Z</time>
      </trkpt>
      <trkpt lat="48.02265" lon="7.23234">
        <ele>745</ele>
        <time>2018-06-14T16:31:00Z</time>
      </trkpt>
      <trkpt lat="48.02262" lon="7.23264">
        <ele>743.5</ele>
        <time>2018-06-14T16:31:06Z</time>
      </trkpt>
      <trkpt lat="48.02255" lon="7.23303">
        <ele>743.5</ele>
        <time>2018-06-14T16:31:14Z</time>
      </trkpt>
      <trkpt lat="48.0225" lon="7.23322">
        <ele>742.1</ele>
        <time>2018-06-14T16:31:19Z</time>
      </trkpt>
      <trkpt lat="48.02238" lon="7.23357">
        <ele>742.1</ele>
        <time>2018-06-14T16:31:27Z</time>
      </trkpt>
      <trkpt lat="48.02234" lon="7.23382">
        <ele>741.1</ele>
        <time>2018-06-14T16:31:32Z</time>
      </trkpt>
      <trkpt lat="48.02236" lon="7.23405">
        <ele>741.2</ele>
        <time>2018-06-14T16:31:37Z</time>
      </trkpt>
      <trkpt lat="48.02246" lon="7.23431">
        <ele>741.1</ele>
        <time>2018-06-14T16:31:43Z</time>
      </trkpt>
      <trkpt lat="48.02265" lon="7.23481">
        <ele>741</ele>
        <time>2018-06-14T16:31:55Z</time>
      </trkpt>
      <trkpt lat="48.02278" lon="7.23494">
        <ele>739.2</ele>
        <time>2018-06-14T16:32:00Z</time>
      </trkpt>
      <trkpt lat="48.02302" lon="7.23503">
        <ele>735.2</ele>
        <time>2018-06-14T16:32:08Z</time>
      </trkpt>
      <trkpt lat="48.02315" lon="7.2351">
        <ele>734</ele>
        <time>2018-06-14T16:32:12Z</time>
      </trkpt>
      <trkpt lat="48.02354" lon="7.23526">
        <ele>733.9</ele>
        <time>2018-06-14T16:32:25Z</time>
      </trkpt>
      <trkpt lat="48.02371" lon="7.23528">
        <ele>733.9</ele>
        <time>2018-06-14T16:32:30Z</time>
      </trkpt>
      <trkpt lat="48.02385" lon="7.23528">
        <ele>733.9</ele>
        <time>2018-06-14T16:32:34Z</time>
      </trkpt>
      <trkpt lat="48.02406" lon="7.2353">
        <ele>733.9</ele>
        <time>2018-06-14T16:32:41Z</time>
      </trkpt>
      <trkpt lat="48.02422" lon="7.23533">
        <ele>736.4</ele>
        <time>2018-06-14T16:32:46Z</time>
      </trkpt>
      <trkpt lat="48.02442" lon="7.23546">
        <ele>734.1</ele>
        <time>2018-06-14T16:32:53Z</time>
      </trkpt>
      <trkpt lat="48.02458" lon="7.23552">
        <ele>730.2</ele>
        <time>2018-06-14T16:32:58Z</time>
      </trkpt>
      <trkpt lat="48.02472" lon="7.23555">
        <ele>728.2</ele>
        <time>2018-06-14T16:33:02Z</time>
      </trkpt>
      <trkpt lat="48.02487" lon="7.23561">
        <ele>722.9</ele>
        <time>2018-06-14T16:33:07Z</time>
      </trkpt>
      <trkpt lat="48.02503" lon="7.2357">
        <ele>719</ele>
        <time>2018-06-14T16:33:12Z</time>
      </trkpt>
      <trkpt lat="48.02524" lon="7.23581">
        <ele>714.3</ele>
        <time>2018-06-14T16:33:19Z</time>
      </trkpt>
      <trkpt lat="48.02537" lon="7.23591">
        <ele>713</ele>
        <time>2018-06-14T16:33:24Z</time>
      </trkpt>
      <trkpt lat="48.02555" lon="7.23602">
        <ele>708.6</ele>
        <time>2018-06-14T16:33:30Z</time>
      </trkpt>
      <trkpt lat="48.02595" lon="7.23606">
        <ele>708.1</ele>
        <time>2018-06-14T16:33:42Z</time>
      </trkpt>
      <trkpt lat="48.02621" lon="7.23595">
        <ele>706</ele>
        <time>2018-06-14T16:33:51Z</time>
      </trkpt>
      <trkpt lat="48.02637" lon="7.23585">
        <ele>702.4</ele>
        <time>2018-06-14T16:33:56Z</time>
      </trkpt>
      <trkpt lat="48.0265" lon="7.23576">
        <ele>700.7</ele>
        <time>2018-06-14T16:34:00Z</time>
      </trkpt>
      <trkpt lat="48.02675" lon="7.23564">
        <ele>698.7</ele>
        <time>2018-06-14T16:34:09Z</time>
      </trkpt>
      <trkpt lat="48.02698" lon="7.23559">
        <ele>701.3</ele>
        <time>2018-06-14T16:34:16Z</time>
      </trkpt>
      <trkpt lat="48.02711" lon="7.23563">
        <ele>701.3</ele>
        <time>2018-06-14T16:34:20Z</time>
      </trkpt>
      <trkpt lat="48.0273" lon="7.23606">
        <ele>701.1</ele>
        <time>2018-06-14T16:34:31Z</time>
      </trkpt>
      <trkpt lat="48.02756" lon="7.23621">
        <ele>702.9</ele>
        <time>2018-06-14T16:34:40Z</time>
      </trkpt>
      <trkpt lat="48.02773" lon="7.2362">
        <ele>702.9</ele>
        <time>2018-06-14T16:34:45Z</time>
      </trkpt>
      <trkpt lat="48.02787" lon="7.23627">
        <ele>705.1</ele>
        <time>2018-06-14T16:34:49Z</time>
      </trkpt>
      <trkpt lat="48.02816" lon="7.23643">
        <ele>706.9</ele>
        <time>2018-06-14T16:34:59Z</time>
      </trkpt>
      <trkpt lat="48.0285" lon="7.23648">
        <ele>708.8</ele>
        <time>2018-06-14T16:35:10Z</time>
      </trkpt>
      <trkpt lat="48.02882" lon="7.23642">
        <ele>710.5</ele>
        <time>2018-06-14T16:35:20Z</time>
      </trkpt>
      <trkpt lat="48.0292" lon="7.23635">
        <ele>712.8</ele>
        <time>2018-06-14T16:35:31Z</time>
      </trkpt>
      <trkpt lat="48.02941" lon="7.23638">
        <ele>714.2</ele>
        <time>2018-06-14T16:35:38Z</time>
      </trkpt>
      <trkpt lat="48.02972" lon="7.23661">
        <ele>715</ele>
        <time>2018-06-14T16:35:49Z</time>
      </trkpt>
      <trkpt lat="48.03005" lon="7.23703">
        <ele>715.9</ele>
        <time>2018-06-14T16:36:02Z</time>
      </trkpt>
      <trkpt lat="48.03037" lon="7.23752">
        <ele>717.6</ele>
        <time>2018-06-14T16:36:16Z</time>
      </trkpt>
      <trkpt lat="48.03058" lon="7.23784">
        <ele>718.4</ele>
        <time>2018-06-14T16:36:26Z</time>
      </trkpt>
      <trkpt lat="48.03087" lon="7.23797">
        <ele>720.1</ele>
        <time>2018-06-14T16:36:35Z</time>
      </trkpt>
      <trkpt lat="48.031" lon="7.23787">
        <ele>720.1</ele>
        <time>2018-06-14T16:36:40Z</time>
      </trkpt>
      <trkpt lat="48.03111" lon="7.23775">
        <ele>720.1</ele>
        <time>2018-06-14T16:36:44Z</time>
      </trkpt>
      <trkpt lat="48.03132" lon="7.23747">
        <ele>720.1</ele>
        <time>2018-06-14T16:36:53Z</time>
      </trkpt>
      <trkpt lat="48.03163" lon="7.23715">
        <ele>717.4</ele>
        <time>2018-06-14T16:37:04Z</time>
      </trkpt>
      <trkpt lat="48.03177" lon="7.23717">
        <ele>717.4</ele>
        <time>2018-06-14T16:37:09Z</time>
      </trkpt>
      <trkpt lat="48.03195" lon="7.23728">
        <ele>717.4</ele>
        <time>2018-06-14T16:37:15Z</time>
      </trkpt>
      <trkpt lat="48.03211" lon="7.23744">
        <ele>717.4</ele>
        <time>2018-06-14T16:37:21Z</time>
      </trkpt>
      <trkpt lat="48.03225" lon="7.23755">
        <ele>717.4</ele>
        <time>2018-06-14T16:37:26Z</time>
      </trkpt>
      <trkpt lat="48.03254" lon="7.23764">
        <ele>717.4</ele>
        <time>2018-06-14T16:37:35Z</time>
      </trkpt>
      <trkpt lat="48.03269" lon="7.23762">
        <ele>716.5</ele>
        <time>2018-06-14T16:37:40Z</time>
      </trkpt>
      <trkpt lat="48.03285" lon="7.2376">
        <ele>716.5</ele>
        <time>2018-06-14T16:37:45Z</time>
      </trkpt>
      <trkpt lat="48.03315" lon="7.23753">
        <ele>716.5</ele>
        <time>2018-06-14T16:37:54Z</time>
      </trkpt>
      <trkpt lat="48.03332" lon="7.23759">
        <ele>716.5</ele>
        <time>2018-06-14T16:38:00Z</time>
      </trkpt>
      <trkpt lat="48.03351" lon="7.23768">
        <ele>716.6</ele>
        <time>2018-06-14T16:38:06Z</time>
      </trkpt>
      <trkpt lat="48.0339" lon="7.23774">
        <ele>716.5</ele>
        <time>2018-06-14T16:38:18Z</time>
      </trkpt>
      <trkpt lat="48.03413" lon="7.2377">
        <ele>716.5</ele>
        <time>2018-06-14T16:38:25Z</time>
      </trkpt>
      <trkpt lat="48.03437" lon="7.23771">
        <ele>716.5</ele>
        <time>2018-06-14T16:38:33Z</time>
      </trkpt>
      <trkpt lat="48.0345" lon="7.23777">
        <ele>716.5</ele>
        <time>2018-06-14T16:38:37Z</time>
      </trkpt>
      <trkpt lat="48.03462" lon="7.23795">
        <ele>715.7</ele>
        <time>2018-06-14T16:38:42Z</time>
      </trkpt>
      <trkpt lat="48.03473" lon="7.23831">
        <ele>715.7</ele>
        <time>2018-06-14T16:38:50Z</time>
      </trkpt>
      <trkpt lat="48.03481" lon="7.23856">
        <ele>715.6</ele>
        <time>2018-06-14T16:38:56Z</time>
      </trkpt>
      <trkpt lat="48.03488" lon="7.2388">
        <ele>715.6</ele>
        <time>2018-06-14T16:39:01Z</time>
      </trkpt>
      <trkpt lat="48.035" lon="7.23909">
        <ele>715.6</ele>
        <time>2018-06-14T16:39:09Z</time>
      </trkpt>
      <trkpt lat="48.0351" lon="7.23934">
        <ele>715.5</ele>
        <time>2018-06-14T16:39:15Z</time>
      </trkpt>
      <trkpt lat="48.03538" lon="7.23992">
        <ele>715.5</ele>
        <time>2018-06-14T16:39:30Z</time>
      </trkpt>
      <trkpt lat="48.03551" lon="7.24009">
        <ele>715.4</ele>
        <time>2018-06-14T16:39:35Z</time>
      </trkpt>
      <trkpt lat="48.03564" lon="7.24027">
        <ele>715.4</ele>
        <time>2018-06-14T16:39:40Z</time>
      </trkpt>
      <trkpt lat="48.03575" lon="7.24047">
        <ele>715.4</ele>
        <time>2018-06-14T16:39:46Z</time>
      </trkpt>
      <trkpt lat="48.03583" lon="7.2407">
        <ele>715.3</ele>
        <time>2018-06-14T16:39:51Z</time>
      </trkpt>
      <trkpt lat="48.03592" lon="7.24106">
        <ele>715.2</ele>
        <time>2018-06-14T16:39:59Z</time>
      </trkpt>
      <trkpt lat="48.03599" lon="7.24128">
        <ele>715.1</ele>
        <time>2018-06-14T16:40:04Z</time>
      </trkpt>
      <trkpt lat="48.0362" lon="7.24205">
        <ele>714.9</ele>
        <time>2018-06-14T16:40:22Z</time>
      </trkpt>
      <trkpt lat="48.03622" lon="7.24226">
        <ele>714.6</ele>
        <time>2018-06-14T16:40:26Z</time>
      </trkpt>
      <trkpt lat="48.03633" lon="7.24242">
        <ele>714.5</ele>
        <time>2018-06-14T16:40:31Z</time>
      </trkpt>
      <trkpt lat="48.03644" lon="7.24263">
        <ele>713.2</ele>
        <time>2018-06-14T16:40:36Z</time>
      </trkpt>
      <trkpt lat="48.03652" lon="7.24286">
        <ele>712.1</ele>
        <time>2018-06-14T16:40:42Z</time>
      </trkpt>
      <trkpt lat="48.03662" lon="7.24312">
        <ele>710.3</ele>
        <time>2018-06-14T16:40:48Z</time>
      </trkpt>
      <trkpt lat="48.03672" lon="7.2434">
        <ele>708.2</ele>
        <time>2018-06-14T16:40:54Z</time>
      </trkpt>
      <trkpt lat="48.0369" lon="7.24387">
        <ele>705.7</ele>
        <time>2018-06-14T16:41:06Z</time>
      </trkpt>
      <trkpt lat="48.03696" lon="7.24408">
        <ele>704.7</ele>
        <time>2018-06-14T16:41:10Z</time>
      </trkpt>
      <trkpt lat="48.03702" lon="7.24454">
        <ele>703.4</ele>
        <time>2018-06-14T16:41:20Z</time>
      </trkpt>
      <trkpt lat="48.03706" lon="7.24501">
        <ele>700.3</ele>
        <time>2018-06-14T16:41:30Z</time>
      </trkpt>
      <trkpt lat="48.03713" lon="7.24526">
        <ele>699.2</ele>
        <time>2018-06-14T16:41:36Z</time>
      </trkpt>
      <trkpt lat="48.03727" lon="7.2456">
        <ele>697.7</ele>
        <time>2018-06-14T16:41:44Z</time>
      </trkpt>
      <trkpt lat="48.03752" lon="7.24616">
        <ele>695</ele>
        <time>2018-06-14T16:41:58Z</time>
      </trkpt>
      <trkpt lat="48.03767" lon="7.24668">
        <ele>692</ele>
        <time>2018-06-14T16:42:10Z</time>
      </trkpt>
      <trkpt lat="48.03777" lon="7.24694">
        <ele>690.6</ele>
        <time>2018-06-14T16:42:16Z</time>
      </trkpt>
      <trkpt lat="48.03786" lon="7.24719">
        <ele>689.1</ele>
        <time>2018-06-14T16:42:22Z</time>
      </trkpt>
      <trkpt lat="48.03796" lon="7.24743">
        <ele>688.2</ele>
        <time>2018-06-14T16:42:28Z</time>
      </trkpt>
      <trkpt lat="48.03802" lon="7.24768">
        <ele>688.2</ele>
        <time>2018-06-14T16:42:33Z</time>
      </trkpt>
      <trkpt lat="48.03809" lon="7.24793">
        <ele>687.1</ele>
        <time>2018-06-14T16:42:39Z</time>
      </trkpt>
      <trkpt lat="48.0382" lon="7.24814">
        <ele>685.8</ele>
        <time>2018-06-14T16:42:44Z</time>
      </trkpt>
      <trkpt lat="48.03835" lon="7.24833">
        <ele>684.7</ele>
        <time>2018-06-14T16:42:50Z</time>
      </trkpt>
      <trkpt lat="48.03853" lon="7.24849">
        <ele>683.1</ele>
        <time>2018-06-14T16:42:57Z</time>
      </trkpt>
      <trkpt lat="48.03873" lon="7.24859">
        <ele>681.7</ele>
        <time>2018-06-14T16:43:03Z</time>
      </trkpt>
      <trkpt lat="48.03893" lon="7.24871">
        <ele>680.1</ele>
        <time>2018-06-14T16:43:10Z</time>
      </trkpt>
      <trkpt lat="48.03933" lon="7.24891">
        <ele>677.5</ele>
        <time>2018-06-14T16:43:23Z</time>
      </trkpt>
      <trkpt lat="48.03977" lon="7.24919">
        <ele>675.8</ele>
        <time>2018-06-14T16:43:38Z</time>
      </trkpt>
      <trkpt lat="48.0399" lon="7.24931">
        <ele>675.9</ele>
        <time>2018-06-14T16:43:43Z</time>
      </trkpt>
      <trkpt lat="48.04" lon="7.24949">
        <ele>676.5</ele>
        <time>2018-06-14T16:43:48Z</time>
      </trkpt>
      <trkpt lat="48.0404" lon="7.25075">
        <ele>673.2</ele>
        <time>2018-06-14T16:44:17Z</time>
      </trkpt>
      <trkpt lat="48.04054" lon="7.25145">
        <ele>671.4</ele>
        <time>2018-06-14T16:44:32Z</time>
      </trkpt>
      <trkpt lat="48.04061" lon="7.25165">
        <ele>670.6</ele>
        <time>2018-06-14T16:44:37Z</time>
      </trkpt>
      <trkpt lat="48.04076" lon="7.25193">
        <ele>668</ele>
        <time>2018-06-14T16:44:44Z</time>
      </trkpt>
      <trkpt lat="48.04082" lon="7.25213">
        <ele>668</ele>
        <time>2018-06-14T16:44:48Z</time>
      </trkpt>
      <trkpt lat="48.0409" lon="7.25244">
        <ele>670.4</ele>
        <time>2018-06-14T16:44:55Z</time>
      </trkpt>
      <trkpt lat="48.04096" lon="7.25267">
        <ele>667.1</ele>
        <time>2018-06-14T16:45:01Z</time>
      </trkpt>
      <trkpt lat="48.04105" lon="7.25303">
        <ele>665.4</ele>
        <time>2018-06-14T16:45:08Z</time>
      </trkpt>
      <trkpt lat="48.04112" lon="7.25329">
        <ele>665.5</ele>
        <time>2018-06-14T16:45:14Z</time>
      </trkpt>
      <trkpt lat="48.04119" lon="7.25355">
        <ele>662.4</ele>
        <time>2018-06-14T16:45:20Z</time>
      </trkpt>
      <trkpt lat="48.04124" lon="7.25382">
        <ele>661.6</ele>
        <time>2018-06-14T16:45:26Z</time>
      </trkpt>
      <trkpt lat="48.04129" lon="7.25407">
        <ele>662</ele>
        <time>2018-06-14T16:45:31Z</time>
      </trkpt>
      <trkpt lat="48.04137" lon="7.25427">
        <ele>664.5</ele>
        <time>2018-06-14T16:45:36Z</time>
      </trkpt>
      <trkpt lat="48.04135" lon="7.25479">
        <ele>664.8</ele>
        <time>2018-06-14T16:45:47Z</time>
      </trkpt>
      <trkpt lat="48.04133" lon="7.2551">
        <ele>666</ele>
        <time>2018-06-14T16:45:53Z</time>
      </trkpt>
      <trkpt lat="48.0415" lon="7.25512">
        <ele>665.8</ele>
        <time>2018-06-14T16:45:59Z</time>
      </trkpt>
      <trkpt lat="48.04164" lon="7.25519">
        <ele>665.9</ele>
        <time>2018-06-14T16:46:03Z</time>
      </trkpt>
      <trkpt lat="48.04188" lon="7.25544">
        <ele>664.8</ele>
        <time>2018-06-14T16:46:12Z</time>
      </trkpt>
      <trkpt lat="48.04195" lon="7.25562">
        <ele>661.4</ele>
        <time>2018-06-14T16:46:17Z</time>
      </trkpt>
      <trkpt lat="48.04208" lon="7.25575">
        <ele>658.6</ele>
        <time>2018-06-14T16:46:21Z</time>
      </trkpt>
      <trkpt lat="48.04222" lon="7.25588">
        <ele>654</ele>
        <time>2018-06-14T16:46:27Z</time>
      </trkpt>
      <trkpt lat="48.04234" lon="7.25599">
        <ele>652.9</ele>
        <time>2018-06-14T16:46:31Z</time>
      </trkpt>
      <trkpt lat="48.04245" lon="7.25611">
        <ele>652</ele>
        <time>2018-06-14T16:46:35Z</time>
      </trkpt>
      <trkpt lat="48.04255" lon="7.25625">
        <ele>650.9</ele>
        <time>2018-06-14T16:46:39Z</time>
      </trkpt>
      <trkpt lat="48.04272" lon="7.25642">
        <ele>646.9</ele>
        <time>2018-06-14T16:46:46Z</time>
      </trkpt>
      <trkpt lat="48.04285" lon="7.25651">
        <ele>645.9</ele>
        <time>2018-06-14T16:46:50Z</time>
      </trkpt>
      <trkpt lat="48.04301" lon="7.25661">
        <ele>644.3</ele>
        <time>2018-06-14T16:46:56Z</time>
      </trkpt>
      <trkpt lat="48.04317" lon="7.25664">
        <ele>641.3</ele>
        <time>2018-06-14T16:47:01Z</time>
      </trkpt>
      <trkpt lat="48.04333" lon="7.25661">
        <ele>640.3</ele>
        <time>2018-06-14T16:47:06Z</time>
      </trkpt>
      <trkpt lat="48.04366" lon="7.25635">
        <ele>633.3</ele>
        <time>2018-06-14T16:47:17Z</time>
      </trkpt>
      <trkpt lat="48.0439" lon="7.25607">
        <ele>632.6</ele>
        <time>2018-06-14T16:47:27Z</time>
      </trkpt>
      <trkpt lat="48.04431" lon="7.25613">
        <ele>641.2</ele>
        <time>2018-06-14T16:47:39Z</time>
      </trkpt>
      <trkpt lat="48.04457" lon="7.25655">
        <ele>641.3</ele>
        <time>2018-06-14T16:47:51Z</time>
      </trkpt>
      <trkpt lat="48.04487" lon="7.25696">
        <ele>644.5</ele>
        <time>2018-06-14T16:48:04Z</time>
      </trkpt>
      <trkpt lat="48.04532" lon="7.25716">
        <ele>652.4</ele>
        <time>2018-06-14T16:48:19Z</time>
      </trkpt>
      <trkpt lat="48.04587" lon="7.25733">
        <ele>657</ele>
        <time>2018-06-14T16:48:36Z</time>
      </trkpt>
      <trkpt lat="48.04633" lon="7.25753">
        <ele>657.1</ele>
        <time>2018-06-14T16:48:51Z</time>
      </trkpt>
      <trkpt lat="48.04662" lon="7.25791">
        <ele>654.8</ele>
        <time>2018-06-14T16:49:03Z</time>
      </trkpt>
      <trkpt lat="48.04699" lon="7.25846">
        <ele>656.1</ele>
        <time>2018-06-14T16:49:19Z</time>
      </trkpt>
      <trkpt lat="48.04718" lon="7.25911">
        <ele>654</ele>
        <time>2018-06-14T16:49:34Z</time>
      </trkpt>
      <trkpt lat="48.04747" lon="7.26016">
        <ele>643.1</ele>
        <time>2018-06-14T16:49:58Z</time>
      </trkpt>
      <trkpt lat="48.04767" lon="7.26037">
        <ele>640.4</ele>
        <time>2018-06-14T16:50:05Z</time>
      </trkpt>
      <trkpt lat="48.04828" lon="7.26066">
        <ele>629.5</ele>
        <time>2018-06-14T16:50:25Z</time>
      </trkpt>
      <trkpt lat="48.04853" lon="7.26083">
        <ele>623.7</ele>
        <time>2018-06-14T16:50:34Z</time>
      </trkpt>
      <trkpt lat="48.0494" lon="7.26098">
        <ele>622.1</ele>
        <time>2018-06-14T16:51:01Z</time>
      </trkpt>
      <trkpt lat="48.04971" lon="7.26196">
        <ele>621.6</ele>
        <time>2018-06-14T16:51:23Z</time>
      </trkpt>
      <trkpt lat="48.04986" lon="7.2623">
        <ele>620.2</ele>
        <time>2018-06-14T16:51:32Z</time>
      </trkpt>
      <trkpt lat="48.0499" lon="7.26269">
        <ele>617.8</ele>
        <time>2018-06-14T16:51:40Z</time>
      </trkpt>
      <trkpt lat="48.05022" lon="7.26298">
        <ele>615.2</ele>
        <time>2018-06-14T16:51:52Z</time>
      </trkpt>
      <trkpt lat="48.05067" lon="7.26365">
        <ele>610.2</ele>
        <time>2018-06-14T16:52:11Z</time>
      </trkpt>
      <trkpt lat="48.05094" lon="7.26426">
        <ele>605</ele>
        <time>2018-06-14T16:52:27Z</time>
      </trkpt>
      <trkpt lat="48.05101" lon="7.26464">
        <ele>602.9</ele>
        <time>2018-06-14T16:52:35Z</time>
      </trkpt>
      <trkpt lat="48.05124" lon="7.26485">
        <ele>593.7</ele>
        <time>2018-06-14T16:52:43Z</time>
      </trkpt>
      <trkpt lat="48.0514" lon="7.26487">
        <ele>591.3</ele>
        <time>2018-06-14T16:52:48Z</time>
      </trkpt>
      <trkpt lat="48.05156" lon="7.26493">
        <ele>591.3</ele>
        <time>2018-06-14T16:52:53Z</time>
      </trkpt>
      <trkpt lat="48.05236" lon="7.26533">
        <ele>588.2</ele>
        <time>2018-06-14T16:53:20Z</time>
      </trkpt>
      <trkpt lat="48.05264" lon="7.26541">
        <ele>588.3</ele>
        <time>2018-06-14T16:53:28Z</time>
      </trkpt>
      <trkpt lat="48.05291" lon="7.26551">
        <ele>588.4</ele>
        <time>2018-06-14T16:53:37Z</time>
      </trkpt>
      <trkpt lat="48.05304" lon="7.2655">
        <ele>588.4</ele>
        <time>2018-06-14T16:53:41Z</time>
      </trkpt>
      <trkpt lat="48.05321" lon="7.2655">
        <ele>588.5</ele>
        <time>2018-06-14T16:53:46Z</time>
      </trkpt>
      <trkpt lat="48.05334" lon="7.26543">
        <ele>588.5</ele>
        <time>2018-06-14T16:53:51Z</time>
      </trkpt>
      <trkpt lat="48.05345" lon="7.26523">
        <ele>588.5</ele>
        <time>2018-06-14T16:53:56Z</time>
      </trkpt>
      <trkpt lat="48.05364" lon="7.26493">
        <ele>587.3</ele>
        <time>2018-06-14T16:54:04Z</time>
      </trkpt>
      <trkpt lat="48.05385" lon="7.2648">
        <ele>587.3</ele>
        <time>2018-06-14T16:54:12Z</time>
      </trkpt>
      <trkpt lat="48.05422" lon="7.26517">
        <ele>584.9</ele>
        <time>2018-06-14T16:54:26Z</time>
      </trkpt>
      <trkpt lat="48.05436" lon="7.26545">
        <ele>583.1</ele>
        <time>2018-06-14T16:54:33Z</time>
      </trkpt>
      <trkpt lat="48.05444" lon="7.26564">
        <ele>583</ele>
        <time>2018-06-14T16:54:38Z</time>
      </trkpt>
      <trkpt lat="48.05457" lon="7.26579">
        <ele>581.9</ele>
        <time>2018-06-14T16:54:42Z</time>
      </trkpt>
      <trkpt lat="48.05469" lon="7.26589">
        <ele>581.9</ele>
        <time>2018-06-14T16:54:47Z</time>
      </trkpt>
      <trkpt lat="48.0548" lon="7.26609">
        <ele>581.9</ele>
        <time>2018-06-14T16:54:52Z</time>
      </trkpt>
      <trkpt lat="48.05493" lon="7.26624">
        <ele>579.7</ele>
        <time>2018-06-14T16:54:57Z</time>
      </trkpt>
      <trkpt lat="48.05509" lon="7.26638">
        <ele>579.7</ele>
        <time>2018-06-14T16:55:03Z</time>
      </trkpt>
      <trkpt lat="48.0553" lon="7.26645">
        <ele>578.9</ele>
        <time>2018-06-14T16:55:10Z</time>
      </trkpt>
      <trkpt lat="48.0555" lon="7.26646">
        <ele>578.9</ele>
        <time>2018-06-14T16:55:16Z</time>
      </trkpt>
      <trkpt lat="48.05563" lon="7.2664">
        <ele>577.4</ele>
        <time>2018-06-14T16:55:20Z</time>
      </trkpt>
      <trkpt lat="48.0559" lon="7.26624">
        <ele>577.4</ele>
        <time>2018-06-14T16:55:29Z</time>
      </trkpt>
      <trkpt lat="48.05609" lon="7.26627">
        <ele>577.4</ele>
        <time>2018-06-14T16:55:35Z</time>
      </trkpt>
      <trkpt lat="48.05623" lon="7.26632">
        <ele>577.4</ele>
        <time>2018-06-14T16:55:40Z</time>
      </trkpt>
      <trkpt lat="48.05643" lon="7.2664">
        <ele>576.1</ele>
        <time>2018-06-14T16:55:46Z</time>
      </trkpt>
      <trkpt lat="48.05656" lon="7.26654">
        <ele>576.1</ele>
        <time>2018-06-14T16:55:51Z</time>
      </trkpt>
      <trkpt lat="48.05674" lon="7.2669">
        <ele>576</ele>
        <time>2018-06-14T16:56:01Z</time>
      </trkpt>
      <trkpt lat="48.057" lon="7.26748">
        <ele>576</ele>
        <time>2018-06-14T16:56:15Z</time>
      </trkpt>
      <trkpt lat="48.05728" lon="7.26765">
        <ele>579.4</ele>
        <time>2018-06-14T16:56:24Z</time>
      </trkpt>
      <trkpt lat="48.05739" lon="7.26785">
        <ele>576.9</ele>
        <time>2018-06-14T16:56:30Z</time>
      </trkpt>
      <trkpt lat="48.05754" lon="7.26788">
        <ele>576.8</ele>
        <time>2018-06-14T16:56:34Z</time>
      </trkpt>
      <trkpt lat="48.05771" lon="7.26792">
        <ele>576.7</ele>
        <time>2018-06-14T16:56:40Z</time>
      </trkpt>
      <trkpt lat="48.05791" lon="7.2681">
        <ele>579.5</ele>
        <time>2018-06-14T16:56:47Z</time>
      </trkpt>
      <trkpt lat="48.05803" lon="7.26821">
        <ele>581.4</ele>
        <time>2018-06-14T16:56:51Z</time>
      </trkpt>
      <trkpt lat="48.05795" lon="7.26804">
        <ele>578.8</ele>
        <time>2018-06-14T16:56:56Z</time>
      </trkpt>
      <trkpt lat="48.05797" lon="7.26819">
        <ele>577.9</ele>
        <time>2018-06-14T16:56:59Z</time>
      </trkpt>
      <trkpt lat="48.05817" lon="7.26842">
        <ele>583.7</ele>
        <time>2018-06-14T16:57:07Z</time>
      </trkpt>
      <trkpt lat="48.05827" lon="7.26859">
        <ele>585</ele>
        <time>2018-06-14T16:57:11Z</time>
      </trkpt>
      <trkpt lat="48.05841" lon="7.26875">
        <ele>587.3</ele>
        <time>2018-06-14T16:57:17Z</time>
      </trkpt>
      <trkpt lat="48.05856" lon="7.26889">
        <ele>589.3</ele>
        <time>2018-06-14T16:57:22Z</time>
      </trkpt>
      <trkpt lat="48.05866" lon="7.26906">
        <ele>591.5</ele>
        <time>2018-06-14T16:57:27Z</time>
      </trkpt>
      <trkpt lat="48.05872" lon="7.26925">
        <ele>592.7</ele>
        <time>2018-06-14T16:57:31Z</time>
      </trkpt>
      <trkpt lat="48.05892" lon="7.26956">
        <ele>595.4</ele>
        <time>2018-06-14T16:57:40Z</time>
      </trkpt>
      <trkpt lat="48.05908" lon="7.26994">
        <ele>598.7</ele>
        <time>2018-06-14T16:57:50Z</time>
      </trkpt>
      <trkpt lat="48.05928" lon="7.27021">
        <ele>601.5</ele>
        <time>2018-06-14T16:57:58Z</time>
      </trkpt>
      <trkpt lat="48.05942" lon="7.27032">
        <ele>604.3</ele>
        <time>2018-06-14T16:58:03Z</time>
      </trkpt>
      <trkpt lat="48.05956" lon="7.2704">
        <ele>607.1</ele>
        <time>2018-06-14T16:58:07Z</time>
      </trkpt>
      <trkpt lat="48.05972" lon="7.27036">
        <ele>609.4</ele>
        <time>2018-06-14T16:58:12Z</time>
      </trkpt>
      <trkpt lat="48.05982" lon="7.27021">
        <ele>610.7</ele>
        <time>2018-06-14T16:58:17Z</time>
      </trkpt>
      <trkpt lat="48.05997" lon="7.27003">
        <ele>614</ele>
        <time>2018-06-14T16:58:23Z</time>
      </trkpt>
      <trkpt lat="48.06021" lon="7.26995">
        <ele>617</ele>
        <time>2018-06-14T16:58:31Z</time>
      </trkpt>
      <trkpt lat="48.06026" lon="7.26986">
        <ele>618.3</ele>
        <time>2018-06-14T16:58:33Z</time>
      </trkpt>
      <trkpt lat="48.0604" lon="7.26985">
        <ele>613.9</ele>
        <time>2018-06-14T16:58:37Z</time>
      </trkpt>
      <trkpt lat="48.06058" lon="7.26974">
        <ele>609.6</ele>
        <time>2018-06-14T16:58:43Z</time>
      </trkpt>
      <trkpt lat="48.06067" lon="7.26949">
        <ele>607</ele>
        <time>2018-06-14T16:58:49Z</time>
      </trkpt>
      <trkpt lat="48.0607" lon="7.26913">
        <ele>603.3</ele>
        <time>2018-06-14T16:58:57Z</time>
      </trkpt>
      <trkpt lat="48.0607" lon="7.26916">
        <ele>598.1</ele>
        <time>2018-06-14T16:58:57Z</time>
      </trkpt>
      <trkpt lat="48.06072" lon="7.26906">
        <ele>595.4</ele>
        <time>2018-06-14T16:59:00Z</time>
      </trkpt>
      <trkpt lat="48.06079" lon="7.26922">
        <ele>592.1</ele>
        <time>2018-06-14T16:59:03Z</time>
      </trkpt>
      <trkpt lat="48.06085" lon="7.26915">
        <ele>587</ele>
        <time>2018-06-14T16:59:06Z</time>
      </trkpt>
      <trkpt lat="48.06089" lon="7.26943">
        <ele>583.5</ele>
        <time>2018-06-14T16:59:12Z</time>
      </trkpt>
      <trkpt lat="48.06099" lon="7.26937">
        <ele>579.4</ele>
        <time>2018-06-14T16:59:15Z</time>
      </trkpt>
      <trkpt lat="48.06105" lon="7.26938">
        <ele>575.6</ele>
        <time>2018-06-14T16:59:17Z</time>
      </trkpt>
      <trkpt lat="48.06108" lon="7.26977">
        <ele>571.7</ele>
        <time>2018-06-14T16:59:25Z</time>
      </trkpt>
      <trkpt lat="48.06117" lon="7.2698">
        <ele>570.3</ele>
        <time>2018-06-14T16:59:28Z</time>
      </trkpt>
      <trkpt lat="48.06132" lon="7.26962">
        <ele>564.5</ele>
        <time>2018-06-14T16:59:34Z</time>
      </trkpt>
      <trkpt lat="48.0614" lon="7.26943">
        <ele>563.3</ele>
        <time>2018-06-14T16:59:39Z</time>
      </trkpt>
      <trkpt lat="48.06147" lon="7.26925">
        <ele>561.1</ele>
        <time>2018-06-14T16:59:43Z</time>
      </trkpt>
      <trkpt lat="48.06152" lon="7.26927">
        <ele>558.1</ele>
        <time>2018-06-14T16:59:44Z</time>
      </trkpt>
      <trkpt lat="48.06155" lon="7.26948">
        <ele>555</ele>
        <time>2018-06-14T16:59:49Z</time>
      </trkpt>
      <trkpt lat="48.06165" lon="7.26932">
        <ele>550.4</ele>
        <time>2018-06-14T16:59:53Z</time>
      </trkpt>
      <trkpt lat="48.06172" lon="7.26909">
        <ele>548.4</ele>
        <time>2018-06-14T16:59:59Z</time>
      </trkpt>
      <trkpt lat="48.06179" lon="7.26913">
        <ele>545</ele>
        <time>2018-06-14T17:00:01Z</time>
      </trkpt>
      <trkpt lat="48.06184" lon="7.26933">
        <ele>541.8</ele>
        <time>2018-06-14T17:00:05Z</time>
      </trkpt>
      <trkpt lat="48.06195" lon="7.26923">
        <ele>538</ele>
        <time>2018-06-14T17:00:09Z</time>
      </trkpt>
      <trkpt lat="48.06202" lon="7.269">
        <ele>533.8</ele>
        <time>2018-06-14T17:00:15Z</time>
      </trkpt>
      <trkpt lat="48.06214" lon="7.26883">
        <ele>533.7</ele>
        <time>2018-06-14T17:00:20Z</time>
      </trkpt>
      <trkpt lat="48.06223" lon="7.26867">
        <ele>532.9</ele>
        <time>2018-06-14T17:00:24Z</time>
      </trkpt>
      <trkpt lat="48.0622" lon="7.26856">
        <ele>532.4</ele>
        <time>2018-06-14T17:00:27Z</time>
      </trkpt>
      <trkpt lat="48.0622" lon="7.26835">
        <ele>532.4</ele>
        <time>2018-06-14T17:00:31Z</time>
      </trkpt>
      <trkpt lat="48.06219" lon="7.26811">
        <ele>531.4</ele>
        <time>2018-06-14T17:00:36Z</time>
      </trkpt>
      <trkpt lat="48.06212" lon="7.26789">
        <ele>531.4</ele>
        <time>2018-06-14T17:00:41Z</time>
      </trkpt>
      <trkpt lat="48.06203" lon="7.26771">
        <ele>534.9</ele>
        <time>2018-06-14T17:00:46Z</time>
      </trkpt>
      <trkpt lat="48.06204" lon="7.26748">
        <ele>530.7</ele>
        <time>2018-06-14T17:00:50Z</time>
      </trkpt>
      <trkpt lat="48.0621" lon="7.26726">
        <ele>527.4</ele>
        <time>2018-06-14T17:00:55Z</time>
      </trkpt>
      <trkpt lat="48.06221" lon="7.26696">
        <ele>520.7</ele>
        <time>2018-06-14T17:01:02Z</time>
      </trkpt>
      <trkpt lat="48.06229" lon="7.26675">
        <ele>520.8</ele>
        <time>2018-06-14T17:01:07Z</time>
      </trkpt>
      <trkpt lat="48.06239" lon="7.26653">
        <ele>520.7</ele>
        <time>2018-06-14T17:01:13Z</time>
      </trkpt>
      <trkpt lat="48.06261" lon="7.2665">
        <ele>519.1</ele>
        <time>2018-06-14T17:01:20Z</time>
      </trkpt>
      <trkpt lat="48.0628" lon="7.26656">
        <ele>515.7</ele>
        <time>2018-06-14T17:01:26Z</time>
      </trkpt>
      <trkpt lat="48.06301" lon="7.26652">
        <ele>512.9</ele>
        <time>2018-06-14T17:01:32Z</time>
      </trkpt>
      <trkpt lat="48.06318" lon="7.26634">
        <ele>508.9</ele>
        <time>2018-06-14T17:01:39Z</time>
      </trkpt>
      <trkpt lat="48.06329" lon="7.26619">
        <ele>506.7</ele>
        <time>2018-06-14T17:01:43Z</time>
      </trkpt>
      <trkpt lat="48.06346" lon="7.26596">
        <ele>501.9</ele>
        <time>2018-06-14T17:01:51Z</time>
      </trkpt>
      <trkpt lat="48.06359" lon="7.26588">
        <ele>498.2</ele>
        <time>2018-06-14T17:01:55Z</time>
      </trkpt>
      <trkpt lat="48.06374" lon="7.26586">
        <ele>497.4</ele>
        <time>2018-06-14T17:02:00Z</time>
      </trkpt>
      <trkpt lat="48.06398" lon="7.26583">
        <ele>496.6</ele>
        <time>2018-06-14T17:02:07Z</time>
      </trkpt>
      <trkpt lat="48.06419" lon="7.2658">
        <ele>499.5</ele>
        <time>2018-06-14T17:02:14Z</time>
      </trkpt>
      <trkpt lat="48.06445" lon="7.26583">
        <ele>496.9</ele>
        <time>2018-06-14T17:02:22Z</time>
      </trkpt>
      <trkpt lat="48.0647" lon="7.26577">
        <ele>498.9</ele>
        <time>2018-06-14T17:02:30Z</time>
      </trkpt>
      <trkpt lat="48.0647" lon="7.26525">
        <ele>501.7</ele>
        <time>2018-06-14T17:02:40Z</time>
      </trkpt>
      <trkpt lat="48.06466" lon="7.26487">
        <ele>502.4</ele>
        <time>2018-06-14T17:02:48Z</time>
      </trkpt>
      <trkpt lat="48.06465" lon="7.26463">
        <ele>502.3</ele>
        <time>2018-06-14T17:02:53Z</time>
      </trkpt>
      <trkpt lat="48.06467" lon="7.26419">
        <ele>498.7</ele>
        <time>2018-06-14T17:03:02Z</time>
      </trkpt>
      <trkpt lat="48.06463" lon="7.26396">
        <ele>496.6</ele>
        <time>2018-06-14T17:03:08Z</time>
      </trkpt>
      <trkpt lat="48.06468" lon="7.26375">
        <ele>492.5</ele>
        <time>2018-06-14T17:03:12Z</time>
      </trkpt>
      <trkpt lat="48.06463" lon="7.26336">
        <ele>486.4</ele>
        <time>2018-06-14T17:03:21Z</time>
      </trkpt>
      <trkpt lat="48.06454" lon="7.26312">
        <ele>482.2</ele>
        <time>2018-06-14T17:03:26Z</time>
      </trkpt>
      <trkpt lat="48.06445" lon="7.26294">
        <ele>479.2</ele>
        <time>2018-06-14T17:03:31Z</time>
      </trkpt>
      <trkpt lat="48.06437" lon="7.26263">
        <ele>477.9</ele>
        <time>2018-06-14T17:03:38Z</time>
      </trkpt>
      <trkpt lat="48.06442" lon="7.26237">
        <ele>474.7</ele>
        <time>2018-06-14T17:03:43Z</time>
      </trkpt>
      <trkpt lat="48.06464" lon="7.2622">
        <ele>469.8</ele>
        <time>2018-06-14T17:03:51Z</time>
      </trkpt>
      <trkpt lat="48.06474" lon="7.26196">
        <ele>465.7</ele>
        <time>2018-06-14T17:03:57Z</time>
      </trkpt>
      <trkpt lat="48.06475" lon="7.26174">
        <ele>463</ele>
        <time>2018-06-14T17:04:01Z</time>
      </trkpt>
      <trkpt lat="48.06475" lon="7.26153">
        <ele>460.2</ele>
        <time>2018-06-14T17:04:06Z</time>
      </trkpt>
      <trkpt lat="48.06483" lon="7.26135">
        <ele>456.4</ele>
        <time>2018-06-14T17:04:10Z</time>
      </trkpt>
      <trkpt lat="48.06497" lon="7.26121">
        <ele>449.7</ele>
        <time>2018-06-14T17:04:15Z</time>
      </trkpt>
      <trkpt lat="48.06511" lon="7.26109">
        <ele>445.9</ele>
        <time>2018-06-14T17:04:20Z</time>
      </trkpt>
      <trkpt lat="48.06521" lon="7.26091">
        <ele>442</ele>
        <time>2018-06-14T17:04:25Z</time>
      </trkpt>
      <trkpt lat="48.06532" lon="7.26078">
        <ele>438.4</ele>
        <time>2018-06-14T17:04:30Z</time>
      </trkpt>
      <trkpt lat="48.06548" lon="7.26067">
        <ele>435.5</ele>
        <time>2018-06-14T17:04:35Z</time>
      </trkpt>
      <trkpt lat="48.06563" lon="7.26047">
        <ele>431.6</ele>
        <time>2018-06-14T17:04:41Z</time>
      </trkpt>
      <trkpt lat="48.06574" lon="7.2601">
        <ele>427.9</ele>
        <time>2018-06-14T17:04:50Z</time>
      </trkpt>
      <trkpt lat="48.06576" lon="7.25984">
        <ele>426.9</ele>
        <time>2018-06-14T17:04:55Z</time>
      </trkpt>
      <trkpt lat="48.06586" lon="7.25972">
        <ele>427</ele>
        <time>2018-06-14T17:04:59Z</time>
      </trkpt>
      <trkpt lat="48.06595" lon="7.25953">
        <ele>422.6</ele>
        <time>2018-06-14T17:05:04Z</time>
      </trkpt>
      <trkpt lat="48.06599" lon="7.2593">
        <ele>421.4</ele>
        <time>2018-06-14T17:05:09Z</time>
      </trkpt>
      <trkpt lat="48.06601" lon="7.25909">
        <ele>421.3</ele>
        <time>2018-06-14T17:05:13Z</time>
      </trkpt>
      <trkpt lat="48.06613" lon="7.25893">
        <ele>418.4</ele>
        <time>2018-06-14T17:05:18Z</time>
      </trkpt>
      <trkpt lat="48.06618" lon="7.25873">
        <ele>417.4</ele>
        <time>2018-06-14T17:05:23Z</time>
      </trkpt>
      <trkpt lat="48.06646" lon="7.25906">
        <ele>414.5</ele>
        <time>2018-06-14T17:05:34Z</time>
      </trkpt>
      <trkpt lat="48.06662" lon="7.25929">
        <ele>411.4</ele>
        <time>2018-06-14T17:05:41Z</time>
      </trkpt>
      <trkpt lat="48.06675" lon="7.25945">
        <ele>409.4</ele>
        <time>2018-06-14T17:05:46Z</time>
      </trkpt>
      <trkpt lat="48.06685" lon="7.25967">
        <ele>408.5</ele>
        <time>2018-06-14T17:05:51Z</time>
      </trkpt>
      <trkpt lat="48.06698" lon="7.25997">
        <ele>407.2</ele>
        <time>2018-06-14T17:05:59Z</time>
      </trkpt>
      <trkpt lat="48.06722" lon="7.2603">
        <ele>409</ele>
        <time>2018-06-14T17:06:09Z</time>
      </trkpt>
      <trkpt lat="48.06746" lon="7.26072">
        <ele>404</ele>
        <time>2018-06-14T17:06:20Z</time>
      </trkpt>
      <trkpt lat="48.06773" lon="7.26132">
        <ele>396</ele>
        <time>2018-06-14T17:06:36Z</time>
      </trkpt>
      <trkpt lat="48.06788" lon="7.2616">
        <ele>392</ele>
        <time>2018-06-14T17:06:43Z</time>
      </trkpt>
      <trkpt lat="48.06804" lon="7.26184">
        <ele>385</ele>
        <time>2018-06-14T17:06:50Z</time>
      </trkpt>
      <trkpt lat="48.06838" lon="7.26246">
        <ele>370</ele>
        <time>2018-06-14T17:07:07Z</time>
      </trkpt>
      <trkpt lat="48.06847" lon="7.26269">
        <ele>366</ele>
        <time>2018-06-14T17:07:12Z</time>
      </trkpt>
      <trkpt lat="48.06857" lon="7.26305">
        <ele>360</ele>
        <time>2018-06-14T17:07:20Z</time>
      </trkpt>
      <trkpt lat="48.06862" lon="7.26322">
        <ele>359</ele>
        <time>2018-06-14T17:07:24Z</time>
      </trkpt>
      <trkpt lat="48.06865" lon="7.26343">
        <ele>359</ele>
        <time>2018-06-14T17:07:29Z</time>
      </trkpt>
      <trkpt lat="48.06861" lon="7.26369">
        <ele>360</ele>
        <time>2018-06-14T17:07:34Z</time>
      </trkpt>
      <trkpt lat="48.06852" lon="7.26404">
        <ele>365</ele>
        <time>2018-06-14T17:07:42Z</time>
      </trkpt>
      <trkpt lat="48.06858" lon="7.26429">
        <ele>359</ele>
        <time>2018-06-14T17:07:47Z</time>
      </trkpt>
      <trkpt lat="48.06883" lon="7.26449">
        <ele>347</ele>
        <time>2018-06-14T17:07:56Z</time>
      </trkpt>
      <trkpt lat="48.06928" lon="7.2647">
        <ele>337</ele>
        <time>2018-06-14T17:08:11Z</time>
      </trkpt>
      <trkpt lat="48.06948" lon="7.26484">
        <ele>335</ele>
        <time>2018-06-14T17:08:18Z</time>
      </trkpt>
      <trkpt lat="48.0701" lon="7.26438">
        <ele>322</ele>
        <time>2018-06-14T17:08:39Z</time>
      </trkpt>
      <trkpt lat="48.07052" lon="7.26431">
        <ele>315</ele>
        <time>2018-06-14T17:08:52Z</time>
      </trkpt>
      <trkpt lat="48.07084" lon="7.26427">
        <ele>308</ele>
        <time>2018-06-14T17:09:02Z</time>
      </trkpt>
      <trkpt lat="48.0712" lon="7.26436">
        <ele>304</ele>
        <time>2018-06-14T17:09:14Z</time>
      </trkpt>
      <trkpt lat="48.07163" lon="7.26439">
        <ele>297</ele>
        <time>2018-06-14T17:09:27Z</time>
      </trkpt>
      <trkpt lat="48.07219" lon="7.26425">
        <ele>284</ele>
        <time>2018-06-14T17:09:45Z</time>
      </trkpt>
      <trkpt lat="48.07256" lon="7.26429">
        <ele>278</ele>
        <time>2018-06-14T17:09:56Z</time>
      </trkpt>
      <trkpt lat="48.07277" lon="7.26435">
        <ele>276</ele>
        <time>2018-06-14T17:10:03Z</time>
      </trkpt>
      <trkpt lat="48.07343" lon="7.26463">
        <ele>277</ele>
        <time>2018-06-14T17:10:24Z</time>
      </trkpt>
      <trkpt lat="48.07391" lon="7.26479">
        <ele>275</ele>
        <time>2018-06-14T17:10:39Z</time>
      </trkpt>
      <trkpt lat="48.07439" lon="7.26492">
        <ele>270</ele>
        <time>2018-06-14T17:10:55Z</time>
      </trkpt>
      <trkpt lat="48.07483" lon="7.2651">
        <ele>267</ele>
        <time>2018-06-14T17:11:09Z</time>
      </trkpt>
      <trkpt lat="48.07514" lon="7.26529">
        <ele>265</ele>
        <time>2018-06-14T17:11:19Z</time>
      </trkpt>
      <trkpt lat="48.07555" lon="7.26558">
        <ele>260</ele>
        <time>2018-06-14T17:11:33Z</time>
      </trkpt>
      <trkpt lat="48.07569" lon="7.26563">
        <ele>257</ele>
        <time>2018-06-14T17:11:38Z</time>
      </trkpt>
      <trkpt lat="48.07623" lon="7.26685">
        <ele>255</ele>
        <time>2018-06-14T17:12:08Z</time>
      </trkpt>
      <trkpt lat="48.07648" lon="7.2675">
        <ele>248</ele>
        <time>2018-06-14T17:12:24Z</time>
      </trkpt>
      <trkpt lat="48.07662" lon="7.26791">
        <ele>248</ele>
        <time>2018-06-14T17:12:33Z</time>
      </trkpt>
      <trkpt lat="48.07684" lon="7.26856">
        <ele>251.8</ele>
        <time>2018-06-14T17:12:48Z</time>
      </trkpt>
      <trkpt lat="48.07698" lon="7.26903">
        <ele>252</ele>
        <time>2018-06-14T17:12:59Z</time>
      </trkpt>
    </trkseg>
  </trk>
</gpx>